Date StartTime U_cm/s V_cm/s W_cm/s Ustd_cm/s Vstd_cm/s Wstd_cm/s Uvar_(cm/s)^2 Vvar_(cm/s)^2 Wvar_(cm/s)^2 KE_(m/s)^2 TurbulentKE_(m/s)^2 HorizWindSpeed_cm/s FrictionSpeec_cm/s DragCoef SpeedOfSound_m/s SonicTemperature_C Pressure_mb 
05/20/2014  00:00:00     -196.103      224.340      -36.301       78.142      113.680       54.173     6106.172    12923.138     2934.755        5.603        1.098      297.968       48.020        0.026      338.085       10.494      857.128
05/20/2014  00:01:00     -174.056      222.678      -41.263       86.450       89.461       59.791     7473.607     8003.191     3575.005        5.031        0.953      282.632       57.675        0.042      338.106       10.529      857.127
05/20/2014  00:02:00      -85.937      180.187      -16.687       57.809       78.216       47.032     3341.859     6117.733     2212.017        2.590        0.584      199.631       33.180        0.028      338.207       10.698      857.114
05/20/2014  00:03:00     -204.954      275.838      -39.461       95.295      128.814       63.847     9081.212    16592.975     4076.476        7.469        1.488      343.646       59.542        0.030      338.098       10.516      857.112
05/20/2014  00:04:00     -164.225      269.132      -48.437       84.630       94.457       46.970     7162.259     8922.062     2206.181        6.002        0.915      315.280       46.357        0.022      338.042       10.421      857.110
05/20/2014  00:05:00     -137.960      181.032      -25.940       85.063      102.109       56.448     7235.717    10426.218     3186.362        3.666        1.042      227.608       49.688        0.048      338.116       10.547      857.096
05/20/2014  00:06:00     -103.813      178.043      -33.870       82.085       94.763       51.134     6738.020     8980.041     2614.672        3.097        0.917      206.098       41.951        0.041      338.108       10.534      857.095
05/20/2014  00:07:00     -173.450      274.274      -42.992      118.811      150.091       62.469    14115.949    22527.393     3902.421        7.384        2.027      324.517       73.013        0.051      338.037       10.414      857.079
05/20/2014  00:08:00     -192.035      176.138      -31.005       98.265      137.072       58.893     9656.028    18788.835     3468.412        5.038        1.596      260.580       62.585        0.058      338.060       10.451      857.061
05/20/2014  00:09:00     -101.269      189.769      -24.071       67.615      139.019       49.863     4571.724    19326.365     2486.334        3.661        1.319      215.099       58.719        0.075      338.063       10.457      857.051
05/20/2014  00:10:00     -162.522      284.612      -42.985       81.628      132.597       54.462     6663.198    17581.945     2966.095        6.823        1.361      327.746       48.426        0.022      337.977       10.312      857.058
05/20/2014  00:11:00     -163.229      161.690      -29.293       94.307      108.294       57.439     8893.771    11727.679     3299.242        3.878        1.196      229.755       61.766        0.072      338.007       10.363      857.042
05/20/2014  00:12:00     -150.172      190.857      -31.163       89.134      107.818       59.167     7944.859    11624.710     3500.693        4.151        1.154      242.854       64.741        0.071      338.003       10.357      857.042
05/20/2014  00:13:00     -163.439      249.459      -44.258       98.736      105.069       51.572     9748.833    11039.561     2659.650        5.717        1.172      298.232       47.586        0.025      337.924       10.223      857.042
05/20/2014  00:14:00     -149.453      235.700      -25.942       85.485      114.026       58.364     7307.627    13001.990     3406.366        5.114        1.186      279.089       51.031        0.033      337.949       10.264      857.046
05/20/2014  00:15:00     -148.399      147.152      -24.195       81.427       82.924       57.523     6630.380     6876.336     3308.902        3.054        0.841      208.988       42.048        0.040      337.995       10.343      857.055
05/20/2014  00:16:00     -154.730      193.546      -29.639       91.554       93.573       56.191     8382.175     8755.905     3157.473        4.128        1.015      247.794       50.134        0.041      337.971       10.301      857.048
05/20/2014  00:17:00     -165.906      219.111      -33.463       85.362       94.102       53.972     7286.710     8855.257     2912.956        4.785        0.953      274.835       54.836        0.040      337.908       10.194      857.053
05/20/2014  00:18:00     -232.912      296.620      -49.520       82.431      108.635       56.448     6794.948    11801.472     3186.402        8.323        1.089      377.136       50.427        0.018      337.886       10.159      857.064
05/20/2014  00:19:00     -130.966      262.770      -19.627       87.873       96.427       60.664     7721.673     9298.123     3680.133        5.364        1.035      293.599       56.601        0.037      337.922       10.219      857.060
05/20/2014  00:20:00     -191.694      187.852      -27.788       93.409      112.802       62.180     8725.264    12724.284     3866.390        4.906        1.266      268.394       71.416        0.071      337.980       10.319      857.070
05/20/2014  00:21:00     -127.227      238.614      -37.656       78.657      123.512       46.805     6186.861    15255.314     2190.725        4.908        1.182      270.413       41.940        0.024      337.911       10.202      857.088
05/20/2014  00:22:00     -167.056      179.784      -35.285       85.179       90.701       55.689     7255.445     8226.680     3101.276        4.003        0.929      245.418       54.366        0.049      337.963       10.289      857.115
05/20/2014  00:23:00     -153.854      240.147      -12.477      123.688      122.408       71.683    15298.696    14983.631     5138.463        5.845        1.771      285.204       52.856        0.034      337.896       10.175      857.113
05/20/2014  00:24:00     -151.352      165.441      -35.068      103.834      108.069       63.419    10781.428    11678.984     4021.966        3.899        1.324      224.228       74.195        0.109      337.902       10.186      857.105
05/20/2014  00:25:00     -137.627      164.882      -28.077       94.648       96.975       49.793     8958.256     9404.124     2479.331        3.387        1.042      214.773       50.931        0.056      337.920       10.218      857.106
05/20/2014  00:26:00     -141.955      265.144      -36.351       85.660      174.294       51.812     7337.579    30378.373     2684.529        6.608        2.020      300.754       62.821        0.044      337.948       10.263      857.087
05/20/2014  00:27:00     -165.301      287.732      -39.620      111.905      111.777       63.379    12522.697    12494.019     4016.859        7.035        1.452      331.835       65.380        0.039      337.870       10.131      857.075
05/20/2014  00:28:00     -145.384      270.118      -43.586       79.101       99.209       54.281     6257.017     9842.503     2946.384        5.752        0.952      306.757       48.635        0.025      337.905       10.189      857.080
05/20/2014  00:29:00     -128.402      287.595      -31.493       73.844       91.895       50.354     5452.931     8444.699     2535.528        5.831        0.822      314.957       40.213        0.016      337.862       10.120      857.067
05/20/2014  00:30:00     -122.208      254.178      -37.478      105.331      124.191       53.064    11094.657    15423.454     2815.771        5.513        1.467      282.031       55.851        0.039      337.923       10.220      857.075
05/20/2014  00:31:00     -119.054      229.192      -20.092       54.210       98.700       49.705     2938.764     9741.686     2470.589        4.113        0.758      258.269       45.621        0.031      337.902       10.186      857.081
05/20/2014  00:32:00     -108.150      228.484      -24.582      110.662      120.291       65.157    12246.102    14470.014     4245.416        4.773        1.548      252.787       72.543        0.082      337.876       10.142      857.096
05/20/2014  00:33:00      -92.403      199.717      -29.024       52.382       87.096       48.783     2743.910     7585.654     2379.757        3.099        0.635      220.057       44.951        0.042      337.874       10.140      857.104
05/20/2014  00:34:00     -113.759      164.099      -27.837       52.141       62.705       40.151     2718.700     3931.874     1612.108        2.445        0.413      199.674       26.381        0.017      337.899       10.184      857.116
05/20/2014  00:35:00     -112.383      240.465      -30.848       81.932       88.729       44.219     6712.844     7872.763     1955.352        4.397        0.827      265.431       38.564        0.021      337.866       10.126      857.128
05/20/2014  00:36:00     -136.791      157.888      -16.706       87.600      118.122       42.978     7673.835    13952.858     1847.102        3.369        1.174      208.903       30.990        0.022      337.914       10.206      857.112
05/20/2014  00:37:00      -80.256       64.763       -9.771      105.619       77.203       50.079    11155.472     5960.364     2507.928        1.517        0.981      103.128       52.353        0.258      337.953       10.275      857.098
05/20/2014  00:38:00      -64.190      132.480      -14.713       56.674       99.994       38.345     3211.950     9998.758     1470.354        1.828        0.734      147.211       39.570        0.072      337.906       10.197      857.101
05/20/2014  00:39:00     -139.182      235.821      -32.511       66.273       90.683       44.197     4392.142     8223.415     1953.339        4.530        0.728      273.831       32.780        0.014      337.839       10.081      857.087
05/20/2014  00:40:00     -110.088      165.972      -24.633       68.770       97.996       48.110     4729.378     9603.179     2314.525        2.846        0.832      199.163       53.614        0.072      337.872       10.137      857.089
05/20/2014  00:41:00     -144.600      114.395       -9.226       80.752       91.622       47.026     6520.963     8394.585     2211.459        2.560        0.856      184.379       38.320        0.043      337.922       10.221      857.098
05/20/2014  00:42:00     -134.286      171.267      -18.511       92.457       93.105       57.806     8548.249     8668.579     3341.530        3.413        1.028      217.635       57.837        0.071      337.888       10.165      857.096
05/20/2014  00:43:00     -116.827      148.592      -22.103       67.956       59.846       37.155     4618.009     3581.499     1380.519        2.290        0.479      189.019       28.966        0.023      337.882       10.154      857.084
05/20/2014  00:44:00     -105.639      163.317      -22.856       81.762      134.770       47.999     6685.095    18162.839     2303.915        3.275        1.358      194.505       48.821        0.063      337.836       10.076      857.064
05/20/2014  00:45:00     -155.557      212.389      -47.611       70.969       99.287       38.042     5036.600     9857.872     1447.180        4.395        0.817      263.262       41.263        0.025      337.772        9.969      857.063
05/20/2014  00:46:00      -73.641      121.066      -15.945       64.334       70.871       42.553     4138.926     5022.714     1810.763        1.565        0.549      141.704       39.191        0.076      337.848       10.097      857.053
05/20/2014  00:47:00     -102.396      196.550      -22.844       69.788       87.590       47.787     4870.303     7672.080     2283.618        3.223        0.741      221.623       37.793        0.029      337.878       10.147      857.062
05/20/2014  00:48:00     -112.549      149.098      -25.076       89.497       73.939       36.383     8009.639     5467.040     1323.731        2.516        0.740      186.809       34.303        0.034      337.859       10.116      857.060
05/20/2014  00:49:00     -166.631      196.131      -32.822       67.292       80.136       61.053     4528.269     6421.714     3727.466        4.099        0.734      257.359       45.449        0.031      337.849       10.099      857.064
05/20/2014  00:50:00     -137.834      191.263      -38.927       72.756       80.732       47.687     5293.440     6517.635     2274.033        3.559        0.704      235.753       39.300        0.028      337.815       10.040      857.054
05/20/2014  00:51:00      -70.810      228.372      -20.367       72.444       82.068       42.360     5248.072     6735.188     1794.402        3.568        0.689      239.098       39.618        0.027      337.740        9.916      857.051
05/20/2014  00:52:00      -53.846      165.505      -11.452       48.257       79.143       39.164     2328.707     6263.566     1533.824        2.027        0.506      174.044       40.336        0.054      337.795       10.009      857.050
05/20/2014  00:53:00      -96.933      144.669      -18.036       53.302       67.496       34.236     2841.053     4555.681     1172.120        1.961        0.428      174.141       34.621        0.040      337.867       10.129      857.067
05/20/2014  00:54:00     -137.278      212.946      -40.720       64.347       71.224       40.877     4140.472     5072.830     1670.953        3.836        0.544      253.360       41.238        0.026      337.728        9.895      857.082
05/20/2014  00:55:00     -107.166      115.204       -9.666       90.870       71.332       48.295     8257.394     5088.254     2332.367        2.026        0.784      157.342       44.263        0.079      337.836       10.078      857.094
05/20/2014  00:56:00      -56.310      177.836      -30.840       43.700       61.717       35.083     1909.648     3808.983     1230.839        2.135        0.347      186.538       30.209        0.026      337.790       10.000      857.102
05/20/2014  00:57:00      -65.274      215.045      -18.045       72.466       83.961       49.830     5251.339     7049.487     2483.035        3.280        0.739      224.733       37.130        0.027      337.778        9.980      857.114
05/20/2014  00:58:00      -95.849      134.588      -13.481       83.721       85.635       45.888     7009.199     7333.382     2105.742        2.196        0.822      165.230       44.405        0.072      337.742        9.920      857.129
05/20/2014  00:59:00      -37.814      162.426      -17.383       90.458       65.960       36.498     8182.711     4350.691     1332.080        2.099        0.693      166.769       34.713        0.043      337.721        9.883      857.138
05/20/2014  01:00:00      -44.255      171.265      -22.648       47.905       72.663       38.256     2294.929     5279.869     1463.542        2.042        0.452      176.891       36.379        0.042      337.754        9.941      857.158
05/20/2014  01:01:00      -46.816      171.541      -25.629       47.373       60.418       34.245     2244.170     3650.318     1172.694        1.967        0.353      177.814       33.755        0.036      337.731        9.902      857.169
05/20/2014  01:02:00      -29.686      150.246      -14.259       54.128       75.735       28.410     2929.853     5735.794      807.124        1.656        0.474      153.150       29.829        0.038      337.737        9.912      857.183
05/20/2014  01:03:00      -43.487      160.038      -22.532       57.035       55.116       26.214     3252.980     3037.738      687.172        1.749        0.349      165.841       23.970        0.021      337.718        9.880      857.196
05/20/2014  01:04:00      -67.800      188.992      -28.194       36.366       44.909       28.057     1322.508     2016.862      787.174        2.262        0.206      200.785       18.089        0.008      337.605        9.690      857.195
05/20/2014  01:05:00      -70.044      129.882      -13.247       68.717       66.357       36.356     4722.073     4403.241     1321.724        1.620        0.522      147.566       31.206        0.045      337.741        9.919      857.187
05/20/2014  01:06:00      -56.737      170.513      -20.784       43.662       73.076       40.197     1906.403     5340.145     1615.764        2.079        0.443      179.705       40.243        0.050      337.606        9.692      857.180
05/20/2014  01:07:00      -77.120      139.272      -24.392       36.228       56.464       28.796     1312.435     3188.218      829.232        1.563        0.266      159.198       22.785        0.020      337.635        9.742      857.174
05/20/2014  01:08:00     -115.945       81.706      -22.333       51.153       61.275       30.081     2616.597     3754.609      904.880        1.395        0.364      141.841       30.311        0.046      337.797       10.014      857.171
05/20/2014  01:09:00     -105.819       91.704      -17.042       50.428       58.202       32.686     2543.027     3387.439     1068.344        1.345        0.350      140.027       29.677        0.045      337.617        9.713      857.179
05/20/2014  01:10:00     -122.825      110.932      -28.716       48.910       68.497       34.200     2392.176     4691.810     1169.672        1.823        0.413      165.505       41.164        0.062      337.659        9.783      857.190
05/20/2014  01:11:00     -128.971      116.551      -33.252       55.640       62.936       30.961     3095.806     3960.961      958.553        1.967        0.401      173.832       35.246        0.041      337.648        9.761      857.191
05/20/2014  01:12:00       -0.146       86.960       -4.751       45.743       68.142       20.197     2092.429     4643.352      407.915        0.736        0.357       86.960       18.398        0.045      337.641        9.753      857.198
05/20/2014  01:13:00      -31.690      214.121      -30.493       45.566       55.188       27.191     2076.295     3045.704      739.327        2.682        0.293      216.454       20.066        0.009      337.527        9.558      857.207
05/20/2014  01:14:00      -80.356      256.884      -36.343       53.891       80.549       39.383     2904.192     6488.154     1551.048        4.235        0.547      269.159       43.081        0.026      337.531        9.564      857.203
05/20/2014  01:15:00      -15.015      235.816      -36.056       46.327      103.552       28.917     2146.179    10723.032      836.184        3.542        0.685      236.293       34.596        0.021      337.500        9.515      857.202
05/20/2014  01:16:00      -41.431      321.811      -51.443       43.315       45.170       24.593     1876.156     2040.294      604.839        5.622        0.226      324.467       14.689        0.002      337.489        9.492      857.190
05/20/2014  01:17:00      -41.266      160.540      -24.348       65.277       77.412       39.391     4261.095     5992.635     1551.678        1.993        0.590      165.758       28.824        0.030      337.561        9.614      857.200
05/20/2014  01:18:00      -25.209      245.980      -20.710       42.048       84.135       39.602     1768.046     7078.702     1568.338        3.599        0.521      247.269       43.621        0.031      337.526        9.556      857.202
05/20/2014  01:19:00      -31.243      161.124      -17.862       65.419       82.810       32.933     4279.628     6857.465     1084.555        1.974        0.611      164.125       29.788        0.033      337.651        9.769      857.196
05/20/2014  01:20:00      -91.504      264.894      -41.115       76.181       92.986       39.472     5803.615     8646.474     1558.050        4.812        0.800      280.253       37.459        0.018      337.583        9.651      857.198
05/20/2014  01:21:00      -91.791      186.616      -27.067       78.249       75.695       55.848     6122.911     5729.749     3119.023        2.947        0.749      207.969       42.747        0.042      337.614        9.703      857.197
05/20/2014  01:22:00      -29.052      193.355      -34.391       78.707       60.941       31.671     6194.836     3713.751     1003.066        2.516        0.546      195.526       24.611        0.016      337.619        9.714      857.197
05/20/2014  01:23:00      -14.766      217.625      -38.222       42.444       46.806       31.811     1801.530     2190.766     1011.965        2.702        0.250      218.125       25.997        0.014      337.531        9.563      857.190
05/20/2014  01:24:00      -65.639      228.487      -34.190       47.432       55.273       36.266     2249.787     3055.135     1315.190        3.215        0.331      237.728       30.218        0.016      337.531        9.564      857.192
05/20/2014  01:25:00      -51.905      163.331      -23.858       52.401       39.927       28.221     2745.827     1594.129      796.411        1.754        0.257      171.380       27.161        0.025      337.577        9.645      857.189
05/20/2014  01:26:00      -40.497      132.166      -12.370       64.175       70.170       44.744     4118.380     4923.853     2002.046        1.515        0.552      138.231       40.287        0.085      337.576        9.642      857.182
05/20/2014  01:27:00      -73.374      191.150      -25.681       60.583       79.488       35.963     3670.331     6318.385     1293.318        2.693        0.564      204.748       40.237        0.039      337.545        9.588      857.182
05/20/2014  01:28:00      -75.324      167.115      -14.420       83.439       71.608       43.577     6962.115     5127.655     1898.995        2.390        0.699      183.306       47.073        0.066      337.516        9.541      857.175
05/20/2014  01:29:00      -36.941      127.685      -10.901       38.479       69.483       33.122     1480.667     4827.888     1097.066        1.259        0.370      132.921       41.530        0.098      337.512        9.537      857.165
05/20/2014  01:30:00      -61.293      247.190      -35.871       49.683       96.847       40.438     2468.361     9379.394     1635.232        3.981        0.674      254.676       46.517        0.033      337.499        9.511      857.158
05/20/2014  01:31:00      -61.581      188.799      -15.597       59.297      104.612       47.834     3516.166    10943.671     2288.126        2.821        0.837      198.589       60.396        0.092      337.553        9.603      857.143
05/20/2014  01:32:00      -70.065      243.171      -38.290       61.878       75.354       35.320     3828.862     5678.229     1247.524        3.813        0.538      253.063       29.233        0.013      337.481        9.482      857.143
05/20/2014  01:33:00     -121.604      252.696      -39.945       63.193       81.950       42.881     3993.304     6715.750     1838.748        4.639        0.627      280.433       41.762        0.022      337.477        9.472      857.140
05/20/2014  01:34:00      -61.483      252.182      -39.296       72.036       85.813       39.115     5189.210     7363.800     1529.960        4.150        0.704      259.568       40.078        0.024      337.478        9.477      857.131
05/20/2014  01:35:00      -92.742      161.761      -13.850       71.606       92.019       47.184     5127.490     8467.545     2226.345        2.539        0.791      186.460       36.797        0.039      337.615        9.708      857.117
05/20/2014  01:36:00     -154.881      290.351      -35.178       65.484       89.889       52.301     4288.191     8079.959     2735.375        6.231        0.755      329.077       41.467        0.016      337.451        9.430      857.110
05/20/2014  01:37:00     -147.306      161.298      -15.162       90.260      107.036       57.620     8146.917    11456.629     3320.117        3.543        1.146      218.441       56.071        0.066      337.532        9.567      857.098
05/20/2014  01:38:00      -93.617      191.354      -20.342       75.481      117.735       43.239     5697.308    13861.634     1869.635        3.361        1.071      213.027       32.683        0.024      337.586        9.658      857.090
05/20/2014  01:39:00     -114.946      198.038      -21.617       64.371       99.546       50.395     4143.584     9909.475     2539.673        3.474        0.830      228.980       50.382        0.048      337.471        9.465      857.096
05/20/2014  01:40:00      -93.867      118.900      -11.417       62.998       79.823       43.480     3968.802     6371.693     1890.488        1.765        0.612      151.486       38.081        0.063      337.505        9.523      857.087
05/20/2014  01:41:00     -128.207      177.856      -35.060       60.429      115.991       43.793     3651.614    13454.025     1917.834        3.416        0.951      219.248       34.711        0.025      337.442        9.416      857.071
05/20/2014  01:42:00     -118.109      155.818      -33.381       81.917       79.976       48.706     6710.370     6396.188     2372.271        2.741        0.774      195.523       48.307        0.061      337.504        9.520      857.063
05/20/2014  01:43:00     -175.170      172.509      -39.658       69.027       96.077       53.181     4764.661     9230.850     2828.247        3.942        0.841      245.853       40.770        0.027      337.456        9.439      857.062
05/20/2014  01:44:00     -173.095      154.166      -35.911       88.278       87.363       45.448     7792.983     7632.326     2065.499        3.625        0.875      231.795       34.196        0.022      337.501        9.515      857.071
05/20/2014  01:45:00     -142.709      126.216      -25.426       65.012       74.307       42.896     4226.514     5521.561     1840.043        2.426        0.579      190.517       39.313        0.043      337.421        9.380      857.062
05/20/2014  01:46:00     -162.893      108.777      -32.390       72.355       76.889       38.742     5235.293     5911.982     1500.958        2.603        0.632      195.874       37.629        0.037      337.443        9.418      857.054
05/20/2014  01:47:00     -134.175      111.441      -12.599       74.410       53.629       44.522     5536.918     2876.084     1982.171        2.049        0.520      174.419       47.405        0.074      337.420        9.381      857.057
05/20/2014  01:48:00     -149.370        5.698       -9.477       48.113       55.591       29.551     2314.888     3090.327      873.283        1.435        0.314      149.479       24.394        0.027      337.587        9.661      857.061
05/20/2014  01:49:00      -80.479      -12.272        4.321       68.027       61.679       42.753     4627.608     3804.291     1827.824        0.845        0.513       81.409       34.444        0.179      337.433        9.404      857.062
05/20/2014  01:50:00     -145.595      -15.361        0.335       70.251       54.790       41.198     4935.217     3001.980     1697.265        1.553        0.482      146.403       32.912        0.051      337.455        9.440      857.069
05/20/2014  01:51:00     -152.110       24.461      -16.375       55.769       70.139       33.255     3110.187     4919.460     1105.923        1.657        0.457      154.064       18.191        0.014      337.413        9.368      857.079
05/20/2014  01:52:00     -153.795       14.270       -7.465       53.813       63.067       40.944     2895.889     3977.484     1676.433        1.623        0.427      154.455       26.930        0.030      337.377        9.308      857.093
05/20/2014  01:53:00     -142.735      -29.320      -15.300       59.551       48.711       28.345     3546.362     2372.801      803.445        1.409        0.336      145.716       20.681        0.020      337.324        9.222      857.078
05/20/2014  01:54:00     -178.889       18.268      -13.232      123.320      109.907       48.442    15207.939    12079.565     2346.656        3.107        1.482      179.819       39.454        0.048      337.300        9.179      857.054
05/20/2014  01:55:00     -223.200      -26.581      -21.577       88.719       54.505       45.448     7871.008     2970.843     2065.477        3.195        0.645      224.777       41.141        0.034      337.272        9.133      857.027
05/20/2014  01:56:00     -128.975       21.935      -16.406       70.899       64.887       37.175     5026.663     4210.377     1381.965        1.400        0.531      130.827       35.895        0.075      337.415        9.374      857.009
05/20/2014  01:57:00     -136.452      -66.844        3.061       92.027       92.102       46.485     8468.980     8482.745     2160.856        2.110        0.956      151.945       35.935        0.056      337.200        9.012      856.966
05/20/2014  01:58:00     -139.950      -61.906        0.807       81.468       57.137       40.303     6637.082     3264.665     1624.328        1.747        0.576      153.031       41.049        0.072      337.177        8.974      856.934
05/20/2014  01:59:00     -210.602      -57.653      -23.887       40.767       59.432       27.831     1661.972     3532.219      774.568        2.711        0.298      218.351       14.653        0.005      337.104        8.850      856.901
05/20/2014  02:00:00     -156.199      -63.236      -20.408       58.891       34.794       27.582     3468.148     1210.627      760.770        1.713        0.272      168.514        7.603        0.002      337.092        8.832      856.889
05/20/2014  02:01:00     -192.855      -66.197      -25.879       33.853       43.340       29.582     1145.993     1878.325      875.085        2.307        0.195      203.900       11.252        0.003      337.085        8.819      856.889
05/20/2014  02:02:00     -175.753      -47.043       -3.012       88.754       76.079       45.955     7877.228     5788.055     2111.839        2.444        0.789      181.940       44.879        0.061      337.095        8.835      856.879
05/20/2014  02:03:00     -261.233      -67.362      -11.482       50.926       54.852       31.145     2593.419     3008.795      970.040        3.974        0.329      269.779       20.339        0.006      337.002        8.678      856.896
05/20/2014  02:04:00     -227.555      -55.516       -1.083       88.644       55.161       35.321     7857.690     3042.780     1247.599        3.350        0.607      234.229       36.565        0.024      336.992        8.661      856.899
05/20/2014  02:05:00     -141.713      -43.021        6.061       91.415       53.742       30.995     8356.639     2888.251      960.685        1.709        0.610      148.100       38.031        0.066      337.036        8.738      856.904
05/20/2014  02:06:00     -169.106      -31.086      -13.651       48.871       48.692       25.282     2388.342     2370.883      639.200        1.757        0.270      171.940       24.278        0.020      337.093        8.832      856.899
05/20/2014  02:07:00     -178.019      -43.144       -5.388       80.016       53.790       40.634     6402.533     2893.324     1651.087        2.226        0.547      183.172       43.147        0.055      337.048        8.757      856.906
05/20/2014  02:08:00     -201.152      -36.130      -25.491       40.622       51.332       24.841     1650.131     2634.955      617.053        2.366        0.245      204.371       15.853        0.006      337.039        8.742      856.901
05/20/2014  02:09:00     -187.943      -46.436      -16.166       82.383       56.585       31.043     6786.962     3201.891      963.646        2.434        0.548      193.595       33.261        0.030      337.124        8.885      856.889
05/20/2014  02:10:00     -201.918      -88.390       -9.497       54.275       58.250       32.805     2945.734     3393.089     1076.195        2.804        0.371      220.418       30.258        0.019      337.039        8.740      856.872
05/20/2014  02:11:00     -128.336      -56.521       -2.709       82.029       60.120       42.058     6728.715     3614.372     1768.857        1.589        0.606      140.231       37.740        0.072      337.092        8.830      856.851
05/20/2014  02:12:00     -170.038      -42.153      -16.425       50.912       55.605       25.515     2591.990     3091.878      651.007        1.865        0.317      175.185       26.364        0.023      337.064        8.784      856.851
05/20/2014  02:13:00     -144.212      -55.882       -9.705       59.636       48.498       35.989     3556.494     2352.011     1295.202        1.561        0.360      154.661       36.412        0.055      337.114        8.870      856.840
05/20/2014  02:14:00     -154.156      -68.242      -12.522       45.699       37.043       24.048     2088.382     1372.161      578.295        1.631        0.202      168.585       20.485        0.015      337.085        8.821      856.825
05/20/2014  02:15:00     -119.867      -60.467       -7.697       54.278       35.361       31.083     2946.105     1250.369      966.170        1.162        0.258      134.255       25.557        0.036      337.110        8.862      856.815
05/20/2014  02:16:00     -151.345      -37.876      -17.733       56.226       46.321       30.337     3161.313     2145.658      920.338        1.544        0.311      156.012       27.219        0.030      337.045        8.752      856.801
05/20/2014  02:17:00     -142.112      -45.107       -8.706       43.353       50.081       28.870     1879.458     2508.069      833.454        1.376        0.261      149.098       22.399        0.023      337.058        8.775      856.781
05/20/2014  02:18:00     -132.223        5.406       -6.637       51.234       52.935       27.778     2624.891     2802.108      771.608        1.188        0.310      132.333       25.433        0.037      337.214        9.037      856.761
05/20/2014  02:19:00     -133.848      -45.947       -3.359       50.776       60.780       33.381     2578.174     3694.267     1114.307        1.371        0.369      141.515       26.717        0.036      337.108        8.859      856.751
05/20/2014  02:20:00     -178.039        0.219      -13.707       51.149       65.982       29.438     2616.188     4353.582      866.609        1.986        0.392      178.039       22.537        0.016      337.185        8.988      856.747
05/20/2014  02:21:00     -117.744      -71.740        0.989       60.979       59.556       28.198     3718.470     3546.951      795.102        1.353        0.403      137.877       32.195        0.055      337.036        8.738      856.734
05/20/2014  02:22:00     -145.369      -74.828       -4.264       50.004       48.586       26.878     2500.395     2360.565      722.421        1.617        0.279      163.497       21.318        0.017      337.012        8.697      856.732
05/20/2014  02:23:00     -147.056      -55.181       -0.321       53.899       51.947       35.838     2905.057     2698.509     1284.376        1.578        0.344      157.068       34.502        0.048      336.981        8.647      856.728
05/20/2014  02:24:00     -185.958      -25.304      -12.523       53.200       67.035       38.103     2830.279     4493.628     1451.832        2.207        0.439      187.672       27.598        0.022      337.032        8.729      856.712
05/20/2014  02:25:00     -229.798       -2.631      -16.005       73.586       49.637       37.982     5414.950     2463.809     1442.609        3.119        0.466      229.813       38.622        0.028      337.066        8.786      856.699
05/20/2014  02:26:00      -91.195      -17.985       -3.548       65.657       44.337       34.362     4310.898     1965.769     1180.757        0.805        0.373       92.951       34.766        0.140      337.058        8.776      856.679
05/20/2014  02:27:00     -126.304      -40.735       11.516       93.246       57.586       35.520     8694.737     3316.151     1261.639        1.551        0.664      132.710       42.553        0.103      336.991        8.661      856.667
05/20/2014  02:28:00     -139.793      -28.290       -7.223       75.515       61.443       37.338     5702.565     3775.211     1394.106        1.563        0.544      142.627       31.095        0.048      337.016        8.703      856.667
05/20/2014  02:29:00     -127.002      -21.912       -0.489       86.371       79.359       42.264     7459.885     6297.811     1786.244        1.607        0.777      128.878       33.122        0.066      337.037        8.738      856.650
05/20/2014  02:30:00      -73.195       10.955       11.025       52.029       39.907       35.741     2707.033     1592.594     1277.435        0.559        0.279       74.011       26.514        0.128      337.200        9.013      856.658
05/20/2014  02:31:00      -85.417       -2.781      -10.931       70.124       39.918       27.813     4917.431     1593.438      773.553        0.735        0.364       85.462       28.246        0.109      337.148        8.927      856.666
05/20/2014  02:32:00      -84.140       18.225       -8.804       66.314       53.924       27.120     4397.507     2907.782      735.473        0.776        0.402       86.091       19.496        0.051      337.167        8.957      856.665
05/20/2014  02:33:00     -103.354      121.745      -27.897       93.627       69.326       54.205     8766.054     4806.150     2938.205        2.139        0.826      159.699       44.711        0.078      337.302        9.184      856.671
05/20/2014  02:34:00      -77.987       61.132        6.415       53.605       71.517       37.932     2873.528     5114.689     1438.860        0.964        0.471       99.091       33.125        0.112      337.309        9.197      856.658
05/20/2014  02:35:00     -112.584      101.582      -14.415       71.278       68.408       45.705     5080.543     4679.636     2088.963        1.752        0.592      151.638       42.628        0.079      337.380        9.314      856.664
05/20/2014  02:36:00     -176.478      193.238      -46.108       79.485      114.814       51.700     6317.906    13182.368     2672.926        4.639        1.109      261.697       61.388        0.055      337.249        9.092      856.652
05/20/2014  02:37:00      -94.838      134.110      -15.418       70.592      101.831       45.885     4983.247    10369.572     2105.394        2.233        0.873      164.255       35.244        0.046      337.313        9.201      856.640
05/20/2014  02:38:00     -125.258      153.128      -20.341       58.011       71.329       52.775     3365.300     5087.804     2785.190        2.539        0.562      197.833       47.901        0.059      337.276        9.140      856.631
05/20/2014  02:39:00     -108.783      104.968      -14.034       57.736       66.573       32.759     3333.492     4431.920     1073.170        1.594        0.442      151.169       28.750        0.036      337.347        9.258      856.623
05/20/2014  02:40:00     -132.011      118.556      -23.059       70.641       69.388       36.821     4990.149     4814.726     1355.754        2.159        0.558      177.433       33.557        0.036      337.252        9.099      856.624
05/20/2014  02:41:00      -99.131      112.935      -22.887       50.982       62.548       38.679     2599.213     3912.263     1496.077        1.555        0.400      150.270       34.118        0.052      337.232        9.068      856.620
05/20/2014  02:42:00     -149.987      123.870      -30.125       65.316       73.200       44.904     4266.121     5358.199     2016.352        2.519        0.582      194.525       45.347        0.054      337.173        8.966      856.628
05/20/2014  02:43:00     -107.628      114.488      -18.962       66.772       65.802       39.340     4458.544     4329.845     1547.637        1.769        0.517      157.135       34.922        0.049      337.199        9.011      856.634
05/20/2014  02:44:00     -174.234       68.498       -7.139      101.459       63.425       47.324    10293.919     4022.779     2239.584        2.583        0.828      187.215       39.295        0.044      337.327        9.224      856.637
05/20/2014  02:45:00     -156.655      231.673      -32.334       80.308       71.348       49.595     6449.321     5090.575     2459.635        4.663        0.700      279.666       42.499        0.023      337.117        8.870      856.637
05/20/2014  02:46:00     -153.495      223.212      -31.532       68.333       78.002       48.579     4669.406     6084.280     2359.873        4.374        0.656      270.896       39.909        0.022      337.119        8.874      856.647
05/20/2014  02:47:00     -171.189      238.345      -31.493       61.965       99.154       53.219     3839.637     9831.419     2832.211        5.180        0.825      293.452       44.850        0.023      337.088        8.823      856.649
05/20/2014  02:48:00     -101.685      102.357      -18.127       65.174       76.858       38.533     4247.622     5907.158     1484.766        1.639        0.582      144.280       36.369        0.064      337.156        8.939      856.651
05/20/2014  02:49:00      -90.203      117.938       -9.578       46.517       75.511       36.297     2163.875     5701.868     1317.466        1.566        0.459      148.478       36.089        0.059      337.220        9.046      856.654
05/20/2014  02:50:00      -97.896       34.441      -13.700       53.127       64.745       31.501     2822.442     4191.857      992.321        0.948        0.400      103.777       26.738        0.066      337.242        9.084      856.664
05/20/2014  02:51:00      -91.275       18.628      -21.160       49.533       81.678       38.516     2453.496     6671.267     1483.484        0.986        0.530       93.156       31.914        0.117      337.251        9.100      856.656
05/20/2014  02:52:00     -103.818       61.739       -7.377       56.267       62.825       46.284     3165.972     3946.939     2142.180        1.195        0.463      120.789       32.315        0.072      337.258        9.109      856.674
05/20/2014  02:53:00     -141.738       48.634       -1.793      107.117       78.736       50.987    11474.086     6199.425     2599.646        2.136        1.014      149.850       57.478        0.147      337.203        9.016      856.677
05/20/2014  02:54:00     -137.046      -12.056       -7.087       78.533       91.013       48.881     6167.509     8283.331     2389.397        1.791        0.842      137.576       37.772        0.075      337.129        8.894      856.686
05/20/2014  02:55:00     -159.464       66.141      -18.692       66.172       90.957       51.177     4378.674     8273.212     2619.053        2.271        0.764      172.637       42.644        0.061      337.214        9.034      856.697
05/20/2014  02:56:00      -78.935       47.183       -4.502       50.608       88.785       47.835     2561.134     7882.698     2288.233        1.060        0.637       91.962       27.356        0.088      337.166        8.956      856.694
05/20/2014  02:57:00     -117.589       -5.389       -8.808       80.054       77.536       37.764     6408.602     6011.860     1426.084        1.389        0.692      117.712       37.597        0.102      337.219        9.045      856.701
05/20/2014  02:58:00     -133.687      -11.482      -18.551       64.018       55.893       45.063     4098.268     3124.054     2030.696        1.380        0.463      134.179       21.208        0.025      337.186        8.991      856.708
05/20/2014  02:59:00     -128.660      -25.081       -7.514       64.674       85.333       34.697     4182.700     7281.765     1203.868        1.495        0.633      131.082       22.727        0.030      337.124        8.884      856.714
05/20/2014  03:00:00     -170.376       66.320      -22.430       73.124       76.812       45.328     5347.177     5900.043     2054.602        2.361        0.665      182.828       38.852        0.045      337.185        8.986      856.721
05/20/2014  03:01:00      -83.001      -15.616       -8.611       63.476       57.304       33.303     4029.143     3283.725     1109.097        0.781        0.421       84.458       21.334        0.064      337.203        9.019      856.715
05/20/2014  03:02:00      -48.951      -13.912       -4.727       45.000       33.656       32.436     2024.985     1132.736     1052.074        0.341        0.210       50.890       25.798        0.257      337.173        8.969      856.709
05/20/2014  03:03:00     -141.447      -30.664      -18.404       57.916       37.353       26.684     3354.299     1395.272      712.056        1.337        0.273      144.733       24.206        0.028      337.190        8.996      856.702
05/20/2014  03:04:00     -157.849      -38.707      -19.675       47.146       46.931       30.903     2222.703     2202.534      954.978        1.609        0.269      162.525       17.710        0.012      337.139        8.911      856.687
05/20/2014  03:05:00     -172.196      -80.302      -10.842       44.516       37.384       28.693     1981.669     1397.549      823.310        2.021        0.210      190.000       17.053        0.008      337.088        8.825      856.662
05/20/2014  03:06:00     -141.192      -50.418       -1.030       61.285       55.252       29.469     3755.893     3052.830      868.403        1.508        0.384      149.923       28.811        0.037      337.099        8.843      856.648
05/20/2014  03:07:00     -112.882      -41.644       -9.753       56.631       47.542       31.791     3207.079     2260.258     1010.692        1.052        0.324      120.318       29.909        0.062      337.073        8.801      856.635
05/20/2014  03:08:00      -90.253      -39.410       -4.239       52.917       40.916       24.045     2800.196     1674.114      578.157        0.738        0.253       98.482       14.296        0.021      337.154        8.938      856.631
05/20/2014  03:09:00      -55.844      -10.928        3.384       50.827       72.166       36.517     2583.419     5207.939     1333.490        0.619        0.456       56.903       35.808        0.396      337.277        9.142      856.626
05/20/2014  03:10:00     -154.158       25.631      -25.558       59.896       41.102       32.638     3587.506     1689.399     1065.255        1.571        0.317      156.274       31.341        0.040      337.243        9.086      856.621
05/20/2014  03:11:00     -136.146      -20.262       -6.858       47.879       62.191       33.591     2292.375     3867.760     1128.384        1.314        0.364      137.646       26.011        0.036      337.352        9.267      856.617
05/20/2014  03:12:00     -177.723      -20.524      -18.077       56.731       65.731       35.035     3218.423     4320.581     1227.432        2.055        0.438      178.904       31.120        0.030      337.343        9.251      856.613
05/20/2014  03:13:00     -162.291      -21.180      -19.545       72.351       47.599       35.604     5234.618     2265.694     1267.635        1.797        0.438      163.668       31.824        0.038      337.216        9.041      856.614
05/20/2014  03:14:00     -192.849       50.235      -24.534      101.868       68.646       47.111    10377.173     4712.306     2219.445        2.881        0.865      199.284       56.548        0.081      337.256        9.106      856.608
05/20/2014  03:15:00     -149.756       68.319       -4.536       93.838       50.615       55.700     8805.522     2561.903     3102.488        2.079        0.723      164.604       48.293        0.086      337.308        9.193      856.601
05/20/2014  03:16:00      -89.855       13.431       -3.173       92.311       53.181       35.800     8521.373     2828.175     1281.666        1.045        0.632       90.854       43.189        0.226      337.274        9.138      856.585
05/20/2014  03:17:00      -80.476       67.001       -4.097       59.450       36.149       34.517     3534.266     1306.716     1191.397        0.851        0.302      104.716       32.815        0.098      337.392        9.336      856.567
05/20/2014  03:18:00      -35.338       -5.075       -2.651       34.242       39.843       28.314     1172.512     1587.472      801.682        0.242        0.178       35.700       18.960        0.282      337.325        9.225      856.562
05/20/2014  03:19:00      -81.436       46.586       -8.988       71.443       69.935       34.650     5104.086     4890.913     1200.636        1.004        0.560       93.820       42.649        0.207      337.472        9.467      856.548
05/20/2014  03:20:00     -113.925       64.825      -14.584       42.351       63.404       33.487     1793.589     4020.120     1121.358        1.216        0.347      131.077       25.325        0.037      337.364        9.288      856.545
05/20/2014  03:21:00      -95.828       74.929      -11.085       42.423       70.600       33.386     1799.693     4984.388     1114.607        1.141        0.395      121.644       27.300        0.050      337.323        9.219      856.528
05/20/2014  03:22:00     -119.520      175.764      -30.464       51.828       92.509       37.131     2686.113     8557.946     1378.710        2.936        0.631      212.551       36.582        0.030      337.186        8.990      856.523
05/20/2014  03:23:00     -123.712      129.908      -25.191       56.110       55.471       41.902     3148.310     3077.018     1755.770        2.040        0.399      179.390       28.428        0.025      337.292        9.164      856.515
05/20/2014  03:24:00     -128.180      137.409      -27.001       77.109       65.415       39.052     5945.870     4279.187     1525.074        2.389        0.588      187.913       29.019        0.024      337.214        9.035      856.500
05/20/2014  03:25:00      -85.218      110.075      -10.404       57.663       89.735       38.064     3325.034     8052.420     1448.884        1.615        0.641      139.207       37.477        0.072      337.218        9.042      856.483
05/20/2014  03:26:00     -196.528      182.178      -51.232       66.103       77.044       48.904     4369.578     5935.810     2391.573        4.356        0.635      267.978       43.496        0.026      337.166        8.953      856.478
05/20/2014  03:27:00     -127.604      125.846      -26.695       73.806       75.268       47.075     5447.358     5665.197     2216.035        2.308        0.666      179.221       39.236        0.048      337.183        8.984      856.454
05/20/2014  03:28:00     -120.843      165.424      -25.981       71.356      115.528       50.277     5091.660    13346.795     2527.770        3.180        1.048      204.861       43.216        0.045      337.194        9.001      856.437
05/20/2014  03:29:00      -95.072       64.804      -20.463       30.838       58.850       29.032      950.958     3463.301      842.840        0.946        0.263      115.058       14.448        0.016      337.234        9.072      856.421
05/20/2014  03:30:00      -99.215      107.571      -16.734       42.493       70.297       34.652     1805.650     4941.631     1200.763        1.482        0.397      146.339       29.776        0.041      337.266        9.124      856.417
05/20/2014  03:31:00      -74.669       41.866       -8.212       37.111       54.427       22.475     1377.251     2962.327      505.109        0.612        0.242       85.605       12.743        0.022      337.311        9.198      856.431
05/20/2014  03:32:00      -54.913       14.064      -13.177       33.688       23.850       19.542     1134.880      568.820      381.876        0.274        0.104       56.685       11.121        0.038      337.420        9.380      856.439
05/20/2014  03:33:00      -70.456       50.728      -13.276       68.526      100.374       48.466     4695.807    10074.913     2348.936        1.241        0.856       86.818       42.323        0.238      337.385        9.322      856.447
05/20/2014  03:34:00      -10.693       36.403       14.829       34.634       39.491       29.305     1199.518     1559.508      858.780        0.264        0.181       37.941       25.563        0.454      337.475        9.472      856.440
05/20/2014  03:35:00      -69.004       89.564       -8.070       34.566       35.421       34.364     1194.785     1254.671     1180.856        0.824        0.182      113.064       17.503        0.024      337.448        9.427      856.446
05/20/2014  03:36:00      -40.360       43.468       -5.266       36.366       39.952       26.585     1322.452     1596.145      706.770        0.359        0.181       59.316       24.438        0.170      337.414        9.372      856.449
05/20/2014  03:37:00      -30.891       10.968      -10.911       37.479       52.635       29.101     1404.684     2770.414      846.841        0.311        0.251       32.780       22.977        0.491      337.451        9.434      856.453
05/20/2014  03:38:00      -50.894       87.169       -1.213       39.028       54.839       26.415     1523.168     3007.288      697.759        0.771        0.261      100.939       25.126        0.062      337.450        9.430      856.466
05/20/2014  03:39:00      -89.143       61.093      -12.348       60.352       66.837       37.165     3642.363     4467.152     1381.239        1.066        0.475      108.069       38.318        0.126      337.432        9.402      856.480
05/20/2014  03:40:00     -141.158      179.581      -35.068       67.818       61.085       42.050     4599.336     3731.371     1768.218        3.175        0.505      228.418       42.673        0.035      337.299        9.176      856.484
05/20/2014  03:41:00     -131.060      148.949      -37.508       53.710       94.664       42.403     2884.729     8961.254     1798.054        2.720        0.682      198.400       37.018        0.035      337.310        9.195      856.483
05/20/2014  03:42:00     -148.670      142.340      -35.859       57.736       61.676       35.785     3333.484     3803.971     1280.593        2.603        0.421      205.824       37.573        0.033      337.308        9.192      856.491
05/20/2014  03:43:00     -107.037       63.320      -17.402       58.357       54.062       27.303     3405.553     2922.704      745.473        1.142        0.354      124.364       33.486        0.072      337.309        9.195      856.486
05/20/2014  03:44:00     -113.605      135.032      -29.100       37.760       40.686       28.293     1425.839     1655.349      800.499        1.793        0.194      176.465       22.895        0.017      337.305        9.189      856.484
05/20/2014  03:45:00     -107.539       93.912      -13.538       59.181       62.969       29.066     3502.371     3965.074      844.857        1.444        0.416      142.773       21.593        0.023      337.337        9.242      856.482
05/20/2014  03:46:00     -139.917       57.877      -25.318       43.593       36.831       25.802     1900.320     1356.505      665.766        1.374        0.196      151.415       15.505        0.010      337.368        9.294      856.477
05/20/2014  03:47:00      -62.528       79.737       -6.222       37.067       48.981       27.113     1373.996     2399.175      735.134        0.741        0.225      101.330       27.746        0.075      337.331        9.233      856.475
05/20/2014  03:48:00      -62.345        8.497      -11.084       38.937       37.727       24.845     1516.099     1423.341      617.294        0.382        0.178       62.921       19.706        0.098      337.404        9.354      856.477
05/20/2014  03:49:00      -90.800       99.443      -15.468       48.531       59.235       32.711     2355.230     3508.826     1070.015        1.265        0.347      134.661       28.235        0.044      337.345        9.255      856.485
05/20/2014  03:50:00      -84.104       93.433      -21.172       44.337       57.945       35.092     1965.786     3357.644     1231.474        1.140        0.328      125.711       25.019        0.040      337.363        9.286      856.487
05/20/2014  03:51:00      -68.734        0.834       -3.661       30.986       42.044       20.408      960.117     1767.725      416.491        0.394        0.157       68.739       20.780        0.091      337.409        9.362      856.487
05/20/2014  03:52:00      -37.661       29.267        2.748       24.162       46.916       23.173      583.790     2201.120      536.970        0.280        0.166       47.696       14.573        0.093      337.394        9.336      856.494
05/20/2014  03:53:00      -86.503       -7.929      -10.066       56.032       52.655       18.589     3139.538     2772.580      345.569        0.695        0.313       86.865       14.580        0.028      337.465        9.457      856.508
05/20/2014  03:54:00     -134.379      -14.347        2.469       47.311       37.145       28.526     2238.332     1379.743      813.724        1.135        0.222      135.143       25.846        0.037      337.371        9.300      856.520
05/20/2014  03:55:00     -141.551      -35.581      -11.213       28.874       36.278       23.090      833.715     1316.097      533.153        1.206        0.134      145.954       19.283        0.017      337.367        9.294      856.527
05/20/2014  03:56:00      -99.370      -54.073       -6.791       37.083       24.981       16.225     1375.122      624.066      263.244        0.755        0.113      113.130       14.049        0.015      337.322        9.218      856.541
05/20/2014  03:57:00     -101.552       10.011       -5.252       20.078       26.044       12.472      403.126      678.299      155.548        0.584        0.062      102.044        9.775        0.009      337.353        9.268      856.556
05/20/2014  03:58:00      -81.782        6.589        4.866       24.151       29.727       18.962      583.279      883.669      359.568        0.429        0.091       82.047       16.291        0.039      337.408        9.360      856.583
05/20/2014  03:59:00      -29.422       48.752       -1.257       53.244       30.372       21.909     2834.878      922.487      480.009        0.374        0.212       56.942       21.579        0.144      337.401        9.350      856.604
05/20/2014  04:00:00      -85.342       66.082      -11.360       65.940       56.753       37.547     4348.050     3220.950     1409.784        1.038        0.449      107.935       31.017        0.083      337.326        9.224      856.605
05/20/2014  04:01:00     -120.598      152.824      -23.039       55.061       62.178       31.742     3031.739     3866.159     1007.544        2.317        0.395      194.677       27.749        0.020      337.290        9.163      856.618
05/20/2014  04:02:00      -84.624       48.588       -2.109       47.169       85.836       30.646     2224.940     7367.875      939.196        1.003        0.527       97.581       24.563        0.063      337.381        9.317      856.621
05/20/2014  04:03:00     -129.456      -36.585      -17.887       42.157       49.557       28.594     1777.189     2455.875      817.600        1.173        0.253      134.526       22.767        0.029      337.393        9.336      856.629
05/20/2014  04:04:00     -119.936      -64.323       -2.017       69.638       47.610       36.356     4849.487     2266.719     1321.748        1.348        0.422      136.096       42.207        0.096      337.331        9.232      856.646
05/20/2014  04:05:00       -7.162       -3.829       14.419       25.864       27.638       21.208      668.965      763.848      449.794        0.108        0.094        8.121       16.410        4.083      337.404        9.354      856.661
05/20/2014  04:06:00     -162.901      -27.966      -13.656       49.217       44.994       24.278     2422.337     2024.424      589.406        1.627        0.252      165.284       19.673        0.014      337.268        9.127      856.682
05/20/2014  04:07:00      -91.535      -28.789       -7.133       60.525       62.956       19.453     3663.300     3963.432      378.417        0.863        0.400       95.956       29.013        0.091      337.271        9.132      856.686
05/20/2014  04:08:00      -46.037      -35.933        1.895       44.184       35.459       18.779     1952.206     1257.345      352.662        0.349        0.178       58.400       20.619        0.125      337.329        9.229      856.684
05/20/2014  04:09:00      -97.177       58.900       -2.181       64.148       85.381       41.212     4114.944     7289.969     1698.429        1.301        0.655      113.634       30.788        0.073      337.313        9.203      856.705
05/20/2014  04:10:00      -83.062      106.783      -24.885       57.914       78.692       33.926     3354.068     6192.487     1150.982        1.481        0.535      135.284       27.493        0.041      337.238        9.078      856.694
05/20/2014  04:11:00     -131.434      204.423      -33.056       90.753      128.293       52.399     8236.143    16459.141     2745.688        4.379        1.372      243.030       53.555        0.049      337.214        9.036      856.676
05/20/2014  04:12:00     -144.756       80.755      -16.391       80.946       45.391       38.664     6552.199     2060.356     1494.929        1.892        0.505      165.758       35.397        0.046      337.143        8.917      856.657
05/20/2014  04:13:00     -126.781      140.134      -30.742       73.041       61.095       42.366     5334.940     3732.617     1794.853        2.376        0.543      188.974       39.237        0.043      337.167        8.955      856.632
05/20/2014  04:14:00      -98.466      107.551      -13.931       64.507       69.021       40.318     4161.201     4763.929     1625.529        1.600        0.528      145.818       42.800        0.086      337.234        9.070      856.611
05/20/2014  04:15:00     -138.883      132.691      -34.815       59.523       88.615       40.603     3543.012     7852.548     1648.584        2.557        0.652      192.082       40.835        0.045      337.173        8.968      856.593
05/20/2014  04:16:00     -107.342      115.621      -20.528       57.376       84.355       38.494     3292.019     7115.845     1481.818        1.860        0.594      157.767       35.614        0.051      337.169        8.960      856.574
05/20/2014  04:17:00     -131.379      138.068      -31.221       58.894       79.589       40.424     3468.470     6334.471     1634.095        2.437        0.572      190.587       32.517        0.029      337.186        8.987      856.574
05/20/2014  04:18:00     -183.201      207.618      -40.468       78.045       98.813       47.080     6091.096     9764.070     2216.545        4.818        0.904      276.889       52.203        0.036      337.140        8.910      856.564
05/20/2014  04:19:00     -182.304      266.311      -39.720      111.192      109.372       70.186    12363.715    11962.294     4926.117        6.749        1.463      322.733       72.383        0.050      337.138        8.908      856.554
05/20/2014  04:20:00     -177.492      206.979      -45.959       68.940       99.768       47.066     4752.745     9953.728     2215.246        4.669        0.846      272.661       44.686        0.027      337.139        8.907      856.555
05/20/2014  04:21:00     -106.617      138.253      -31.642       64.535       50.861       32.427     4164.728     2586.829     1051.503        1.964        0.390      174.589       24.582        0.020      337.161        8.947      856.568
05/20/2014  04:22:00     -172.985      230.959      -54.980       91.233      118.573       54.941     8323.376    14059.440     3018.564        5.584        1.270      288.558       63.673        0.049      337.094        8.832      856.581
05/20/2014  04:23:00     -152.058      207.493      -35.248       76.655       79.266       43.807     5876.007     6283.077     1919.031        4.074        0.704      257.245       34.467        0.018      337.107        8.854      856.579
05/20/2014  04:24:00     -161.594      241.257      -40.492      102.607       82.545       57.654    10528.280     6813.671     3323.989        5.331        1.033      290.375       56.073        0.037      337.081        8.812      856.569
05/20/2014  04:25:00     -157.339      220.993      -31.189      118.020       97.134       57.633    13928.782     9435.089     3321.540        5.062        1.334      271.281       49.452        0.033      337.072        8.796      856.554
05/20/2014  04:26:00     -216.208      290.206      -57.096      107.573      113.559       68.933    11571.968    12895.751     4751.715        8.172        1.461      361.892       67.417        0.035      337.026        8.718      856.548
05/20/2014  04:27:00     -126.470      245.351      -28.371       98.502      116.440       55.606     9702.650    13558.238     3092.041        5.167        1.318      276.029       44.816        0.026      337.061        8.776      856.537
05/20/2014  04:28:00     -147.677      244.852      -32.135       95.486       92.180       48.611     9117.563     8497.113     2363.030        5.138        0.999      285.939       46.255        0.026      337.064        8.782      856.520
05/20/2014  04:29:00     -145.907      214.265      -24.567       93.969       89.368       58.755     8830.145     7986.707     3452.098        4.403        1.013      259.226       57.706        0.050      337.053        8.763      856.499
05/20/2014  04:30:00     -149.417      213.670      -31.962      107.511      114.346       63.543    11558.617    13075.053     4037.699        4.883        1.434      260.730       69.065        0.070      337.045        8.751      856.500
05/20/2014  04:31:00     -117.368      293.977      -33.383      103.354      169.238       57.549    10681.997    28641.394     3311.912        7.197        2.132      316.540       71.793        0.051      337.053        8.764      856.480
05/20/2014  04:32:00     -160.650      371.512      -44.082      114.351      125.738       66.283    13076.203    15809.923     4393.404        9.952        1.664      404.758       69.223        0.029      337.027        8.719      856.460
05/20/2014  04:33:00     -112.709      322.435      -32.615       83.103      140.100       58.233     6906.114    19628.100     3391.056        7.382        1.496      341.566       63.642        0.035      337.054        8.765      856.459
05/20/2014  04:34:00     -108.625      301.405      -31.336       89.204       89.704       60.375     7957.309     8046.727     3645.196        6.163        0.982      320.381       51.179        0.026      337.051        8.759      856.462
05/20/2014  04:35:00     -120.332      371.432      -35.061       87.131      116.907       63.760     7591.874    13667.238     4065.394        8.949        1.266      390.438       55.428        0.020      337.033        8.729      856.443
05/20/2014  04:36:00      -91.364      314.231      -26.152       78.462      147.817       59.578     6156.269    21849.786     3549.577        6.966        1.578      327.244       62.630        0.037      337.051        8.761      856.437
05/20/2014  04:37:00     -107.642      298.169      -28.861       85.336      101.608       53.796     7282.317    10324.195     2893.999        6.091        1.025      317.004       53.525        0.029      337.026        8.717      856.428
05/20/2014  04:38:00     -183.319      372.505      -49.311      103.338      127.031       61.251    10678.718    16136.985     3751.710       10.268        1.528      415.169       66.590        0.026      337.003        8.679      856.412
05/20/2014  04:39:00     -178.270      280.193      -46.164      108.101      128.184       65.565    11685.743    16431.166     4298.783        7.241        1.621      332.097       64.971        0.038      337.018        8.705      856.420
05/20/2014  04:40:00     -158.461      281.215      -31.921       77.620      102.357       56.979     6024.910    10476.999     3246.660        6.248        0.987      322.787       49.340        0.023      337.027        8.720      856.404
05/20/2014  04:41:00     -129.318      176.282      -26.776       65.845       97.353       47.264     4335.581     9477.537     2233.845        3.228        0.802      218.629       42.218        0.037      337.037        8.737      856.388
05/20/2014  04:42:00      -62.803      213.908      -27.967       84.629      101.087       49.768     7162.088    10218.546     2476.822        3.517        0.993      222.937       39.515        0.031      337.026        8.718      856.395
05/20/2014  04:43:00      -90.134      266.605      -34.025       62.681       75.086       38.745     3928.877     5637.969     1501.181        4.571        0.553      281.429       34.753        0.015      337.038        8.737      856.389
05/20/2014  04:44:00      -72.575      303.436      -34.787       67.439      111.791       37.905     4547.955    12497.127     1436.775        5.851        0.924      311.994       40.971        0.017      337.012        8.695      856.396
05/20/2014  04:45:00     -152.033      298.205      -43.757       73.191       97.779       52.793     5356.976     9560.775     2787.056        6.583        0.885      334.725       32.426        0.009      337.001        8.677      856.394
05/20/2014  04:46:00      -89.907      286.938      -28.214       60.673      107.306       47.200     3681.176    11514.662     2227.850        5.431        0.871      300.694       49.601        0.027      336.966        8.617      856.379
05/20/2014  04:47:00     -177.372      149.085      -43.137       81.443       85.060       47.707     6632.934     7235.228     2275.955        3.584        0.807      231.705       55.649        0.058      336.983        8.646      856.393
05/20/2014  04:48:00      -73.887      190.343      -27.596       61.068       91.659       35.831     3729.345     8401.412     1283.855        2.793        0.671      204.181       28.605        0.020      336.992        8.662      856.390
05/20/2014  04:49:00      -51.503      202.351      -31.006       38.761       66.765       26.922     1502.412     4457.584      724.820        2.562        0.334      208.803       19.025        0.008      337.029        8.725      856.397
05/20/2014  04:50:00      -98.339      163.469      -28.185       85.977       76.054       43.979     7391.964     5784.215     1934.185        2.615        0.756      190.768       49.484        0.067      337.034        8.732      856.394
05/20/2014  04:51:00     -137.544      156.797      -31.907       82.826       73.770       46.454     6860.148     5442.052     2157.995        2.949        0.723      208.575       40.635        0.038      336.989        8.659      856.389
05/20/2014  04:52:00      -84.745      186.723      -16.512       49.839       64.757       38.267     2483.967     4193.446     1464.377        2.523        0.407      205.054       35.543        0.030      337.009        8.691      856.399
05/20/2014  04:53:00      -44.639      136.567       -2.039       50.338       93.315       46.485     2533.947     8707.692     2160.857        1.702        0.670      143.677       56.652        0.155      337.056        8.770      856.394
05/20/2014  04:54:00      -30.207      131.647       -4.313       35.752       81.866       40.148     1278.218     6702.119     1611.824        1.393        0.480      135.068       44.469        0.108      337.069        8.793      856.389
05/20/2014  04:55:00      -42.141      282.843      -40.696       53.955       80.316       37.915     2911.193     6450.666     1437.576        4.711        0.540      285.965       39.518        0.019      336.964        8.615      856.384
05/20/2014  04:56:00      -47.075      176.394       -8.627       66.507       69.742       52.001     4423.189     4863.919     2704.085        2.270        0.600      182.567       44.966        0.061      336.980        8.643      856.388
05/20/2014  04:57:00      -32.976      248.856      -26.224       48.668       67.249       43.096     2368.575     4522.450     1857.287        3.622        0.437      251.032       33.448        0.018      336.956        8.602      856.376
05/20/2014  04:58:00      -39.922      294.190      -33.612       65.717      122.926       34.632     4318.713    15110.735     1199.388        5.495        1.031      296.886       35.004        0.014      336.960        8.610      856.389
05/20/2014  04:59:00      -75.029      229.179      -18.289       55.594       72.736       45.650     3090.724     5290.521     2083.894        3.447        0.523      241.148       35.460        0.022      336.984        8.648      856.391
05/20/2014  05:00:00      -56.045      170.757      -18.425       64.672       85.190       40.128     4182.439     7257.304     1610.261        2.284        0.653      179.719       41.296        0.053      337.017        8.705      856.386
05/20/2014  05:01:00      -51.835      181.573       -8.193       48.904       92.827       43.522     2391.639     8616.767     1894.151        2.431        0.645      188.827       50.011        0.070      337.019        8.708      856.384
05/20/2014  05:02:00     -133.594      157.748      -27.627       82.485       74.036       44.969     6803.854     5481.391     2022.187        2.890        0.715      206.717       50.386        0.059      336.968        8.622      856.378
05/20/2014  05:03:00      -86.566      273.242      -22.851       61.377      104.959       42.334     3767.095    11016.342     1792.178        4.962        0.829      286.627       41.648        0.021      336.927        8.553      856.370
05/20/2014  05:04:00     -102.631      128.121      -11.345       65.586       63.958       46.750     4301.515     4090.686     2185.587        1.883        0.529      164.159       26.328        0.026      336.952        8.597      856.371
05/20/2014  05:05:00      -53.720      163.708      -15.179       45.681       95.250       40.748     2086.760     9072.558     1660.429        2.137        0.641      172.297       37.474        0.047      336.965        8.619      856.377
05/20/2014  05:06:00      -81.555      104.127       -4.090       90.186       87.951       35.259     8133.575     7735.380     1243.208        1.731        0.856      132.264       34.502        0.068      337.015        8.702      856.381
05/20/2014  05:07:00      -55.348      164.826      -13.878       52.000       73.259       41.012     2704.008     5366.881     1681.964        2.009        0.488      173.871       30.544        0.031      336.959        8.608      856.386
05/20/2014  05:08:00      -52.786      145.342       -7.501       63.659       68.383       50.271     4052.489     4676.192     2527.217        1.761        0.563      154.630       34.035        0.048      337.026        8.720      856.396
05/20/2014  05:09:00      -65.241      221.282      -21.790       54.960       81.958       41.643     3020.547     6717.174     1734.171        3.258        0.574      230.699       37.707        0.027      337.005        8.683      856.419
05/20/2014  05:10:00      -53.635      215.440      -21.125       50.619       72.360       35.203     2562.259     5235.973     1239.265        2.939        0.452      222.016       33.831        0.023      336.935        8.566      856.430
05/20/2014  05:11:00     -113.048      189.006      -29.661       80.545      103.104       46.916     6487.435    10630.426     2201.102        3.435        0.966      220.235       50.728        0.053      336.898        8.506      856.443
05/20/2014  05:12:00      -54.809      105.099       -0.001       52.875       56.262       32.344     2795.767     3165.393     1046.123        1.053        0.350      118.532       26.824        0.051      336.999        8.677      856.474
05/20/2014  05:13:00      -59.992      247.489      -24.060       80.211       87.466       47.386     6433.884     7650.228     2245.404        4.088        0.816      254.657       43.612        0.029      336.976        8.636      856.491
05/20/2014  05:14:00      -46.566      253.543      -16.980       59.952       77.006       39.793     3594.302     5929.923     1583.473        3.892        0.555      257.783       28.786        0.012      336.960        8.608      856.509
05/20/2014  05:15:00       20.004      174.433      -17.343       62.296       87.841       42.982     3880.770     7716.124     1847.458        2.228        0.672      175.577       41.147        0.055      336.974        8.631      856.520
05/20/2014  05:16:00      -35.922       28.371       -0.776       29.407       30.556       27.888      864.783      933.694      777.742        0.234        0.129       45.774       23.554        0.265      337.031        8.729      856.539
05/20/2014  05:17:00      -15.032       67.729       -2.592       46.121       36.717       29.284     2127.173     1348.142      857.539        0.458        0.217       69.377       20.285        0.085      337.033        8.733      856.566
05/20/2014  05:18:00      -65.525      191.857      -20.116       52.797       76.596       37.088     2787.478     5866.921     1375.532        2.577        0.501      202.737       36.664        0.033      337.021        8.711      856.574
05/20/2014  05:19:00      -80.551      231.903      -28.485       89.438       95.539       46.701     7999.087     9127.709     2181.018        4.019        0.965      245.494       52.143        0.045      336.975        8.633      856.583
05/20/2014  05:20:00      -78.529      127.882      -19.286       54.037       87.196       31.049     2920.038     7603.197      964.030        1.719        0.574      150.069       36.510        0.059      337.051        8.764      856.590
05/20/2014  05:21:00      -52.165      124.064       -7.681       57.694       86.531       33.160     3328.608     7487.697     1099.594        1.504        0.596      134.585       34.185        0.065      337.039        8.742      856.610
05/20/2014  05:22:00      -43.029      122.112      -16.241       59.943      137.347       45.151     3593.159    18864.230     2038.570        2.076        1.225      129.471       68.117        0.277      337.051        8.762      856.619
05/20/2014  05:23:00      -32.556       45.456        5.520       60.308       58.355       38.820     3637.001     3405.296     1506.965        0.585        0.427       55.912       31.614        0.320      337.136        8.907      856.619
05/20/2014  05:24:00      -23.601       97.368       -8.975       65.424       88.354       35.882     4280.279     7806.410     1287.515        1.174        0.669      100.188       29.346        0.086      337.039        8.741      856.626
05/20/2014  05:25:00      -63.169       98.801       -3.122       34.358       63.034       33.441     1180.485     3973.231     1118.272        1.002        0.314      117.269       34.065        0.084      337.100        8.847      856.626
05/20/2014  05:26:00      -97.841      113.678      -12.067       53.111       46.666       34.919     2820.761     2177.758     1219.315        1.443        0.311      149.985       36.109        0.058      337.059        8.775      856.639
05/20/2014  05:27:00      -63.226       85.010       -8.797       56.122       40.039       30.212     3149.681     1603.152      912.738        0.848        0.283      105.945       34.112        0.104      337.043        8.748      856.651
05/20/2014  05:28:00      -56.091      122.078      -13.731       38.374       73.838       29.695     1472.555     5452.030      881.806        1.302        0.390      134.347       26.761        0.040      337.095        8.837      856.662
05/20/2014  05:29:00      -52.142      100.849      -14.170       33.504       51.520       22.504     1122.536     2654.299      506.429        0.869        0.214      113.531       20.940        0.034      337.059        8.779      856.678
05/20/2014  05:30:00      -47.963       78.088       -0.820       67.345       49.567       40.386     4535.368     2456.908     1631.019        0.851        0.431       91.641       48.811        0.284      337.135        8.904      856.692
05/20/2014  05:31:00     -109.574       61.070       -7.268       47.667       34.489       36.900     2272.186     1189.504     1361.632        1.031        0.241      125.443       25.806        0.042      337.004        8.684      856.717
05/20/2014  05:32:00     -167.364      170.199      -49.080       46.142       62.047       32.321     2129.110     3849.810     1044.646        3.320        0.351      238.702       25.330        0.011      337.002        8.677      856.734
05/20/2014  05:33:00     -103.138       63.976      -16.268       73.657       41.993       35.085     5425.344     1763.439     1230.947        1.171        0.421      121.369       39.773        0.107      337.058        8.774      856.745
05/20/2014  05:34:00     -144.621       20.896       -8.140       53.936       50.454       33.141     2909.145     2545.623     1098.351        1.398        0.328      146.122       25.248        0.030      337.066        8.788      856.761
05/20/2014  05:35:00      -83.223       40.737       -5.476       60.906       29.393       29.438     3709.488      863.952      866.624        0.703        0.272       92.659       30.063        0.105      337.065        8.787      856.775
05/20/2014  05:36:00     -119.211       36.304      -16.966       47.749       45.478       31.629     2279.984     2068.273     1000.406        1.058        0.267      124.617       28.168        0.051      337.101        8.845      856.791
05/20/2014  05:37:00      -99.360       41.421       -4.805       64.108       93.715       40.724     4109.788     8782.557     1658.485        1.308        0.728      107.648       37.905        0.124      337.100        8.846      856.798
05/20/2014  05:38:00     -105.366      129.066      -26.452       42.066       57.798       34.436     1769.528     3340.566     1185.850        1.738        0.315      166.614       27.917        0.028      337.098        8.842      856.820
05/20/2014  05:39:00      -76.371       18.952       -6.726       34.101       47.482       22.314     1162.879     2254.528      497.921        0.508        0.196       78.688       18.833        0.057      337.268        9.128      856.832
05/20/2014  05:40:00      -54.708       14.018      -19.402       31.137       42.576       31.495      969.484     1812.674      991.946        0.367        0.189       56.476       20.316        0.129      337.265        9.124      856.850
05/20/2014  05:41:00      -75.004        9.077       -8.486       29.862       41.557       19.116      891.714     1726.989      365.408        0.438        0.149       75.552       11.147        0.022      337.309        9.196      856.867
05/20/2014  05:42:00      -67.644      -17.594        0.397       60.052       41.259       35.052     3606.264     1702.314     1228.628        0.571        0.327       69.894       29.779        0.182      337.196        9.007      856.878
05/20/2014  05:43:00      -62.235       47.551       -5.183       38.276       54.451       25.488     1465.029     2964.919      649.641        0.562        0.254       78.321       30.217        0.149      337.248        9.096      856.887
05/20/2014  05:44:00      -85.138      141.792      -19.885       43.336       66.319       29.963     1877.968     4398.212      897.800        1.746        0.359      165.389       26.798        0.026      337.166        8.957      856.893
05/20/2014  05:45:00     -101.738      134.926      -22.812       36.373       49.309       24.234     1323.029     2431.380      587.307        1.671        0.217      168.985       18.966        0.013      337.146        8.922      856.900
05/20/2014  05:46:00      -58.004       96.610       -7.753       35.479       38.650       30.923     1258.761     1493.798      956.206        0.823        0.185      112.686       23.283        0.043      337.189        8.994      856.899
05/20/2014  05:47:00      -49.949       48.525       -1.962       34.562       33.065       20.491     1194.540     1093.288      419.870        0.378        0.135       69.639       17.558        0.064      337.172        8.967      856.895
05/20/2014  05:48:00      -92.079       28.372       -7.794       40.185       34.355       25.320     1614.813     1180.289      641.080        0.639        0.172       96.351       20.419        0.045      337.173        8.969      856.886
05/20/2014  05:49:00      -89.616       30.033       -5.486       60.262       78.413       32.843     3631.511     6148.632     1078.680        0.991        0.543       94.515       32.529        0.118      337.229        9.063      856.875
05/20/2014  05:50:00      -34.980       68.247       20.400       48.844       46.600       36.825     2385.688     2171.555     1356.111        0.610        0.296       76.690       41.152        0.288      337.272        9.135      856.881
05/20/2014  05:51:00     -105.634      145.068      -17.847       44.133       96.706       35.978     1947.740     9351.973     1294.386        2.256        0.630      179.452       26.468        0.022      337.174        8.969      856.907
05/20/2014  05:52:00     -128.271      125.034      -29.024       71.232       43.424       34.567     5073.956     1885.643     1194.896        2.054        0.408      179.128       28.811        0.026      337.115        8.868      856.920
05/20/2014  05:53:00      -57.021      134.077       -7.772       39.009       54.592       34.717     1521.722     2980.331     1205.282        1.350        0.285      145.698       22.955        0.025      337.192        9.000      856.928
05/20/2014  05:54:00      -73.778      140.423      -18.073       38.996       59.047       30.566     1520.724     3486.563      934.301        1.571        0.297      158.625       25.458        0.026      337.161        8.946      856.926
05/20/2014  05:55:00      -71.501      110.217       -6.603       59.129      115.345       38.634     3496.246    13304.488     1492.590        1.779        0.915      131.377       21.290        0.026      337.213        9.034      856.918
05/20/2014  05:56:00      -97.373       90.800      -16.498       57.722       89.647       29.746     3331.807     8036.668      884.851        1.512        0.613      133.140       28.528        0.046      337.172        8.967      856.915
05/20/2014  05:57:00     -135.624      103.922      -24.286       61.962       47.485       34.972     3839.263     2254.788     1223.073        1.855        0.366      170.862       31.273        0.033      337.138        8.908      856.908
05/20/2014  05:58:00     -109.159      133.708      -19.816       46.214       61.246       29.612     2135.707     3751.090      876.858        1.847        0.338      172.608       23.130        0.018      337.126        8.888      856.905
05/20/2014  05:59:00      -57.719       88.141       -7.293       24.128       30.864       22.982      582.144      952.596      528.166        0.661        0.103      105.359       16.812        0.025      337.186        8.991      856.895
05/20/2014  06:00:00      -55.963       34.724       -7.802       37.048       48.219       24.433     1372.561     2325.103      596.983        0.435        0.215       65.860       16.441        0.062      337.184        8.987      856.896
05/20/2014  06:01:00      -75.432      -11.521      -14.157       42.638       26.388       19.513     1818.004      696.318      380.747        0.446        0.145       76.307       16.035        0.044      337.311        9.200      856.881
05/20/2014  06:02:00     -116.425       14.691       -8.831       50.207       71.435       39.263     2520.730     5102.963     1541.611        1.151        0.458      117.348       34.531        0.087      337.190        8.997      856.883
05/20/2014  06:03:00      -99.964      153.953      -22.505       49.243       52.987       36.940     2424.898     2807.573     1364.559        2.040        0.330      183.560       32.078        0.031      337.144        8.918      856.869
05/20/2014  06:04:00      -48.307       85.563       -3.958       30.548       41.591       24.325      933.195     1729.825      591.690        0.646        0.163       98.258       14.201        0.021      337.188        8.994      856.867
05/20/2014  06:05:00      -69.269       34.645      -16.269       34.994       29.813       25.898     1224.612      888.838      670.687        0.452        0.139       77.450       25.724        0.110      337.178        8.977      856.869
05/20/2014  06:06:00      -29.690       46.001       -0.099       61.848       39.649       33.008     3825.122     1572.033     1089.498        0.474        0.324       54.750       34.956        0.408      337.206        9.025      856.877
05/20/2014  06:07:00      -97.328      -22.845       -6.229       41.546       43.659       25.694     1726.053     1906.126      660.174        0.716        0.215       99.973       17.250        0.030      337.320        9.213      856.882
05/20/2014  06:08:00     -112.046      152.924      -32.698       46.388       57.660       37.109     2151.842     3324.705     1377.106        2.193        0.343      189.579       36.934        0.038      337.082        8.814      856.893
05/20/2014  06:09:00      -67.514      115.803      -13.232       32.105       47.570       24.783     1030.752     2262.929      614.221        1.102        0.195      134.047       23.898        0.032      337.131        8.897      856.892
05/20/2014  06:10:00      -85.340       19.259      -22.080       37.051       36.961       23.550     1372.777     1366.101      554.580        0.572        0.165       87.486       23.438        0.072      337.158        8.942      856.891
05/20/2014  06:11:00      -22.224       44.707        7.059       24.711       34.296       20.256      610.629     1176.224      410.318        0.237        0.110       49.926       17.605        0.124      337.213        9.036      856.894
05/20/2014  06:12:00      -81.309       68.297       -1.886       49.576       80.187       31.905     2457.751     6430.027     1017.946        1.059        0.495      106.187       22.512        0.045      337.257        9.107      856.891
05/20/2014  06:13:00      -42.160       56.865        1.255       77.640       71.537       41.078     6027.927     5117.503     1687.426        0.892        0.642       70.789       56.735        0.642      337.234        9.070      856.898
05/20/2014  06:14:00     -117.950      126.987      -20.818       56.901       55.080       37.786     3237.751     3033.807     1427.761        1.908        0.385      173.314       33.997        0.038      337.151        8.929      856.911
05/20/2014  06:15:00     -119.853      129.386      -28.235       50.515       50.604       29.226     2551.751     2560.726      854.131        1.893        0.298      176.368       23.612        0.018      337.075        8.801      856.908
05/20/2014  06:16:00      -57.114      126.313      -13.421       24.248       35.923       25.227      587.947     1290.480      636.411        1.096        0.126      138.626       19.195        0.019      337.182        8.982      856.898
05/20/2014  06:17:00      -82.028       75.275      -13.772       37.294       47.676       28.250     1390.822     2273.032      798.052        0.852        0.223      111.333       19.005        0.029      337.202        9.017      856.890
05/20/2014  06:18:00     -136.369      156.398      -46.808       38.449       61.613       32.527     1478.360     3796.172     1057.998        2.579        0.317      207.502       24.705        0.014      337.052        8.764      856.888
05/20/2014  06:19:00     -102.242      143.332      -25.037       53.876       62.573       40.134     2902.600     3915.321     1610.729        2.002        0.421      176.061       38.725        0.048      337.034        8.734      856.888
05/20/2014  06:20:00     -161.925       94.334      -15.718       55.816       66.846       41.299     3115.447     4468.428     1705.580        2.233        0.464      187.400       31.309        0.028      337.048        8.756      856.890
05/20/2014  06:21:00     -147.941       78.948      -30.377       65.161       55.263       28.898     4245.919     3053.963      835.073        1.859        0.407      167.688       36.620        0.048      337.016        8.701      856.890
05/20/2014  06:22:00     -129.036       70.446      -21.771       48.658       54.822       30.381     2367.630     3005.461      923.004        1.419        0.315      147.013       33.027        0.050      337.039        8.742      856.891
05/20/2014  06:23:00     -131.016      177.991      -39.350       53.774       60.309       36.498     2891.633     3637.181     1332.098        2.913        0.393      221.011       21.566        0.010      337.021        8.712      856.891
05/20/2014  06:24:00      -68.014       69.312      -10.313       32.972       44.003       26.495     1087.154     1936.244      701.985        0.663        0.186       97.109       13.824        0.020      337.081        8.814      856.896
05/20/2014  06:25:00      -87.180      119.087      -19.575       50.646       84.262       38.728     2565.053     7100.072     1499.827        1.666        0.558      147.587       30.348        0.042      337.057        8.773      856.910
05/20/2014  06:26:00     -106.640      146.825      -17.039       47.713       62.600       30.388     2276.575     3918.793      923.431        2.017        0.356      181.465       25.681        0.020      337.074        8.801      856.919
05/20/2014  06:27:00     -118.792      115.159      -18.827       58.483       76.190       42.408     3420.285     5804.971     1798.415        1.937        0.551      165.448       36.924        0.050      337.037        8.739      856.935
05/20/2014  06:28:00     -136.366      138.696      -38.045       73.289       72.884       34.093     5371.266     5312.064     1162.302        2.556        0.592      194.505       44.831        0.053      337.011        8.694      856.940
05/20/2014  06:29:00      -83.523       79.845      -10.423       51.982       36.751       30.901     2702.163     1350.626      954.887        0.923        0.250      115.548       22.997        0.040      337.078        8.808      856.946
05/20/2014  06:30:00      -65.719       51.290       -9.907       28.953       35.298       22.605      838.283     1245.971      510.995        0.482        0.130       83.364       15.038        0.033      337.078        8.808      856.953
05/20/2014  06:31:00      -49.075       96.262      -15.128       32.901       34.120       22.939     1082.499     1164.170      526.202        0.734        0.139      108.049       15.003        0.019      337.105        8.852      856.962
05/20/2014  06:32:00      -79.145      118.068      -16.633       37.681       56.245       26.280     1419.822     3163.458      690.630        1.288        0.264      142.141       25.859        0.033      337.110        8.862      856.967
05/20/2014  06:33:00      -37.287      110.165      -10.026       32.459       64.155       25.508     1053.577     4115.856      650.654        0.972        0.291      116.304       31.509        0.073      337.147        8.925      856.969
05/20/2014  06:34:00      -42.510      109.786      -11.727       29.713       60.291       25.059      882.873     3634.976      627.967        0.957        0.257      117.729       27.711        0.055      337.231        9.065      856.967
05/20/2014  06:35:00      -63.653       83.748       -2.734       37.143       42.811       30.352     1379.566     1832.743      921.252        0.760        0.207      105.193       20.899        0.039      337.185        8.988      856.966
05/20/2014  06:36:00      -13.168       98.901       -7.925       34.447       61.563       30.710     1186.602     3790.058      943.116        0.797        0.296       99.773       27.766        0.077      337.213        9.035      856.965
05/20/2014  06:37:00      -70.969       93.956      -13.092       51.306       70.715       29.626     2632.305     5000.569      877.727        1.127        0.426      117.746       22.836        0.038      337.183        8.984      856.961
05/20/2014  06:38:00      -32.494       93.003       -1.369       46.539       52.602       33.153     2165.900     2766.918     1099.150        0.787        0.302       98.516       30.283        0.094      337.210        9.031      856.966
05/20/2014  06:39:00     -105.068      174.363      -35.811       66.246       84.552       37.892     4388.562     7149.019     1435.798        2.785        0.649      203.573       38.977        0.037      337.157        8.939      856.971
05/20/2014  06:40:00      -86.280      183.349      -16.887       65.190       69.154       48.172     4249.722     4782.231     2320.531        2.635        0.568      202.636       45.986        0.052      337.199        9.008      856.974
05/20/2014  06:41:00      -68.911      123.919      -23.188       58.847       51.567       39.159     3463.021     2659.192     1533.432        1.415        0.383      141.791       31.939        0.051      337.223        9.052      856.977
05/20/2014  06:42:00      -73.493      141.582      -15.525       59.159       59.662       39.755     3499.766     3559.604     1580.440        1.716        0.432      159.520       38.138        0.057      337.233        9.068      856.968
05/20/2014  06:43:00      -71.122      112.050      -17.146       52.464       80.919       35.130     2752.504     6547.945     1234.129        1.422        0.527      132.716       42.657        0.103      337.239        9.078      856.968
05/20/2014  06:44:00      -60.574      133.486      -15.713       51.092       64.721       29.935     2610.417     4188.779      896.108        1.471        0.385      146.587       28.908        0.039      337.284        9.154      856.962
05/20/2014  06:45:00      -70.333      146.475      -22.567       30.983       58.593       29.206      959.942     3433.132      853.010        1.608        0.262      162.486       16.342        0.010      337.268        9.127      856.960
05/20/2014  06:46:00      -63.699      127.794      -11.909       32.441       40.884       25.055     1052.401     1671.512      627.778        1.194        0.168      142.789       11.968        0.007      337.306        9.192      856.962
05/20/2014  06:47:00      -73.330      102.476      -15.210       34.751       30.399       25.649     1207.662      924.072      657.868        0.945        0.139      126.010       17.064        0.018      337.301        9.183      856.968
05/20/2014  06:48:00     -109.125      136.134      -27.802       61.542       46.201       33.802     3787.422     2134.553     1142.544        1.914        0.353      174.473       29.073        0.028      337.243        9.083      856.968
05/20/2014  06:49:00     -104.912      100.800      -17.647       71.653       59.634       28.189     5134.167     3556.188      794.641        1.548        0.474      145.490       29.447        0.041      337.206        9.024      856.963
05/20/2014  06:50:00     -108.332      110.564      -24.713       57.684       45.910       31.459     3327.459     2107.736      989.650        1.550        0.321      154.791       27.288        0.031      337.194        9.002      856.961
05/20/2014  06:51:00      -80.384       99.568      -20.325       33.746       59.941       24.247     1138.780     3592.932      587.927        1.105        0.266      127.966       26.540        0.043      337.224        9.054      856.953
05/20/2014  06:52:00      -96.158      207.041      -30.398       67.105       68.591       37.748     4503.068     4704.675     1424.915        3.183        0.532      228.282       30.532        0.018      337.183        8.982      856.948
05/20/2014  06:53:00      -89.361      142.999      -17.693       64.270       62.097       33.233     4130.676     3855.975     1104.445        1.892        0.455      168.624       35.362        0.044      337.315        9.205      856.935
05/20/2014  06:54:00      -87.060      119.520       -7.598       74.621       60.450       50.108     5568.272     3654.242     2510.763        1.683        0.587      147.867       42.120        0.081      337.253        9.101      856.930
05/20/2014  06:55:00      -66.281      127.903       -4.729       60.199       60.539       44.338     3623.940     3664.968     1965.847        1.501        0.463      144.057       38.285        0.071      337.255        9.106      856.922
05/20/2014  06:56:00      -89.682       91.580      -11.313       39.383       50.496       30.372     1551.058     2549.846      922.443        1.079        0.251      128.179       26.261        0.042      337.302        9.183      856.917
05/20/2014  06:57:00     -102.136       87.658       -9.413       61.067       61.360       39.107     3729.212     3765.076     1529.325        1.361        0.451      134.595       26.110        0.038      337.331        9.234      856.913
05/20/2014  06:58:00     -161.966      204.886      -38.589       46.777       82.426       35.271     2188.050     6793.974     1244.023        3.996        0.511      261.173       29.640        0.013      337.194        9.002      856.901
05/20/2014  06:59:00      -73.252      121.397      -18.944       59.908       65.321       33.242     3588.998     4266.831     1105.028        1.471        0.448      141.786       31.625        0.050      337.254        9.105      856.889
05/20/2014  07:00:00      -57.152       99.949        9.727       47.518       56.284       36.138     2257.932     3167.905     1305.972        1.004        0.337      115.135       28.511        0.061      337.350        9.265      856.870
05/20/2014  07:01:00      -84.871       66.631      -15.709       40.142       64.636       25.385     1611.364     4177.839      644.404        0.916        0.322      107.902       17.022        0.025      337.434        9.406      856.867
05/20/2014  07:02:00      -49.085       41.352        4.055       69.858       68.400       38.669     4880.187     4678.565     1495.302        0.759        0.553       64.182       34.903        0.296      337.343        9.253      856.862
05/20/2014  07:03:00     -129.938      170.154      -26.644       47.972       92.838       27.362     2301.337     8618.879      748.667        2.911        0.583      214.094       25.185        0.014      337.240        9.079      856.859
05/20/2014  07:04:00     -113.320      143.145      -23.940       40.225       69.138       36.600     1618.061     4780.092     1339.591        2.082        0.387      182.570       25.905        0.020      337.296        9.175      856.856
05/20/2014  07:05:00      -87.308       68.547      -17.537       49.885       71.196       30.211     2488.546     5068.884      912.727        1.055        0.424      111.001       28.632        0.067      337.285        9.156      856.841
05/20/2014  07:06:00      -63.490      140.965        0.303       35.715       52.072       32.525     1275.536     2711.473     1057.867        1.447        0.252      154.603       31.685        0.042      337.328        9.228      856.823
05/20/2014  07:07:00      -89.526       48.251      -14.373       49.352       32.722       23.276     2435.649     1070.717      541.766        0.730        0.202      101.701       15.762        0.024      337.317        9.210      856.818
05/20/2014  07:08:00      -54.577       27.866       -8.306       35.019       60.066       28.484     1226.362     3607.931      811.364        0.473        0.282       61.279       22.781        0.138      337.392        9.333      856.814
05/20/2014  07:09:00     -174.484      -74.854       -5.651       75.017       61.067       29.587     5627.511     3729.173      875.409        2.315        0.512      189.862       14.902        0.006      337.415        9.371      856.807
05/20/2014  07:10:00     -139.238      -37.882       -6.936       61.873       51.662       33.023     3828.300     2669.008     1090.489        1.423        0.379      144.299       35.692        0.061      337.359        9.279      856.816
05/20/2014  07:11:00     -167.005       43.201      -22.733       49.499       46.189       29.710     2450.137     2133.468      882.658        1.787        0.273      172.502       25.675        0.022      337.314        9.204      856.840
05/20/2014  07:12:00      -95.173       12.105      -19.130       53.892       66.441       29.518     2904.379     4414.361      871.291        0.888        0.410       95.940       24.299        0.064      337.351        9.267      856.855
05/20/2014  07:13:00      -62.281      -20.336        8.235       50.247       49.250       25.523     2524.764     2425.576      651.412        0.498        0.280       65.517       25.089        0.147      337.510        9.532      856.880
05/20/2014  07:14:00      -43.255        0.413        5.557       40.642       24.495       18.837     1651.762      600.024      354.815        0.225        0.130       43.257       18.741        0.188      337.504        9.522      856.904
05/20/2014  07:15:00      -49.591       21.401       -1.884       30.785       20.843       18.293      947.712      434.438      334.650        0.232        0.086       54.012       12.803        0.056      337.415        9.372      856.917
05/20/2014  07:16:00      -49.640       32.697       -7.460       19.224       45.069       23.142      369.553     2031.244      535.556        0.326        0.147       59.441       27.741        0.218      337.452        9.435      856.930
05/20/2014  07:17:00      -37.292       39.300      -16.428       19.564       24.891       17.137      382.753      619.555      293.665        0.225        0.065       54.177       15.515        0.082      337.428        9.396      856.947
05/20/2014  07:18:00      -77.592       71.902      -15.806       30.185       47.333       22.880      911.160     2240.379      523.487        0.756        0.184      105.784       25.785        0.059      337.503        9.520      856.962
05/20/2014  07:19:00      -59.325       86.361      -21.025       30.239       41.163       18.845      914.421     1694.359      355.147        0.719        0.148      104.774       19.081        0.033      337.468        9.462      856.959
05/20/2014  07:20:00      -14.567       26.104       10.650       19.465       24.709       15.408      378.879      610.548      237.415        0.112        0.061       29.894       15.168        0.257      337.680        9.819      856.963
05/20/2014  07:21:00      -29.913       -8.457        2.075       32.274       32.792       17.838     1041.600     1075.288      318.205        0.170        0.122       31.085       13.641        0.193      337.719        9.883      856.966
05/20/2014  07:22:00      -36.979       44.895       -3.713       33.619       31.631       21.718     1130.231     1000.492      471.690        0.300        0.130       58.163       19.016        0.107      337.633        9.739      856.967
05/20/2014  07:23:00      -38.679       16.281       13.362       33.573       56.066       33.917     1127.146     3143.426     1150.376        0.368        0.271       41.966       34.048        0.658      337.653        9.773      856.951
05/20/2014  07:24:00      -53.090       52.834      -11.146       24.234       71.486       22.527      587.290     5110.203      507.451        0.597        0.310       74.899       15.401        0.042      337.532        9.569      856.959
05/20/2014  07:25:00        1.357      142.357      -15.592       52.450       58.383       32.975     2750.971     3408.535     1087.370        1.388        0.362      142.363       26.896        0.036      337.469        9.464      856.961
05/20/2014  07:26:00      -13.389      219.105      -25.160       27.242       49.355       17.585      742.137     2435.869      309.238        2.615        0.174      219.514       19.615        0.008      337.305        9.187      856.956
05/20/2014  07:27:00        9.387      222.070      -25.453       26.963       48.778       24.960      727.009     2379.283      623.017        2.689        0.186      222.268       22.128        0.010      337.259        9.110      856.959
05/20/2014  07:28:00       -0.776      164.889      -25.123       21.527       33.241       15.390      463.406     1104.935      236.859        1.481        0.090      164.891       11.952        0.005      337.236        9.075      856.970
05/20/2014  07:29:00       13.944       26.642        6.054       31.885       25.520       19.411     1016.678      651.273      376.806        0.149        0.102       30.070       13.744        0.209      337.355        9.273      856.962
05/20/2014  07:30:00       59.067       33.204        8.862       35.032       26.766       24.325     1227.210      716.411      591.702        0.360        0.127       67.760       15.535        0.053      337.394        9.338      856.971
05/20/2014  07:31:00       44.129       96.659       -0.340       39.899       61.615       38.610     1591.905     3796.377     1490.730        0.908        0.344      106.256       38.374        0.130      337.338        9.245      856.987
05/20/2014  07:32:00       72.663       74.700        5.946       40.780       48.355       36.098     1662.977     2338.202     1303.048        0.810        0.265      104.211       25.879        0.062      337.388        9.327      856.985
05/20/2014  07:33:00       21.663       69.912       -2.670       34.626       75.775       30.676     1198.931     5741.888      941.009        0.662        0.394       73.191       43.748        0.357      337.451        9.435      856.998
05/20/2014  07:34:00       23.654      120.279      -11.748       28.362       43.926       26.481      804.428     1929.521      701.222        0.930        0.172      122.583       25.007        0.042      337.394        9.339      857.002
05/20/2014  07:35:00       -3.191      110.385       -8.510       31.230       57.652       28.065      975.297     3323.780      787.648        0.868        0.254      110.431       35.777        0.105      337.435        9.407      856.997
05/20/2014  07:36:00        8.003       77.433      -13.173       24.776       23.210       17.947      613.859      538.691      322.102        0.385        0.074       77.846       12.790        0.027      337.457        9.443      856.992
05/20/2014  07:37:00       17.254      111.139      -13.366       27.563       42.391       23.140      759.738     1797.028      535.472        0.796        0.155      112.470       19.640        0.030      337.480        9.482      856.991
05/20/2014  07:38:00       22.217      117.281      -11.551       26.731       43.165       22.723      714.549     1863.230      516.350        0.874        0.155      119.366       19.832        0.028      337.452        9.436      856.979
05/20/2014  07:39:00       14.318      135.396      -18.716       36.614       55.535       28.852     1340.603     3084.108      832.444        1.207        0.263      136.151       30.794        0.051      337.497        9.510      856.979
05/20/2014  07:40:00      -16.613      159.452      -19.340       43.502       47.752       31.387     1892.420     2280.240      985.129        1.562        0.258      160.316       26.518        0.027      337.535        9.576      856.987
05/20/2014  07:41:00      -65.910      132.013      -14.856       37.726       44.177       25.542     1423.278     1951.612      652.393        1.301        0.201      147.552       16.764        0.013      337.595        9.674      856.992
05/20/2014  07:42:00      -53.981       86.327       -7.100       47.453       41.811       21.972     2251.747     1748.169      482.769        0.745        0.224      101.815       23.931        0.055      337.587        9.663      856.982
05/20/2014  07:43:00      -14.242      128.089      -13.113       21.903       52.364       21.472      479.755     2741.958      461.065        1.023        0.184      128.879       28.211        0.048      337.548        9.597      856.988
05/20/2014  07:44:00      -32.675      169.942       -3.788       32.529       67.294       31.082     1058.115     4528.451      966.069        1.826        0.328      173.055       35.120        0.041      337.472        9.468      856.998
05/20/2014  07:45:00      -38.278       66.148        0.881       43.124       37.972       27.447     1859.681     1441.857      753.337        0.495        0.203       76.425       29.610        0.150      337.583        9.655      857.004
05/20/2014  07:46:00        9.037      156.040      -15.506       37.801       49.233       29.433     1428.889     2423.906      866.285        1.469        0.236      156.301       27.013        0.030      337.415        9.372      857.010
05/20/2014  07:47:00       -6.459      124.022      -10.377       39.573       48.107       28.687     1565.986     2314.312      822.916        1.012        0.235      124.190       26.237        0.045      337.509        9.530      857.012
05/20/2014  07:48:00      -30.352      124.322        0.121       58.036       78.166       45.975     3368.147     6109.986     2113.684        1.398        0.580      127.974       47.290        0.137      337.557        9.610      857.020
05/20/2014  07:49:00       15.231      224.632      -26.924       46.044       64.916       34.703     2120.035     4214.121     1204.325        2.948        0.377      225.148       34.006        0.023      337.402        9.350      857.019
05/20/2014  07:50:00       -6.116      194.523      -34.084       23.700       49.188       21.862      561.669     2419.472      477.964        2.125        0.173      194.619       19.308        0.010      337.471        9.466      857.019
05/20/2014  07:51:00      -64.590      239.101      -31.031       74.890       51.031       31.151     5608.471     2604.200      970.390        3.574        0.459      247.671       21.823        0.008      337.413        9.365      857.020
05/20/2014  07:52:00      -49.488      143.125      -15.357       45.156       68.914       29.152     2039.057     4749.141      849.853        1.540        0.382      151.439       21.990        0.021      337.542        9.585      857.016
05/20/2014  07:53:00      -68.509      198.199      -21.877       47.328       47.083       32.612     2239.908     2216.785     1063.520        2.499        0.276      209.706       28.922        0.019      337.497        9.508      857.008
05/20/2014  07:54:00     -101.078      177.288      -17.748       71.440       82.563       40.475     5103.690     6816.656     1638.212        2.776        0.678      204.078       25.324        0.015      337.531        9.566      857.000
05/20/2014  07:55:00      -58.985      149.112      -13.488       62.280       77.811       39.083     3878.794     6054.494     1527.461        1.868        0.573      160.355       42.082        0.069      337.529        9.562      857.025
05/20/2014  07:56:00     -129.410      139.455      -27.293       67.889       97.498       48.304     4608.916     9505.779     2333.256        2.669        0.822      190.249       43.083        0.051      337.525        9.556      857.029
05/20/2014  07:57:00     -129.421      100.862      -11.009       79.763       57.897       43.518     6362.080     3352.113     1893.853        1.932        0.580      164.082       43.009        0.069      337.480        9.480      857.037
05/20/2014  07:58:00      -39.206      144.852       -8.256       32.512       82.581       28.585     1057.007     6819.554      817.128        1.564        0.435      150.064       29.429        0.038      337.617        9.710      857.040
05/20/2014  07:59:00      -75.817      139.515      -15.313       77.244      105.861       40.068     5966.592    11206.568     1605.449        2.211        0.939      158.785       51.205        0.104      337.656        9.776      857.042
05/20/2014  08:00:00      -89.349      151.995      -15.943       51.445       82.307       34.003     2646.553     6774.484     1156.195        2.096        0.529      176.311       28.308        0.026      337.607        9.693      857.045
05/20/2014  08:01:00       -4.316      200.420      -23.545       46.934       56.498       35.739     2202.790     3192.009     1277.283        2.371        0.334      200.467       27.934        0.019      337.568        9.627      857.045
05/20/2014  08:02:00      -73.578      217.470      -30.931       41.544       60.955       27.986     1725.944     3715.498      783.199        2.994        0.311      229.580       20.858        0.008      337.562        9.615      857.041
05/20/2014  08:03:00      -56.855      119.314      -13.304       36.830       50.225       27.638     1356.466     2522.595      763.883        1.114        0.232      132.168       15.153        0.013      337.663        9.788      857.051
05/20/2014  08:04:00      -73.326       53.629      -17.472       46.079       50.904       29.567     2123.311     2591.198      874.185        0.707        0.279       90.845       16.710        0.034      337.655        9.775      857.055
05/20/2014  08:05:00      -55.718      117.016      -15.201       35.095       51.812       27.659     1231.643     2684.440      765.001        1.085        0.234      129.604       20.967        0.026      337.660        9.784      857.058
05/20/2014  08:06:00      -91.157      139.966      -19.178       71.353       42.462       33.952     5091.233     1803.008     1152.735        1.816        0.402      167.034       39.700        0.056      337.559        9.613      857.058
05/20/2014  08:07:00      -92.840       65.594       -7.233       35.326       45.578       28.786     1247.903     2077.313      828.619        0.856        0.208      113.675       21.007        0.034      337.543        9.586      857.073
05/20/2014  08:08:00      -65.566      100.475      -15.930       41.565       49.287       27.350     1727.665     2429.250      748.015        0.978        0.245      119.975       29.016        0.058      337.622        9.720      857.095
05/20/2014  08:09:00     -122.890      106.473      -23.807       70.640       81.161       45.073     4990.003     6587.041     2031.619        2.030        0.680      162.599       51.113        0.099      337.568        9.628      857.116
05/20/2014  08:10:00      -50.748       99.022      -11.925       52.807       67.963       36.979     2788.543     4619.009     1367.418        1.065        0.439      111.269       37.043        0.111      337.566        9.625      857.129
05/20/2014  08:11:00      -59.965      135.246       -1.100       58.446       87.115       38.003     3415.917     7589.036     1444.204        1.717        0.622      147.943       36.769        0.062      337.560        9.614      857.144
05/20/2014  08:12:00      -94.924      191.800      -23.714       58.064       95.717       41.154     3371.406     9161.683     1693.665        3.029        0.711      214.004       47.547        0.049      337.527        9.558      857.150
05/20/2014  08:13:00      -60.050      218.921      -23.259       43.957       75.019       30.582     1932.260     5627.795      935.288        3.028        0.425      227.008       28.951        0.016      337.533        9.568      857.152
05/20/2014  08:14:00      -47.982      174.090      -18.141       51.484       58.623       34.003     2650.614     3436.689     1156.222        2.009        0.362      180.582       25.752        0.020      337.652        9.769      857.159
05/20/2014  08:15:00      -38.821      202.581      -17.562       48.940       66.234       44.224     2395.125     4386.992     1955.721        2.579        0.437      206.267       39.365        0.036      337.600        9.683      857.158
05/20/2014  08:16:00      -22.636      171.949      -10.833       48.818       57.112       42.078     2383.236     3261.806     1770.585        1.880        0.371      173.433       38.097        0.048      337.629        9.731      857.155
05/20/2014  08:17:00      -57.407      133.907       -8.380       55.071       84.211       43.744     3032.792     7091.541     1913.506        1.667        0.602      145.694       40.123        0.076      337.664        9.789      857.153
05/20/2014  08:18:00      -97.834      128.362       -5.317       71.279       76.853       51.511     5080.767     5906.318     2653.361        1.986        0.682      161.395       42.642        0.070      337.666        9.793      857.146
05/20/2014  08:19:00      -98.437      120.767       -8.848       63.106       76.584       53.307     3982.337     5865.122     2841.636        1.852        0.634      155.803       50.520        0.105      337.654        9.771      857.137
05/20/2014  08:20:00     -136.487      204.070      -37.718       47.867       63.607       36.271     2291.225     4045.799     1315.593        3.467        0.383      245.506       27.320        0.012      337.531        9.564      857.136
05/20/2014  08:21:00      -71.979      188.154      -23.416       38.751       49.306       30.191     1501.669     2431.084      911.496        2.299        0.242      201.452       21.831        0.012      337.599        9.680      857.146
05/20/2014  08:22:00      -50.880      183.946      -27.422       48.664       97.086       29.367     2368.195     9425.776      862.422        2.491        0.633      190.853       34.180        0.032      337.652        9.770      857.144
05/20/2014  08:23:00      -99.838      192.704      -27.099       57.152       93.169       41.616     3266.364     8680.517     1731.896        3.076        0.684      217.031       47.230        0.047      337.634        9.737      857.166
05/20/2014  08:24:00     -139.577      226.143      -30.757       75.764      102.534       44.586     5740.210    10513.232     1987.917        4.490        0.912      265.749       50.597        0.036      337.608        9.695      857.174
05/20/2014  08:25:00     -171.549      142.020      -29.505       93.613       59.540       42.699     8763.335     3544.981     1823.234        3.230        0.707      222.708       51.673        0.054      337.581        9.648      857.175
05/20/2014  08:26:00     -147.466      114.981       -9.478       82.116       96.156       58.378     6743.090     9245.916     3408.028        2.722        0.970      186.995       44.914        0.058      337.554        9.604      857.177
05/20/2014  08:27:00     -180.472      109.596      -31.796       70.778       53.036       39.697     5009.580     2812.821     1575.890        2.749        0.470      211.143       30.062        0.020      337.576        9.639      857.182
05/20/2014  08:28:00      -49.545      164.745      -13.885       82.779      110.920       48.853     6852.443    12303.265     2386.636        2.566        1.077      172.034       58.836        0.117      337.674        9.805      857.185
05/20/2014  08:29:00      -63.006      252.719      -35.587       72.992       98.497       41.463     5327.810     9701.590     1719.174        4.292        0.837      260.454       33.890        0.017      337.636        9.740      857.190
05/20/2014  08:30:00     -199.201      207.729      -38.643      101.382      123.226       46.786    10278.387    15184.769     2188.949        5.598        1.383      287.806       39.524        0.019      337.594        9.670      857.207
05/20/2014  08:31:00      -76.792      110.756      -18.980       50.343       61.343       36.471     2534.455     3762.971     1330.108        1.307        0.381      134.773       23.845        0.031      337.644        9.756      857.219
05/20/2014  08:32:00      -87.142      136.706      -15.504       95.176       58.449       45.007     9058.439     3416.323     2025.634        2.051        0.725      162.118       50.766        0.098      337.653        9.772      857.231
05/20/2014  08:33:00     -132.306      278.942      -27.939      108.177      106.287       64.536    11702.318    11296.946     4164.955        6.162        1.358      308.729       65.536        0.045      337.502        9.516      857.248
05/20/2014  08:34:00     -114.835      165.750      -18.566       91.212       91.065       50.944     8319.609     8292.919     2595.304        3.010        0.960      201.643       46.728        0.054      337.549        9.596      857.255
05/20/2014  08:35:00     -137.313      186.102      -14.350       99.348      100.442       52.155     9870.079    10088.522     2720.164        3.818        1.134      231.276       38.312        0.027      337.525        9.554      857.277
05/20/2014  08:36:00      -94.153      187.686      -20.517      126.581      104.536       51.021    16022.823    10927.729     2603.096        3.703        1.478      209.979       33.024        0.025      337.481        9.481      857.289
05/20/2014  08:37:00      -69.115      343.392      -45.039       57.605      164.412       41.658     3318.307    27031.319     1735.378        7.840        1.604      350.278       51.912        0.022      337.455        9.438      857.295
05/20/2014  08:38:00     -113.788      438.975      -51.446       96.048      149.252       61.399     9225.288    22276.184     3769.779       12.178        1.764      453.483       51.510        0.013      337.302        9.182      857.309
05/20/2014  08:39:00     -128.166      335.603      -46.032      150.433      152.589       89.084    22630.155    23283.251     7935.972        9.250        2.692      359.243       57.274        0.025      337.257        9.106      857.320
05/20/2014  08:40:00     -183.317      322.973      -52.663      132.293      182.508       66.933    17501.521    33309.316     4479.982        9.798        2.765      371.371       74.467        0.040      337.192        8.999      857.309
05/20/2014  08:41:00     -154.428      419.100      -45.291      129.618      163.119       77.361    16800.944    26607.739     5984.660       12.546        2.470      446.646       73.201        0.027      337.069        8.791      857.321
05/20/2014  08:42:00     -241.815      453.654      -72.037      142.428      156.772       91.544    20285.669    24577.385     8380.273       16.134        2.662      514.078       92.086        0.032      336.931        8.562      857.333
05/20/2014  08:43:00     -209.276      444.505      -53.920      145.640      201.233       89.783    21210.868    40494.640     8060.932       15.701        3.488      491.305      109.127        0.049      336.843        8.415      857.354
05/20/2014  08:44:00     -155.754      477.112      -61.702      112.322      169.659       75.439    12616.192    28784.326     5691.010       15.139        2.355      501.891       80.283        0.026      336.795        8.334      857.366
05/20/2014  08:45:00     -219.805      438.830      -69.550      142.614      127.991       76.734    20338.664    16381.575     5888.040       14.416        2.130      490.801       75.631        0.024      336.771        8.293      857.387
05/20/2014  08:46:00     -201.491      512.039      -64.986      132.711      182.042       75.940    17612.251    33139.171     5766.902       18.175        2.826      550.257       89.483        0.026      336.717        8.203      857.407
05/20/2014  08:47:00     -106.270      350.883      -33.635       95.498      155.358       67.813     9119.946    24136.190     4598.660        8.669        1.893      366.623       72.956        0.040      336.720        8.209      857.409
05/20/2014  08:48:00     -180.488      360.211      -52.759      144.216      160.285       79.125    20798.151    25691.369     6260.811       10.892        2.638      402.900       90.923        0.051      336.648        8.087      857.431
05/20/2014  08:49:00     -187.101      550.139      -58.520      103.475      151.312       77.140    10707.094    22895.228     5950.580       19.031        1.978      581.084       69.733        0.014      336.536        7.901      857.412
05/20/2014  08:50:00     -183.449      422.433      -48.731      115.313      164.414       81.022    13297.156    27031.988     6564.554       13.068        2.345      460.547       84.168        0.033      336.551        7.926      857.424
05/20/2014  08:51:00     -187.062      479.853      -40.304      115.653      160.534       79.855    13375.515    25771.177     6376.765       15.619        2.276      515.025       85.880        0.028      336.531        7.891      857.421
05/20/2014  08:52:00     -140.385      472.320      -44.503      139.786      190.860       87.639    19540.065    36427.489     7680.541       15.420        3.182      492.742      101.652        0.043      336.518        7.870      857.425
05/20/2014  08:53:00     -159.921      386.335      -38.693      139.596      155.279       98.449    19486.972    24111.648     9692.125       11.480        2.665      418.126      101.293        0.059      336.512        7.859      857.445
05/20/2014  08:54:00     -225.020      334.344      -52.824       96.190      132.810       67.368     9252.545    17638.553     4538.473        9.831        1.571      403.014       68.932        0.029      336.485        7.815      857.447
05/20/2014  08:55:00     -126.880      315.923      -35.195      117.474      119.002       72.632    13800.257    14161.553     5275.422        7.518        1.662      340.450       56.361        0.027      336.515        7.864      857.451
05/20/2014  08:56:00     -158.013      308.555      -38.702      102.786      148.872       62.435    10564.882    22162.871     3898.190        7.914        1.831      346.662       72.084        0.043      336.491        7.827      857.454
05/20/2014  08:57:00     -137.325      298.548      -33.331       86.668      101.272       60.755     7511.343    10255.991     3691.182        6.527        1.073      328.617       57.161        0.030      336.510        7.856      857.446
05/20/2014  08:58:00     -201.785      350.471      -42.037      139.674      174.618       73.683    19508.842    30491.331     5429.126       11.036        2.771      404.410       79.062        0.038      336.463        7.778      857.443
05/20/2014  08:59:00     -175.520      416.861      -48.350      117.465      170.267       71.565    13798.095    28990.683     5121.524       12.740        2.396      452.305       72.941        0.026      336.410        7.688      857.449
05/20/2014  09:00:00     -178.661      429.628      -55.039       95.645      147.592       65.800     9147.946    21783.288     4329.613       12.739        1.763      465.295       63.726        0.019      336.407        7.684      857.465
05/20/2014  09:01:00     -117.284      408.155      -40.984      109.319      142.911       72.024    11950.579    20423.664     5187.439       10.979        1.878      424.672       69.132        0.027      336.420        7.705      857.470
05/20/2014  09:02:00     -161.369      365.239      -43.508       95.445      114.040       65.550     9109.800    13005.189     4296.769        9.387        1.321      399.299       67.118        0.028      336.427        7.719      857.493
05/20/2014  09:03:00     -142.922      338.193      -42.833       96.150      131.308       63.690     9244.917    17241.671     4056.368        8.358        1.527      367.153       61.422        0.028      336.467        7.785      857.499
05/20/2014  09:04:00     -163.669      342.322      -42.031      134.948      127.830       70.112    18211.027    16340.554     4915.679        9.259        1.973      379.436       74.966        0.039      336.439        7.737      857.515
05/20/2014  09:05:00     -124.710      280.655      -26.366       97.765      146.537       66.649     9557.974    21473.186     4442.115        6.524        1.774      307.115       67.635        0.049      336.466        7.784      857.525
05/20/2014  09:06:00     -108.807      155.995      -24.665       76.420      105.704       49.448     5839.945    11173.407     2445.092        2.812        0.973      190.193       48.838        0.066      336.520        7.876      857.542
05/20/2014  09:07:00     -106.333      321.622      -38.301       89.575      109.451       62.651     8023.769    11979.509     3925.159        7.007        1.196      338.744       57.796        0.029      336.476        7.797      857.544
05/20/2014  09:08:00     -124.684      149.201      -18.642       75.125       71.824       43.264     5643.740     5158.624     1871.805        2.541        0.634      194.440       28.962        0.022      336.545        7.918      857.570
05/20/2014  09:09:00     -263.163      282.624      -72.848      117.082      144.179       66.587    13708.185    20787.552     4433.871        9.668        1.946      386.175       74.683        0.037      336.399        7.671      857.586
05/20/2014  09:10:00     -219.433      288.613      -57.350      155.363      160.524       81.382    24137.716    25767.853     6623.075        9.562        2.826      362.558       88.816        0.060      336.394        7.662      857.596
05/20/2014  09:11:00     -259.556      368.696      -71.025      121.940      144.157       88.099    14869.423    20781.377     7761.468       12.587        2.171      450.894       88.460        0.038      336.292        7.492      857.617
05/20/2014  09:12:00     -216.323      258.476      -51.941      157.857      153.866       72.268    24918.861    23674.747     5222.622        8.505        2.691      337.054       94.225        0.078      336.319        7.538      857.619
05/20/2014  09:13:00     -107.800      232.265      -31.507       86.217       92.986       48.226     7433.338     8646.478     2325.766        4.248        0.920      256.062       49.059        0.037      336.336        7.565      857.630
05/20/2014  09:14:00     -109.141      243.334      -19.070       94.062      132.214       66.092     8847.586    17480.437     4368.110        5.109        1.535      266.689       60.060        0.051      336.361        7.607      857.644
05/20/2014  09:15:00     -102.287      200.783      -31.829       76.026       80.339       40.690     5779.907     6454.354     1655.652        3.284        0.694      225.336       36.009        0.026      336.351        7.591      857.649
05/20/2014  09:16:00     -210.179      311.742      -53.463      116.028      125.211       68.470    13462.458    15677.819     4688.195        8.902        1.691      375.977       77.559        0.043      336.259        7.437      857.663
05/20/2014  09:17:00     -151.655      169.198      -27.628       78.284       79.901       49.431     6128.422     6384.189     2443.392        3.367        0.748      227.216       43.353        0.036      336.303        7.511      857.670
05/20/2014  09:18:00     -111.427      236.423      -27.582       88.912      125.733       57.663     7905.387    15808.857     3325.017        4.805        1.352      261.365       65.220        0.062      336.310        7.523      857.667
05/20/2014  09:19:00     -152.710      194.935      -25.958      107.584       84.698       51.999    11574.249     7173.692     2703.923        4.172        1.073      247.629       62.543        0.064      336.337        7.568      857.669
05/20/2014  09:20:00     -138.798      148.446      -22.428      102.633      109.707       54.190    10533.574    12035.571     2936.523        3.365        1.275      203.226       64.912        0.102      336.314        7.528      857.673
05/20/2014  09:21:00     -121.453      176.189      -33.254       64.892       77.749       46.069     4210.933     6044.920     2122.318        2.964        0.619      213.994       40.883        0.036      336.282        7.476      857.677
05/20/2014  09:22:00     -136.609      151.011      -22.754       81.018       86.738       53.477     6563.866     7523.454     2859.771        2.946        0.847      203.633       43.728        0.046      336.313        7.528      857.676
05/20/2014  09:23:00     -134.438      210.322      -25.854       88.998      141.020       53.036     7920.569    19886.673     2812.801        4.679        1.531      249.617       54.912        0.048      336.237        7.400      857.684
05/20/2014  09:24:00     -157.635      210.658      -23.141      120.491      124.316       70.680    14518.198    15454.445     4995.699        5.236        1.748      263.108       77.175        0.086      336.253        7.428      857.678
05/20/2014  09:25:00     -168.910      308.013      -45.012       83.591      109.814       63.340     6987.393    12059.087     4011.977        7.424        1.153      351.287       61.853        0.031      336.136        7.232      857.663
05/20/2014  09:26:00     -154.782      246.412      -31.476       81.077      143.365       54.545     6573.458    20553.392     2975.110        5.788        1.505      290.992       52.112        0.032      336.191        7.325      857.668
05/20/2014  09:27:00     -125.282      198.147      -35.084       90.602      129.789       57.083     8208.691    16845.183     3258.492        4.224        1.416      234.431       57.744        0.061      336.294        7.496      857.661
05/20/2014  09:28:00      -66.405      224.724      -20.133       73.384      124.476       48.991     5385.274    15494.358     2400.083        3.929        1.164      234.330       56.677        0.059      336.294        7.496      857.668
05/20/2014  09:29:00     -204.354      228.064      -43.273      135.703      108.217       59.110    18415.354    11710.853     3494.034        6.463        1.681      306.225       69.637        0.052      336.319        7.538      857.679
05/20/2014  09:30:00     -200.895      230.095      -41.422       93.535      132.545       62.930     8748.833    17568.226     3960.202        6.264        1.514      305.455       62.698        0.042      336.237        7.400      857.691
05/20/2014  09:31:00     -154.901      268.550      -42.216      123.693      102.107       60.764    15300.059    10425.767     3692.303        6.365        1.471      310.022       53.880        0.030      336.269        7.453      857.712
05/20/2014  09:32:00     -125.084      241.253      -26.580       76.097       93.232       49.769     5790.815     8692.237     2476.984        4.575        0.848      271.752       47.246        0.030      336.336        7.565      857.710
05/20/2014  09:33:00     -162.218      247.861      -42.638      106.452      177.166       63.481    11332.045    31387.836     4029.834        6.815        2.337      296.226       68.119        0.053      336.332        7.558      857.716
05/20/2014  09:34:00     -276.954      312.209      -56.118      139.822      155.216       68.811    19550.145    24091.899     4735.004       11.284        2.419      417.346       75.917        0.033      336.238        7.403      857.742
05/20/2014  09:35:00     -187.949      316.495      -47.782      124.190      118.192       65.229    15423.256    13969.334     4254.785        8.571        1.682      368.095       58.001        0.025      336.248        7.418      857.754
05/20/2014  09:36:00     -172.571      350.797      -54.504       69.817      121.699       55.981     4874.448    14810.750     3133.894        8.931        1.141      390.946       33.981        0.008      336.243        7.411      857.763
05/20/2014  09:37:00     -180.050      287.838      -44.198      114.178       96.137       65.882    13036.546     9242.337     4340.420        7.192        1.331      339.512       53.159        0.025      336.193        7.327      857.783
05/20/2014  09:38:00     -100.817      245.265       -9.355       98.138      154.689       63.559     9631.062    23928.668     4039.690        5.400        1.880      265.178       76.631        0.084      336.225        7.381      857.789
05/20/2014  09:39:00     -144.996      241.186      -31.984       94.509      128.054       66.693     8931.893    16397.820     4447.944        5.499        1.489      281.415       67.447        0.057      336.258        7.436      857.814
05/20/2014  09:40:00     -177.828      335.937      -49.900      111.973      129.954       62.924    12537.916    16888.136     3959.411        9.017        1.669      380.100       59.304        0.024      336.177        7.300      857.830
05/20/2014  09:41:00     -124.099      277.039      -27.914      115.046      142.097       63.072    13235.528    20191.620     3978.053        6.516        1.870      303.564       63.056        0.043      336.187        7.316      857.834
05/20/2014  09:42:00     -184.883      218.191      -40.198      105.662      102.470       64.895    11164.493    10500.192     4211.326        5.464        1.294      285.987       60.661        0.045      336.216        7.366      857.836
05/20/2014  09:43:00     -132.814      265.491      -40.907      100.552      105.590       57.178    10110.681    11149.234     3269.357        5.716        1.226      296.859       67.594        0.052      336.204        7.347      857.835
05/20/2014  09:44:00     -131.195      272.938      -32.713       92.905      112.237       57.998     8631.393    12597.090     3363.756        5.868        1.230      302.832       53.107        0.031      336.215        7.363      857.829
05/20/2014  09:45:00     -125.621      318.631      -31.226       78.637       99.879       51.631     6183.772     9975.796     2665.773        6.855        0.941      342.500       45.183        0.017      336.197        7.333      857.820
05/20/2014  09:46:00     -150.613       96.935      -20.370       82.853       88.908       57.782     6864.639     7904.679     3338.761        2.530        0.905      179.111       56.619        0.100      336.282        7.477      857.818
05/20/2014  09:47:00     -109.598      117.807      -11.346       66.717       68.374       48.733     4451.122     4674.984     2374.920        1.876        0.575      160.904       40.465        0.063      336.282        7.478      857.815
05/20/2014  09:48:00      -99.637      260.798      -33.262       89.990      123.146       56.229     8098.203    15164.832     3161.724        5.273        1.321      279.183       52.999        0.036      336.206        7.349      857.817
05/20/2014  09:49:00      -67.597      243.447      -23.568       62.652      127.163       47.052     3925.302    16170.326     2213.921        4.335        1.115      252.658       46.935        0.035      336.312        7.526      857.805
05/20/2014  09:50:00      -85.128      208.700      -19.968       74.710       92.456       56.981     5581.538     8548.148     3246.799        3.429        0.869      225.394       64.292        0.081      336.290        7.491      857.786
05/20/2014  09:51:00      -42.541      172.560      -17.977       53.232       68.147       33.811     2833.612     4643.981     1143.164        2.026        0.431      177.726       31.053        0.031      336.309        7.524      857.761
05/20/2014  09:52:00      -27.821      246.454      -16.322       90.137       98.543       54.513     8124.602     9710.743     2971.700        4.129        1.040      248.019       52.838        0.045      336.306        7.516      857.747
05/20/2014  09:53:00      -97.809      221.170       -7.715      135.851      135.525       73.968    18455.416    18366.962     5471.230        5.041        2.115      241.832       52.344        0.047      336.375        7.631      857.735
05/20/2014  09:54:00      -32.733      210.592       -5.551       87.733      149.416       68.422     7697.141    22325.050     4681.593        4.007        1.735      213.121       64.941        0.093      336.393        7.662      857.721
05/20/2014  09:55:00     -128.812      171.265      -20.909       97.829      101.663       52.626     9570.518    10335.428     2769.515        3.451        1.134      214.299       59.047        0.076      336.411        7.691      857.728
05/20/2014  09:56:00     -182.656      289.936      -40.002      119.381      111.872       66.533    14251.883    12515.329     4426.599        7.510        1.560      342.675       69.929        0.042      336.354        7.594      857.740
05/20/2014  09:57:00     -206.344      248.663      -38.292      102.067      116.206       67.921    10417.724    13503.949     4613.241        6.720        1.427      323.127       63.022        0.038      336.408        7.685      857.744
05/20/2014  09:58:00     -175.956      241.436      -37.103       88.194      124.001       59.125     7778.170    15376.132     3495.799        5.863        1.333      298.750       57.219        0.037      336.437        7.734      857.753
05/20/2014  09:59:00     -178.672      211.183      -36.467      105.432      115.483       63.580    11115.856    13336.238     4042.471        5.317        1.425      276.627       49.360        0.032      336.476        7.799      857.762
05/20/2014  10:00:00     -143.165      171.894      -31.365       68.413      114.777       53.531     4680.285    13173.863     2865.518        3.587        1.036      223.705       42.120        0.035      336.580        7.976      857.764
05/20/2014  10:01:00     -120.526       43.454      -23.972       50.971       66.831       29.518     2598.036     4466.428      871.314        1.246        0.397      128.120       23.785        0.034      336.633        8.066      857.770
05/20/2014  10:02:00     -165.798      155.610      -15.475       88.104      103.678       58.714     7762.311    10749.033     3447.284        3.695        1.098      227.384       39.482        0.030      336.575        7.966      857.781
05/20/2014  10:03:00     -126.078      102.380      -20.825       93.957      135.664       51.632     8827.915    18404.685     2665.898        2.835        1.495      162.411       53.155        0.107      336.645        8.085      857.785
05/20/2014  10:04:00     -165.528      163.346      -40.356       56.096       88.673       47.131     3146.715     7862.817     2221.305        3.447        0.662      232.554       39.752        0.029      336.572        7.961      857.794
05/20/2014  10:05:00     -206.768      111.450      -34.355       90.064       97.104       51.766     8111.437     9429.197     2679.735        3.828        1.011      234.892       49.640        0.045      336.649        8.091      857.805
05/20/2014  10:06:00     -151.620       35.915      -19.082      127.667      103.252       68.891    16298.798    10660.997     4745.921        2.817        1.585      155.815       67.565        0.188      336.673        8.132      857.799
05/20/2014  10:07:00      -62.483       78.355       29.225       86.429       75.533       70.552     7470.052     5705.261     4977.621        1.452        0.908      100.218       65.280        0.424      336.746        8.254      857.786
05/20/2014  10:08:00      -67.339      180.961       -8.459       65.315      111.762       50.061     4266.039    12490.825     2506.059        2.830        0.963      193.084       42.939        0.049      336.737        8.239      857.809
05/20/2014  10:09:00     -186.734      237.570      -42.976      143.356      125.655       67.482    20550.942    15789.167     4553.863        6.702        2.045      302.174       74.102        0.060      336.602        8.011      857.817
05/20/2014  10:10:00     -175.955      283.660      -46.350      102.307      113.519       54.853    10466.746    12886.477     3008.872        6.996        1.318      333.801       58.307        0.031      336.591        7.994      857.821
05/20/2014  10:11:00     -104.963      217.160      -12.731       78.331       85.566       52.717     6135.707     7321.490     2779.122        3.728        0.812      241.196       43.809        0.033      336.669        8.124      857.851
05/20/2014  10:12:00     -141.418      204.622      -34.103       88.453       96.021       38.710     7823.847     9219.998     1498.499        4.078        0.927      248.735       40.932        0.027      336.675        8.134      857.882
05/20/2014  10:13:00      -90.691      255.386      -21.656      104.779      114.918       59.243    10978.540    13206.228     3509.728        5.080        1.385      271.011       49.981        0.034      336.706        8.184      857.897
05/20/2014  10:14:00      -85.491      285.669      -17.864       74.586      123.400       55.204     5563.140    15227.647     3047.438        5.653        1.192      298.187       52.236        0.031      336.628        8.055      857.910
05/20/2014  10:15:00      -88.336      395.906      -41.140       81.701      162.001       66.257     6675.121    26244.368     4389.981       10.177        1.865      405.641       61.193        0.023      336.510        7.857      857.909
05/20/2014  10:16:00     -107.205      156.141       -0.020      111.514      122.053       65.501    12435.378    14896.889     4290.338        3.374        1.581      189.401       57.043        0.091      336.658        8.106      857.917
05/20/2014  10:17:00     -204.716      356.636      -47.587      107.446      149.961       79.420    11544.671    22488.155     6307.511       10.584        2.017      411.216       75.319        0.034      336.521        7.875      857.942
05/20/2014  10:18:00     -185.264      261.758      -49.285      124.720      108.863       66.752    15555.010    11851.147     4455.792        6.856        1.593      320.687       78.531        0.060      336.510        7.857      857.927
05/20/2014  10:19:00     -143.596      336.175      -38.124      108.610      161.318       79.122    11796.131    26023.570     6260.242        8.957        2.204      365.559       70.397        0.037      336.542        7.911      857.908
05/20/2014  10:20:00     -167.427      136.449      -24.534      101.979       75.554       52.441    10399.659     5708.463     2750.029        3.305        0.943      215.986       47.504        0.048      336.629        8.059      857.948
05/20/2014  10:21:00     -229.728      297.368      -49.039      132.423      169.440       84.202    17535.760    28709.898     7089.949        9.846        2.667      375.770       88.524        0.055      336.494        7.830      857.985
05/20/2014  10:22:00     -200.000      250.012      -29.359      117.586      152.857       73.380    13826.514    23365.384     5384.631        7.296        2.129      320.166       68.187        0.045      336.479        7.804      858.015
05/20/2014  10:23:00     -145.803      157.327      -24.497       74.238       91.620       60.934     5511.221     8394.249     3712.963        3.211        0.881      214.500       40.762        0.036      336.534        7.899      858.022
05/20/2014  10:24:00     -159.585      130.296       -9.075      143.583      141.100       85.604    20616.082    19909.331     7327.994        4.518        2.393      206.020       58.270        0.080      336.507        7.851      858.067
05/20/2014  10:25:00     -130.476       78.431      -10.912      116.515      100.519       67.419    13575.633    10104.061     4545.331        2.575        1.411      152.235       69.154        0.206      336.545        7.916      858.084
05/20/2014  10:26:00     -292.942      202.488      -60.579      174.775      178.241       75.552    30546.449    31769.956     5708.056        9.924        3.401      356.113       82.518        0.054      336.401        7.673      858.137
05/20/2014  10:27:00     -255.528      282.704      -50.736      152.108      167.689       88.736    23136.722    28119.454     7874.123       10.345        2.957      381.072       97.645        0.066      336.304        7.512      858.150
05/20/2014  10:28:00     -152.458      220.562      -29.670      101.973      149.091       53.163    10398.403    22228.128     2826.320        5.410        1.773      268.125       69.097        0.066      336.368        7.618      858.164
05/20/2014  10:29:00     -204.104      123.557      -35.427      124.903      111.880       47.216    15600.867    12517.035     2229.315        4.426        1.517      238.589       43.903        0.034      336.397        7.667      858.183
05/20/2014  10:30:00     -220.538      222.829      -36.962      190.385      120.145       89.424    36246.600    14434.822     7996.626        7.916        2.934      313.512      105.560        0.113      336.298        7.503      858.196
05/20/2014  10:31:00     -299.234      274.241      -57.141      149.206      217.887       81.111    22262.426    47474.612     6578.931       12.215        3.816      405.893       93.278        0.053      336.223        7.377      858.195
05/20/2014  10:32:00     -212.638      293.210      -45.741       79.862      124.611       70.979     6377.950    15527.956     5037.988        8.011        1.347      362.198       64.527        0.032      336.267        7.450      858.210
05/20/2014  10:33:00     -212.933      255.912      -36.701      138.482      172.039       75.345    19177.321    29597.279     5676.812        8.330        2.723      332.914       86.498        0.068      336.275        7.464      858.213
05/20/2014  10:34:00     -268.422      169.259      -30.903      140.694      118.208       69.961    19794.772    13973.205     4894.593        7.015        1.933      317.331       59.615        0.035      336.200        7.339      858.211
05/20/2014  10:35:00      -90.312       99.451       10.236      101.283       66.940       69.307    10258.179     4480.996     4803.516        1.884        0.977      134.338       39.929        0.088      336.328        7.555      858.211
05/20/2014  10:36:00      -57.922      103.229        0.995       68.151       59.757       39.139     4644.626     3570.841     1531.832        1.188        0.487      118.369       35.181        0.088      336.430        7.726      858.231
05/20/2014  10:37:00      -88.343      139.772      -13.185      110.283       85.217       57.421    12162.343     7261.982     3297.145        2.511        1.136      165.350       33.511        0.041      336.410        7.690      858.251
05/20/2014  10:38:00      -66.135       62.198       -3.331       53.263       77.792       48.548     2836.918     6051.596     2356.930        0.975        0.562       90.788       41.278        0.207      336.433        7.733      858.263
05/20/2014  10:39:00     -109.151      233.301      -22.223      100.365      115.780       65.516    10073.141    13404.988     4292.315        4.730        1.389      257.571       64.166        0.062      336.287        7.485      858.284
05/20/2014  10:40:00     -137.392      190.379      -25.341       85.378      106.777       53.418     7289.478    11401.413     2853.484        3.865        1.077      234.778       44.207        0.035      336.226        7.383      858.302
05/20/2014  10:41:00      -97.006       55.317        7.683       81.366       59.119       39.790     6620.389     3495.008     1583.234        1.211        0.585      111.670       38.135        0.117      336.294        7.499      858.297
05/20/2014  10:42:00     -178.992      121.825      -45.007      107.934      117.002       62.446    11649.831    13689.477     3899.542        3.907        1.462      216.516       41.595        0.037      336.128        7.219      858.319
05/20/2014  10:43:00     -203.295      218.858      -30.856      103.889      116.241       66.959    10792.862    13511.863     4483.474        5.948        1.439      298.710       62.142        0.043      336.061        7.107      858.323
05/20/2014  10:44:00      -96.673      154.279       -3.691       89.027       80.162       52.940     7925.778     6426.006     2802.618        2.515        0.858      182.065       45.659        0.063      336.194        7.331      858.331
05/20/2014  10:45:00     -154.897      236.819      -38.310       72.616      160.950       47.527     5273.056    25905.051     2258.824        5.748        1.672      282.978       42.021        0.022      336.048        7.085      858.343
05/20/2014  10:46:00     -159.646      213.806      -38.212       74.076      109.050       57.076     5487.229    11892.004     3257.630        4.664        1.032      266.833       49.487        0.034      336.048        7.083      858.354
05/20/2014  10:47:00     -201.730       61.263      -33.313      122.080      125.409       51.714    14903.497    15727.409     2674.325        3.942        1.665      210.828       45.693        0.047      336.049        7.087      858.358
05/20/2014  10:48:00      -87.686      222.110      -20.162       91.231      102.449       54.829     8323.090    10495.798     3006.189        3.962        1.091      238.792       36.011        0.023      336.018        7.035      858.363
05/20/2014  10:49:00     -121.833      288.257      -31.720       96.653      122.179       57.179     9341.753    14927.592     3269.424        6.323        1.377      312.947       58.210        0.035      335.998        7.001      858.362
05/20/2014  10:50:00     -137.578      248.049      -25.985       90.236      133.526       52.376     8142.497    17829.249     2743.247        5.492        1.436      283.648       64.139        0.051      335.953        6.927      858.373
05/20/2014  10:51:00     -196.895      288.944      -57.357      109.605      122.924       58.390    12013.192    15110.352     3409.358        7.803        1.527      349.651       62.112        0.032      335.915        6.864      858.413
05/20/2014  10:52:00     -184.011      296.850      -43.510      120.745      159.720       67.633    14579.461    25510.343     4574.226        8.426        2.233      349.256       85.883        0.060      335.842        6.743      858.443
05/20/2014  10:53:00     -199.596      264.932      -39.342      105.303      111.367       61.532    11088.645    12402.541     3786.178        6.942        1.364      331.704       65.829        0.039      335.813        6.692      858.459
05/20/2014  10:54:00     -230.141      235.945      -47.940      121.121       95.910       58.988    14670.400     9198.722     3479.590        6.914        1.367      329.598       62.829        0.036      335.770        6.623      858.478
05/20/2014  10:55:00     -127.226      157.730      -10.259       89.205       86.314       60.052     7957.488     7450.122     3606.210        3.009        0.951      202.646       55.888        0.076      335.779        6.638      858.492
05/20/2014  10:56:00      -71.069      160.360      -18.401       88.762       81.572       49.586     7878.683     6653.986     2458.820        2.404        0.850      175.402       52.743        0.090      335.892        6.825      858.510
05/20/2014  10:57:00     -126.374      247.138      -45.552      126.625      116.401       61.447    16033.933    13549.242     3775.759        5.623        1.668      277.574       63.940        0.053      335.801        6.674      858.517
05/20/2014  10:58:00     -145.809      238.476      -39.879      129.339      151.300       63.658    16728.540    22891.541     4052.310        6.169        2.184      279.519       70.661        0.064      335.812        6.692      858.537
05/20/2014  10:59:00     -153.391      187.393      -26.742       94.443      103.115       60.095     8919.440    10632.602     3611.467        4.126        1.158      242.167       54.909        0.051      335.773        6.626      858.547
05/20/2014  11:00:00     -175.249      174.138      -29.206       97.307       82.870       53.656     9468.628     6867.418     2879.008        4.055        0.961      247.055       56.087        0.052      335.746        6.583      858.533
05/20/2014  11:01:00      -27.348      238.513      -28.706       58.401      105.790       48.127     3410.628    11191.460     2316.172        3.769        0.846      240.076       51.820        0.047      335.705        6.512      858.545
05/20/2014  11:02:00      -64.602      282.774      -36.777       56.744      108.847       38.537     3219.843    11847.741     1485.092        5.102        0.828      290.059       36.917        0.016      335.695        6.498      858.541
05/20/2014  11:03:00      -65.418      176.818      -22.824       69.924       88.112       45.193     4889.433     7763.652     2042.436        2.538        0.735      188.532       47.720        0.064      335.725        6.548      858.562
05/20/2014  11:04:00     -120.671      150.487      -22.527       98.035       88.987       43.712     9610.912     7918.632     1910.754        2.857        0.972      192.894       48.382        0.063      335.754        6.597      858.569
05/20/2014  11:05:00      -69.133      177.239      -24.950       67.396       82.048       39.910     4542.206     6731.923     1592.797        2.484        0.643      190.245       31.354        0.027      335.751        6.592      858.596
05/20/2014  11:06:00      -59.511      395.802      -40.496       78.028      114.718       49.562     6088.322    13160.292     2456.354        9.177        1.085      400.251       42.839        0.011      335.623        6.376      858.600
05/20/2014  11:07:00      -57.603      252.286      -16.173       86.510      156.177       60.039     7484.010    24391.286     3604.670        5.135        1.774      258.778       71.725        0.077      335.719        6.537      858.619
05/20/2014  11:08:00     -104.596      275.094      -27.161       69.307      103.067       50.955     4803.427    10622.814     2596.433        5.268        0.901      294.307       52.768        0.032      335.706        6.514      858.628
05/20/2014  11:09:00     -116.187      152.622      -19.273      100.786      155.332       62.910    10157.798    24128.158     3957.653        3.770        1.912      191.815       80.283        0.175      335.770        6.623      858.656
05/20/2014  11:10:00     -115.225      134.092      -13.408      100.509       86.301       62.779    10102.029     7447.934     3941.262        2.646        1.075      176.798       57.239        0.105      335.753        6.594      858.668
05/20/2014  11:11:00      -31.792      133.327      -10.507       51.166       77.364       34.459     2618.000     5985.168     1187.455        1.434        0.490      137.065       33.796        0.061      335.833        6.728      858.679
05/20/2014  11:12:00      -92.265      199.748      -37.864       77.625      104.814       50.664     6025.631    10986.072     2566.853        3.471        0.979      220.027       42.858        0.038      335.785        6.648      858.693
05/20/2014  11:13:00      -70.027      175.400      -11.575       86.194       94.086       45.338     7429.379     8852.258     2055.490        2.707        0.917      188.862       46.173        0.060      335.818        6.701      858.722
05/20/2014  11:14:00      -65.544      226.098      -21.521       60.343       97.631       57.256     3641.278     9531.762     3278.202        3.616        0.823      235.407       49.570        0.044      335.817        6.700      858.735
05/20/2014  11:15:00      -68.430      292.916      -29.926       73.731      128.339       52.043     5436.192    16470.867     2708.508        5.799        1.231      300.803       57.062        0.036      335.734        6.561      858.732
05/20/2014  11:16:00      -58.418      288.860      -26.942       61.918       80.963       46.402     3833.899     6554.981     2153.118        5.006        0.627      294.708       43.585        0.022      335.783        6.643      858.733
05/20/2014  11:17:00      -70.140      213.619      -22.224       78.668       87.909       41.285     6188.674     7727.960     1704.417        3.333        0.781      224.839       28.334        0.016      335.815        6.697      858.738
05/20/2014  11:18:00     -157.682      183.021      -21.155      125.612      117.025       68.891    15778.281    13694.832     4746.030        4.651        1.711      241.579       93.389        0.149      335.784        6.645      858.741
05/20/2014  11:19:00      -39.729      167.231      -11.774       58.705      128.074       46.317     3446.308    16402.990     2145.286        2.583        1.100      171.885       51.377        0.089      335.806        6.682      858.746
05/20/2014  11:20:00      -33.914      151.174      -16.961       48.724       82.733       40.481     2374.063     6844.818     1638.732        1.757        0.543      154.931       37.293        0.058      335.850        6.755      858.752
05/20/2014  11:21:00     -120.414      148.379      -20.397       70.469      100.746       39.610     4965.813    10149.661     1568.919        2.680        0.834      191.091       44.008        0.053      335.809        6.688      858.755
05/20/2014  11:22:00     -129.629      192.913      -29.285       66.645      100.642       44.439     4441.536    10128.779     1974.866        3.571        0.827      232.421       50.780        0.048      335.750        6.591      858.761
05/20/2014  11:23:00      -75.907      138.223      -16.403       85.971       63.266       45.453     7390.944     4002.548     2065.948        1.930        0.673      157.695       48.799        0.096      335.866        6.784      858.782
05/20/2014  11:24:00      -91.926      243.883      -25.412       68.036      103.680       47.987     4628.909    10749.489     2302.792        4.312        0.884      260.633       50.269        0.037      335.830        6.721      858.783
05/20/2014  11:25:00      -51.787      125.127       -6.048       65.949      121.459       38.662     4349.214    14752.327     1494.750        1.948        1.030      135.421       24.295        0.032      335.963        6.946      858.777
05/20/2014  11:26:00     -154.465      150.004      -25.811       90.190       96.708       52.932     8134.260     9352.436     2801.779        3.365        1.014      215.315       53.512        0.062      335.902        6.844      858.785
05/20/2014  11:27:00      -67.357      213.342       -1.387       83.253      108.802       53.350     6931.136    11837.956     2846.206        3.583        1.081      223.722       46.190        0.043      335.910        6.855      858.810
05/20/2014  11:28:00     -114.613      225.713      -20.017       81.699       97.671       56.041     6674.709     9539.589     3140.610        4.192        0.968      253.145       46.925        0.034      335.888        6.817      858.809
05/20/2014  11:29:00     -112.675      179.499      -25.773       69.327       83.661       42.528     4806.208     6999.207     1808.610        2.959        0.681      211.933       39.542        0.035      335.886        6.816      858.812
05/20/2014  11:30:00      -68.816      185.748      -22.012       60.370       66.820       40.247     3644.574     4464.920     1619.850        2.472        0.486      198.086       33.721        0.029      335.910        6.855      858.821
05/20/2014  11:31:00      -77.941      122.769      -16.611       62.132       68.241       35.975     3860.413     4656.806     1294.168        1.562        0.491      145.421       36.180        0.062      335.948        6.922      858.824
05/20/2014  11:32:00     -125.221      186.394      -25.942       66.564       77.870       51.173     4430.764     6063.733     2618.661        3.210        0.656      224.551       50.333        0.050      335.876        6.796      858.830
05/20/2014  11:33:00      -61.969      106.506        4.370       55.931       81.397       53.226     3128.240     6625.393     2832.973        1.389        0.629      123.222       50.403        0.167      335.950        6.924      858.830
05/20/2014  11:34:00     -144.713       83.801      -22.253       76.987       72.366       39.159     5926.983     5236.905     1533.446        2.058        0.635      167.226       38.574        0.053      335.931        6.891      858.842
05/20/2014  11:35:00      -81.717       82.119      -21.114       42.909       66.157       24.029     1841.196     4376.728      577.385        1.033        0.340      115.850       14.068        0.015      335.954        6.930      858.855
05/20/2014  11:36:00     -112.068      119.095      -22.921       62.450       86.097       43.643     3899.964     7412.666     1904.735        2.024        0.661      163.532       27.114        0.027      335.899        6.837      858.855
05/20/2014  11:37:00      -97.623      160.626      -16.481       68.777       68.590       35.956     4730.222     4704.583     1292.814        2.316        0.536      187.965       34.658        0.034      335.922        6.877      858.865
05/20/2014  11:38:00     -121.675      162.012      -29.832       44.409       87.558       41.598     1972.182     7666.373     1730.392        2.665        0.568      202.614       41.591        0.042      335.911        6.857      858.882
05/20/2014  11:39:00      -59.635       72.408        2.615       61.692       58.426       40.718     3805.904     3413.649     1657.985        0.884        0.444       93.804       31.345        0.112      336.070        7.125      858.886
05/20/2014  11:40:00     -125.434      144.949      -43.431       58.724       73.765       40.852     3448.497     5441.300     1668.890        2.459        0.528      191.687       36.757        0.037      335.931        6.891      858.900
05/20/2014  11:41:00      -76.150      170.337      -19.055       61.139       59.017       37.829     3738.019     3483.034     1431.011        2.191        0.433      186.584       22.475        0.015      335.995        6.998      858.900
05/20/2014  11:42:00      -74.301       88.249      -20.533       50.798       52.879       31.972     2580.431     2796.235     1022.198        1.006        0.320      115.362       28.374        0.060      336.065        7.116      858.908
05/20/2014  11:43:00      -67.356      145.902       -9.104       78.785       83.391       50.011     6207.009     6954.010     2501.126        2.078        0.783      160.700       56.403        0.123      336.015        7.032      858.912
05/20/2014  11:44:00      -84.076      124.558        2.927       66.434       76.048       61.743     4413.513     5783.227     3812.188        1.830        0.700      150.278       52.334        0.121      336.047        7.086      858.903
05/20/2014  11:45:00      -98.578      139.403      -28.457       42.817       78.778       29.323     1833.295     6206.004      859.867        1.943        0.445      170.736       17.928        0.011      336.002        7.009      858.908
05/20/2014  11:46:00     -121.236       54.634      -13.861       59.820       69.044       39.152     3578.411     4767.127     1532.842        1.387        0.494      132.977       30.527        0.053      335.978        6.971      858.898
05/20/2014  11:47:00     -118.090      123.882      -43.309       88.320      107.573       37.317     7800.462    11572.015     1392.580        2.596        1.038      171.149       26.130        0.023      335.946        6.915      858.907
05/20/2014  11:48:00     -152.638      203.102      -38.938       91.850       84.576       49.539     8436.448     7153.165     2454.128        4.205        0.902      254.064       54.205        0.046      335.907        6.851      858.917
05/20/2014  11:49:00     -130.891      185.509      -31.764       80.608       98.139       50.719     6497.675     9631.198     2572.377        3.562        0.935      227.037       55.630        0.060      335.883        6.810      858.929
05/20/2014  11:50:00     -123.029      201.699      -19.622      103.421       83.712       53.515    10695.892     7007.626     2863.905        3.838        1.028      236.260       51.700        0.048      335.879        6.803      858.933
05/20/2014  11:51:00     -151.085      186.599      -40.010       63.562       80.110       49.770     4040.185     6417.576     2477.082        3.609        0.647      240.096       38.768        0.026      335.895        6.829      858.930
05/20/2014  11:52:00      -65.950      113.586      -16.553       67.734       54.996       34.380     4587.834     3024.535     1181.992        1.316        0.440      131.343       23.981        0.033      335.949        6.922      858.939
05/20/2014  11:53:00     -111.436      129.637      -26.994       81.806       93.639       36.211     6692.254     8768.213     1311.216        2.336        0.839      170.950       42.557        0.062      335.965        6.950      858.945
05/20/2014  11:54:00      -67.622      158.910      -20.356       43.209       75.348       37.265     1867.002     5677.267     1388.696        1.958        0.447      172.700       40.325        0.055      335.953        6.928      858.948
05/20/2014  11:55:00      -88.697      110.412      -13.402       53.798       50.944       33.186     2894.194     2595.283     1101.312        1.341        0.330      141.626       31.316        0.049      336.005        7.015      858.947
05/20/2014  11:56:00      -37.880      135.081      -10.153       64.449       72.641       45.479     4153.695     5276.765     2068.349        1.564        0.575      140.292       47.654        0.115      336.001        7.008      858.957
05/20/2014  11:57:00     -129.733      131.499      -30.592       45.550       65.072       32.615     2074.819     4234.411     1063.725        2.121        0.369      184.723       11.064        0.004      336.029        7.057      858.971
05/20/2014  11:58:00      -20.546       33.127        2.463       43.422       43.331       30.665     1885.438     1877.555      940.333        0.311        0.235       38.981       23.351        0.359      336.037        7.070      858.975
05/20/2014  11:59:00      -60.074       52.479        0.573       64.185       53.433       44.108     4119.770     2855.042     1945.530        0.764        0.446       79.767       39.180        0.241      336.055        7.100      858.983
05/20/2014  12:00:00      -88.092       88.533       -5.937       59.538       61.518       31.580     3544.797     3784.437      997.275        1.198        0.416      124.893       30.905        0.061      335.966        6.951      858.994
05/20/2014  12:01:00      -54.190       81.604       -8.584       42.841       51.950       25.007     1835.372     2698.811      625.372        0.741        0.258       97.958       16.300        0.028      336.034        7.065      859.004
05/20/2014  12:02:00      -32.616       99.055      -11.958       48.033      108.331       36.818     2307.208    11735.511     1355.564        1.321        0.770      104.287       54.292        0.271      336.098        7.170      859.013
05/20/2014  12:03:00      -95.083      236.545      -18.280       62.556       89.384       51.879     3913.258     7989.529     2691.458        3.996        0.730      254.940       47.063        0.034      336.031        7.055      859.007
05/20/2014  12:04:00      -77.920       79.242      -11.449       50.278       53.040       27.581     2527.909     2813.213      760.699        0.929        0.305      111.134       26.290        0.056      336.090        7.159      859.017
05/20/2014  12:05:00      -28.791      118.006      -11.000       31.711       54.175       31.045     1005.559     2934.966      963.806        0.989        0.245      121.468       16.233        0.018      336.133        7.231      859.026
05/20/2014  12:06:00      -52.674       65.543      -21.793       41.528       48.663       30.348     1724.546     2368.093      921.001        0.628        0.251       84.086       28.375        0.114      336.196        7.335      859.039
05/20/2014  12:07:00      -45.311       61.712        6.344       44.770       44.323       31.989     2004.366     1964.553     1023.286        0.545        0.250       76.560       29.255        0.146      336.253        7.431      859.048
05/20/2014  12:08:00      -35.843       64.881      -15.329       46.433       86.067       27.942     2155.996     7407.451      780.747        0.803        0.517       74.123       20.919        0.080      336.239        7.406      859.057
05/20/2014  12:09:00     -125.065      200.143      -32.656       62.975       73.803       37.420     3965.802     5446.820     1400.219        3.379        0.541      236.005       34.022        0.021      336.174        7.295      859.076
05/20/2014  12:10:00      -86.842       81.056      -11.425       53.203       72.474       39.397     2830.562     5252.451     1552.134        1.194        0.482      118.793       35.432        0.089      336.222        7.379      859.086
05/20/2014  12:11:00      -79.228       83.686      -17.956       42.780       61.935       32.122     1830.122     3835.884     1031.845        1.015        0.335      115.241       31.890        0.077      336.192        7.329      859.106
05/20/2014  12:12:00     -108.592      149.770      -13.816       95.351      102.817       58.866     9091.844    10571.420     3465.263        2.877        1.156      184.996       49.763        0.072      336.206        7.349      859.122
05/20/2014  12:13:00     -133.085      190.341      -35.521       70.333      102.234       57.248     4946.700    10451.880     3277.281        3.694        0.934      232.252       40.019        0.030      336.152        7.259      859.136
05/20/2014  12:14:00     -141.744      197.202      -32.968       84.697      126.271       58.410     7173.614    15944.410     3411.782        4.329        1.326      242.858       56.965        0.055      336.179        7.304      859.147
05/20/2014  12:15:00      -72.237      254.778      -24.352       58.186       89.683       43.273     3385.559     8043.109     1872.553        4.201        0.665      264.821       47.181        0.032      336.194        7.330      859.148
05/20/2014  12:16:00     -185.000       76.339      -19.825      103.507       98.143       44.410    10713.675     9631.990     1972.281        3.138        1.116      200.132       39.802        0.040      336.221        7.375      859.189
05/20/2014  12:17:00     -354.347       15.241      -29.180      156.766      196.372       55.748    24575.641    38561.897     3107.885        9.643        3.312      354.674       54.089        0.023      336.067        7.117      859.201
05/20/2014  12:18:00     -308.054     -141.513       -0.356      140.845       98.445       64.633    19837.425     9691.402     4177.480        7.431        1.685      339.003       69.214        0.042      336.066        7.116      859.174
05/20/2014  12:19:00     -179.427      -25.351        8.743      106.787       84.001       56.051    11403.373     7056.095     3141.710        2.725        1.080      181.209       54.355        0.090      336.112        7.193      859.188
05/20/2014  12:20:00      -67.048        6.673       11.758       63.894       39.692       27.890     4082.452     1575.450      777.856        0.556        0.322       67.379       23.431        0.121      336.191        7.328      859.226
05/20/2014  12:21:00     -145.731      -19.562      -15.242       44.023       38.350       26.158     1938.033     1470.718      684.252        1.297        0.205      147.038       20.441        0.019      336.127        7.220      859.244
05/20/2014  12:22:00     -154.343      -38.784        1.269       33.876       36.460       21.716     1147.600     1329.299      471.591        1.414        0.147      159.142       15.440        0.009      336.146        7.252      859.247
05/20/2014  12:23:00     -124.121      -32.371       -2.839       70.445       39.786       31.327     4962.516     1582.913      981.359        1.199        0.376      128.273       35.726        0.078      336.171        7.292      859.253
05/20/2014  12:24:00      -80.122      -14.236       -4.671       58.291       33.319       28.533     3397.785     1110.176      814.125        0.598        0.266       81.377       27.724        0.116      336.262        7.447      859.266
05/20/2014  12:25:00     -117.786       31.025      -20.718       76.359       57.326       33.796     5830.671     3286.235     1142.199        1.276        0.513      121.804       43.141        0.125      336.209        7.358      859.285
05/20/2014  12:26:00     -161.582       40.438      -16.875       79.481       69.676       44.507     6317.223     4854.744     1980.889        2.059        0.658      166.565       50.623        0.092      336.194        7.329      859.295
05/20/2014  12:27:00     -230.324       74.530      -36.708       76.242       98.209       47.876     5812.803     9645.068     2292.099        3.885        0.887      242.082       30.664        0.016      336.023        7.043      859.310
05/20/2014  12:28:00     -138.392       81.503       -9.588       94.397       76.179       49.400     8910.862     5803.201     2440.322        2.152        0.858      160.608       59.746        0.138      335.990        6.989      859.315
05/20/2014  12:29:00      -67.045      139.740      -17.703       71.324       69.960       28.153     5087.135     4894.411      792.614        1.755        0.539      154.991       29.698        0.037      335.968        6.953      859.313
05/20/2014  12:30:00     -139.762      -49.561       -9.136       48.532       65.535       32.717     2355.338     4294.898     1070.404        1.490        0.386      148.289       23.644        0.025      336.000        7.008      859.313
05/20/2014  12:31:00      -95.093       51.691      -19.440       30.445       29.563       27.604      926.924      873.960      761.983        0.733        0.128      108.234       16.657        0.024      335.973        6.963      859.308
05/20/2014  12:32:00      -99.120      -51.630       -3.990       47.391       53.698       29.792     2245.951     2883.465      887.566        0.926        0.301      111.760       23.238        0.043      335.982        6.977      859.310
05/20/2014  12:33:00      -98.286      -34.836        3.737       72.820       47.633       34.808     5302.733     2268.924     1211.628        0.983        0.439      104.277       29.954        0.083      336.079        7.140      859.318
05/20/2014  12:34:00      -72.811       13.551        3.755       83.993       51.467       35.520     7054.887     2648.836     1261.646        0.823        0.548       74.061       43.678        0.348      336.114        7.198      859.328
05/20/2014  12:35:00     -115.531      117.284      -25.118       45.691       71.889       27.496     2087.685     5167.962      756.005        1.787        0.401      164.629       26.879        0.027      335.968        6.952      859.339
05/20/2014  12:36:00      -60.115       76.320       -9.151       41.710       40.647       27.392     1739.751     1652.180      750.304        0.683        0.207       97.152       22.508        0.054      336.055        7.099      859.345
05/20/2014  12:37:00      -81.974       -9.497       -7.890       29.303       36.254       16.323      858.655     1314.330      266.438        0.466        0.122       82.523        6.501        0.006      336.053        7.096      859.348
05/20/2014  12:38:00      -67.672      -41.147        2.775       45.088       37.901       21.684     2032.955     1436.514      470.203        0.511        0.197       79.199       27.154        0.118      336.084        7.147      859.362
05/20/2014  12:39:00      -51.155      -16.129        2.581       46.308       28.076       16.095     2144.475      788.237      259.035        0.304        0.160       53.637       14.519        0.073      336.149        7.256      859.382
05/20/2014  12:40:00     -108.009       10.396       -8.314       47.160       31.179       21.752     2224.111      972.111      473.157        0.776        0.183      108.508       20.668        0.036      336.033        7.064      859.398
05/20/2014  12:41:00     -112.410       -0.813      -10.825       45.914       33.572       21.842     2108.095     1127.071      477.070        0.823        0.186      112.413       25.759        0.053      335.993        6.995      859.406
05/20/2014  12:42:00     -108.105       13.773       -4.049       46.740       31.438       20.584     2184.618      988.349      423.711        0.774        0.180      108.979       15.749        0.021      336.045        7.083      859.411
05/20/2014  12:43:00      -71.066       -5.948        5.176       39.929       37.366       19.062     1594.312     1396.250      363.363        0.423        0.168       71.315       12.509        0.031      336.112        7.194      859.410
05/20/2014  12:44:00     -126.515       28.956       -3.038       37.419       19.280       16.561     1400.191      371.736      274.268        0.945        0.102      129.786       14.945        0.013      336.051        7.094      859.419
05/20/2014  12:45:00     -103.827       -2.959      -10.191       38.772       22.520       18.708     1503.263      507.154      349.971        0.663        0.118      103.869       15.636        0.023      336.015        7.032      859.432
05/20/2014  12:46:00      -48.310       -9.305       -2.082       24.750       20.251       12.167      612.572      410.121      148.030        0.180        0.059       49.198        9.462        0.037      336.145        7.250      859.438
05/20/2014  12:47:00     -132.854      -12.036      -16.018       45.288       38.211       26.128     2050.983     1460.052      682.673        1.112        0.210      133.398       24.873        0.035      336.147        7.252      859.450
05/20/2014  12:48:00     -135.416       18.442      -18.129       52.569       29.264       22.315     2763.468      856.370      497.954        1.156        0.206      136.666       22.299        0.027      335.990        6.991      859.454
05/20/2014  12:49:00     -162.942       58.410      -36.299       43.913       44.449       25.033     1928.388     1975.730      626.632        1.790        0.227      173.095       19.263        0.012      335.988        6.986      859.453
05/20/2014  12:50:00     -157.314       55.089      -21.712       51.781       33.191       22.233     2681.317     1101.669      494.286        1.626        0.214      166.681       23.232        0.019      335.975        6.966      859.450
05/20/2014  12:51:00     -199.646       51.550      -13.934       67.262       49.741       31.938     4524.120     2474.204     1020.048        2.536        0.401      206.194       29.790        0.021      336.001        7.006      859.454
05/20/2014  12:52:00     -182.459       61.841      -17.001       54.540       34.004       25.216     2974.605     1156.254      635.844        2.108        0.238      192.654       22.250        0.013      335.970        6.955      859.473
05/20/2014  12:53:00     -172.542       64.786      -20.966       53.532       47.220       22.525     2865.630     2229.767      507.358        2.000        0.280      184.304       17.173        0.009      336.005        7.015      859.480
05/20/2014  12:54:00     -173.259        9.135      -23.897       63.965       52.921       25.572     4091.551     2800.630      653.920        1.911        0.377      173.500       20.667        0.014      335.993        6.995      859.477
05/20/2014  12:55:00     -135.715      -46.153       -5.994       65.019       58.365       35.319     4227.451     3406.486     1247.409        1.473        0.444      143.348       30.063        0.044      336.095        7.166      859.471
05/20/2014  12:56:00     -191.569      -35.830      -23.091       52.999       63.948       30.696     2808.871     4089.341      942.272        2.318        0.392      194.891       29.694        0.023      336.046        7.082      859.474
05/20/2014  12:57:00     -179.278      -46.498      -10.897       66.807       45.206       38.431     4463.115     2043.544     1476.961        2.120        0.399      185.210       38.230        0.043      336.049        7.089      859.471
05/20/2014  12:58:00     -134.566      -40.999      -18.434       75.166       51.611       42.354     5649.942     2663.731     1793.866        1.512        0.505      140.673       33.222        0.056      336.057        7.100      859.479
05/20/2014  12:59:00      -90.957      -22.657        4.216       85.013       63.828       32.038     7227.153     4074.048     1026.402        1.056        0.616       93.737       40.905        0.190      336.119        7.206      859.474
05/20/2014  13:00:00      -89.345      -33.748       -5.875       76.468       53.319       40.215     5847.344     2842.882     1617.240        0.973        0.515       95.506       31.176        0.107      336.106        7.183      859.479
05/20/2014  13:01:00     -139.577      -23.912        1.844       74.689       70.107       35.551     5578.472     4915.005     1263.905        1.590        0.588      141.610       40.295        0.081      336.092        7.160      859.483
05/20/2014  13:02:00     -123.929       -7.977       -5.423       49.512       39.425       22.738     2451.416     1554.329      517.021        0.999        0.226      124.186       15.492        0.016      336.132        7.228      859.483
05/20/2014  13:03:00     -118.664       25.751      -22.255       45.062       42.778       29.088     2030.591     1829.917      846.136        0.997        0.235      121.426       17.677        0.021      336.100        7.174      859.497
05/20/2014  13:04:00      -69.220       13.979      -20.237       34.967       52.955       22.861     1222.657     2804.207      522.639        0.497        0.227       70.617       18.645        0.070      336.096        7.169      859.504
05/20/2014  13:05:00       -7.035      -21.245       14.849       31.604       27.092       23.277      998.784      733.997      541.833        0.150        0.114       22.380       15.027        0.451      336.186        7.317      859.497
05/20/2014  13:06:00       -5.536      -20.719        0.453       41.920       25.677       19.137     1757.295      659.318      366.230        0.162        0.139       21.446       17.610        0.674      336.324        7.549      859.498
05/20/2014  13:07:00      -63.866      -11.375        2.906       72.514       18.669       19.165     5258.273      348.544      367.315        0.509        0.299       64.871       29.755        0.210      336.148        7.256      859.512
05/20/2014  13:08:00      -27.441       -0.640       -2.340       42.161       30.363       26.126     1777.547      921.892      682.561        0.207        0.169       27.448       19.946        0.528      336.304        7.515      859.519
05/20/2014  13:09:00      -37.414       -6.526       -6.682       25.566       18.186       14.175      653.616      330.743      200.937        0.134        0.059       37.979        5.120        0.018      336.217        7.371      859.533
05/20/2014  13:10:00      -29.095        9.151       -9.219       17.441       10.592       14.533      304.191      112.184      211.201        0.082        0.031       30.500        6.027        0.039      336.266        7.451      859.543
05/20/2014  13:11:00      -32.742       -1.501        1.958       24.364       16.732       17.076      593.591      279.972      291.578        0.112        0.058       32.777        8.613        0.069      336.239        7.407      859.553
05/20/2014  13:12:00      -42.934      -31.096       -1.320       21.393       21.718       15.653      457.657      471.665      245.023        0.199        0.059       53.012       10.233        0.037      336.215        7.367      859.562
05/20/2014  13:13:00      -41.037       -2.167        3.567       19.064       13.823       14.789      363.422      191.080      218.729        0.124        0.039       41.094       12.387        0.091      336.222        7.378      859.566
05/20/2014  13:14:00       -8.886        0.190        9.855       13.011       12.804       13.656      169.285      163.945      186.484        0.035        0.026        8.888       11.460        1.663      336.453        7.765      859.569
05/20/2014  13:15:00      -25.350      -17.445        9.841       18.133       17.905       13.936      328.820      320.587      194.222        0.094        0.042       30.773       12.847        0.174      336.257        7.437      859.573
05/20/2014  13:16:00       -8.331      -22.103        9.391       15.243       17.069       13.274      232.353      291.334      176.189        0.067        0.035       23.621        7.037        0.089      336.285        7.484      859.575
05/20/2014  13:17:00       -0.771       87.432       -9.669       25.780       67.864       26.303      664.629     4605.506      691.849        0.685        0.298       87.435       34.832        0.159      336.269        7.458      859.575
05/20/2014  13:18:00       -0.876       56.517       -2.588       16.432       36.722       21.197      270.001     1348.493      449.333        0.263        0.103       56.523       20.008        0.125      336.225        7.385      859.566
05/20/2014  13:19:00      -25.988       10.310       -0.103       21.323       21.405       13.933      454.651      458.183      194.124        0.094        0.055       27.958        7.633        0.075      336.245        7.416      859.563
05/20/2014  13:20:00      -95.576       14.338      -10.947       31.095       34.274       20.519      966.919     1174.726      421.046        0.601        0.128       96.645       14.150        0.021      336.228        7.390      859.569
05/20/2014  13:21:00     -124.789       37.170      -17.033       29.820       33.365       20.636      889.249     1113.215      425.835        0.984        0.121      130.207       17.822        0.019      336.118        7.205      859.578
05/20/2014  13:22:00     -137.245       29.689       -9.382       24.859       27.566       18.042      617.971      759.883      325.529        1.075        0.085      140.420       10.863        0.006      336.076        7.135      859.575
05/20/2014  13:23:00      -83.358      -31.103       -7.192       35.348       30.662       21.119     1249.454      940.187      445.993        0.530        0.132       88.972       22.702        0.065      336.062        7.111      859.573
05/20/2014  13:24:00      -88.593      -14.931       -9.491       47.182       40.265       16.878     2226.170     1621.282      284.879        0.615        0.207       89.842       16.866        0.035      336.169        7.290      859.579
05/20/2014  13:25:00     -115.113        4.165      -10.754       42.537       34.166       20.842     1809.377     1167.345      434.390        0.840        0.171      115.188       23.261        0.041      336.155        7.267      859.595
05/20/2014  13:26:00     -154.612       35.532       -9.834       47.312       36.809       26.768     2238.452     1354.897      716.523        1.479        0.215      158.642       18.960        0.014      336.157        7.269      859.601
05/20/2014  13:27:00     -179.784      -63.373       -7.426       71.492       49.008       27.324     5111.040     2401.815      746.580        2.232        0.413      190.627       28.077        0.022      336.175        7.298      859.602
05/20/2014  13:28:00     -229.063      -59.338       -6.640       65.264       53.642       29.263     4259.377     2877.444      856.325        3.201        0.400      236.624       23.272        0.010      336.131        7.223      859.605
05/20/2014  13:29:00     -210.366      -82.160      -10.460       77.419       43.713       34.163     5993.670     1910.841     1167.120        3.009        0.454      225.841       35.402        0.025      336.126        7.215      859.610
05/20/2014  13:30:00     -145.842     -107.940       -9.891       85.089       94.233       44.292     7240.212     8879.841     1961.814        2.555        0.904      181.442       50.820        0.078      336.132        7.226      859.615
05/20/2014  13:31:00     -146.866     -103.585       -5.612       82.234       57.978       38.098     6762.414     3361.505     1451.444        2.195        0.579      179.721       38.483        0.046      336.117        7.202      859.605
05/20/2014  13:32:00      -76.839      -47.879        1.725       81.291       41.927       28.674     6608.180     1757.876      822.200        0.869        0.459       90.535       35.975        0.158      336.247        7.420      859.600
05/20/2014  13:33:00     -101.185      -48.431        8.799       94.622       60.392       42.613     8953.289     3647.222     1815.909        1.354        0.721      112.178       49.911        0.198      336.221        7.376      859.578
05/20/2014  13:34:00     -204.772       -7.879       -5.257       80.259       62.572       37.200     6441.550     3915.252     1383.836        2.688        0.587      204.924       35.827        0.031      336.084        7.146      859.555
05/20/2014  13:35:00     -155.879       13.615       13.942       85.643       64.091       45.724     7334.718     4107.672     2090.650        1.910        0.677      156.472       43.725        0.078      336.140        7.240      859.531
05/20/2014  13:36:00     -163.219      -42.915       -8.293      101.340       68.242       46.307    10269.743     4656.917     2144.382        2.281        0.854      168.766       51.050        0.091      336.194        7.329      859.530
05/20/2014  13:37:00     -116.433      -71.528       -8.024       71.648       77.578       30.275     5133.483     6018.279      916.564        1.540        0.603      136.649       30.190        0.049      336.196        7.334      859.516
05/20/2014  13:38:00     -205.773     -105.333        1.997      120.150       85.278       46.934    14436.003     7272.281     2202.790        3.867        1.196      231.166       47.347        0.042      336.182        7.310      859.482
05/20/2014  13:39:00     -240.032     -152.444      -10.053       91.139      102.938       50.141     8306.304    10596.272     2514.157        5.118        1.071      284.349       47.071        0.027      336.114        7.195      859.425
05/20/2014  13:40:00     -252.278     -163.965      -20.687      102.420       88.153       41.725    10489.837     7771.026     1740.954        5.548        1.000      300.880       40.242        0.018      336.112        7.192      859.382
05/20/2014  13:41:00     -238.794     -142.771        0.039       79.122      100.474       50.861     6260.255    10094.941     2586.802        4.817        0.947      278.219       51.107        0.034      336.142        7.242      859.366
05/20/2014  13:42:00     -194.738     -156.835        0.617       59.492      109.144       40.646     3539.289    11912.509     1652.128        3.981        0.855      250.040       31.265        0.016      336.108        7.185      859.348
05/20/2014  13:43:00     -243.209     -120.511       -2.376       83.935       72.032       45.087     7045.117     5188.680     2032.870        4.397        0.713      271.428       51.315        0.036      336.132        7.226      859.313
05/20/2014  13:44:00     -142.241     -120.578       -0.546       89.212       81.967       44.422     7958.730     6718.618     1973.275        2.571        0.833      186.471       45.633        0.060      336.188        7.320      859.267
05/20/2014  13:45:00     -137.270      -80.299       -4.968       73.515       81.276       42.111     5404.482     6605.855     1773.327        1.955        0.689      159.031       31.982        0.040      336.222        7.377      859.237
05/20/2014  13:46:00     -159.416      -58.370        7.065       98.486       75.317       41.132     9699.563     5672.606     1691.835        2.296        0.853      169.766       44.881        0.070      336.254        7.431      859.195
05/20/2014  13:47:00      -53.382      -27.720       20.619       76.472       78.071       40.745     5847.898     6095.033     1660.167        0.882        0.680       60.150       33.057        0.302      336.335        7.568      859.175
05/20/2014  13:48:00     -186.255     -128.682        0.012      131.092      106.821       52.801    17185.010    11410.751     2787.975        4.131        1.569      226.385       51.881        0.053      336.225        7.382      859.164
05/20/2014  13:49:00     -236.976     -139.070        4.930      135.281       94.092       45.011    18300.961     8853.293     2025.963        5.235        1.459      274.769       54.951        0.040      336.225        7.382      859.147
05/20/2014  13:50:00     -138.087     -137.530        5.936       79.939       62.083       39.996     6390.174     3854.281     1599.656        2.493        0.592      194.891       34.860        0.032      336.285        7.482      859.151
05/20/2014  13:51:00     -111.917      -11.527        8.397       77.192       58.439       47.157     5958.590     3415.105     2223.801        1.216        0.580      112.509       46.746        0.173      336.353        7.596      859.135
05/20/2014  13:52:00     -181.021     -180.428      -14.474      103.233       91.448       40.476    10656.973     8362.648     1638.319        4.309        1.033      255.584       42.586        0.028      336.273        7.461      859.122
05/20/2014  13:53:00     -190.120     -196.239      -10.090       96.801       90.088       49.478     9370.363     8115.825     2448.085        4.734        0.997      273.232       47.092        0.030      336.328        7.552      859.090
05/20/2014  13:54:00     -216.051     -118.859       -8.228       95.643       82.828       46.962     9147.532     6860.440     2205.443        3.954        0.911      246.588       56.949        0.053      336.303        7.512      859.060
05/20/2014  13:55:00     -166.020      -87.583        4.676       78.732       79.630       39.389     6198.682     6340.901     1551.518        2.467        0.705      187.706       34.630        0.034      336.360        7.608      859.044
05/20/2014  13:56:00     -103.907      -99.307        1.117       79.998       43.800       38.867     6399.647     1918.446     1510.633        1.524        0.491      143.731       41.497        0.083      336.357        7.603      859.031
05/20/2014  13:57:00     -112.874      -47.847        3.476       83.882       61.887       35.631     7036.173     3829.942     1269.555        1.359        0.607      122.596       39.455        0.104      336.424        7.714      859.036
05/20/2014  13:58:00     -108.922      -33.719        5.276       91.200       33.778       35.691     8317.454     1140.986     1273.843        1.188        0.537      114.022       46.670        0.168      336.437        7.738      859.028
05/20/2014  13:59:00     -135.721     -104.699        4.983       81.014       74.596       41.763     6563.318     5564.532     1744.183        2.164        0.694      171.412       36.354        0.045      336.464        7.780      859.035
05/20/2014  14:00:00     -148.780      -58.388       -3.783       81.894       61.326       41.621     6706.680     3760.910     1732.342        1.888        0.610      159.827       44.452        0.077      336.444        7.748      859.016
05/20/2014  14:01:00      -85.192      -49.027       -4.571       47.095       54.028       29.921     2217.941     2919.064      895.269        0.786        0.302       98.292       15.916        0.026      336.525        7.887      859.019
05/20/2014  14:02:00     -147.502     -150.805        1.635      105.891       79.193       56.547    11212.811     6271.468     3197.580        3.259        1.034      210.948       59.162        0.079      336.472        7.794      859.020
05/20/2014  14:03:00     -254.204     -213.281      -19.597      116.214      103.518       64.415    13505.754    10715.993     4149.331        6.943        1.419      331.826       60.019        0.033      336.389        7.654      859.001
05/20/2014  14:04:00     -173.185      -95.622        8.860      101.209       61.818       41.103    10243.211     3821.475     1689.491        2.748        0.788      197.830       43.021        0.047      336.455        7.765      858.991
05/20/2014  14:05:00      -93.022      -24.052        7.763       77.304       55.287       34.308     5975.937     3056.629     1177.005        0.975        0.510       96.082       35.232        0.134      336.529        7.890      858.981
05/20/2014  14:06:00     -177.329      -57.020       -9.177      114.858       45.333       37.260    13192.450     2055.114     1388.317        2.571        0.832      186.271       46.602        0.063      336.477        7.803      858.968
05/20/2014  14:07:00     -173.048      -44.368      -12.472       82.344       52.846       29.021     6780.544     2792.686      842.221        2.124        0.521      178.646       29.519        0.027      336.520        7.874      858.960
05/20/2014  14:08:00     -138.134      -86.681        1.318       76.619       65.777       36.691     5870.419     4326.563     1346.252        1.907        0.577      163.079       32.108        0.039      336.571        7.959      858.962
05/20/2014  14:09:00     -164.091     -135.688       -5.625       59.537       62.748       40.053     3544.693     3937.345     1604.234        2.723        0.454      212.925       30.411        0.020      336.570        7.957      858.963
05/20/2014  14:10:00     -122.659     -138.996       -1.435       72.028       56.659       33.023     5188.055     3210.241     1090.552        2.193        0.474      185.379       26.655        0.021      336.570        7.959      858.964
05/20/2014  14:11:00     -139.783     -103.898        2.908      139.375       96.154       46.958    19425.311     9245.575     2205.071        3.060        1.544      174.167       48.100        0.076      336.572        7.961      858.954
05/20/2014  14:12:00     -179.796     -111.407       -7.884       96.476       54.770       44.094     9307.683     2999.719     1944.251        2.952        0.713      211.514       40.488        0.037      336.504        7.848      858.952
05/20/2014  14:13:00     -147.682     -106.326        1.190      105.810       65.118       49.818    11195.694     4240.374     2481.798        2.551        0.896      181.976       57.582        0.100      336.521        7.875      858.942
05/20/2014  14:14:00     -122.452     -103.031       11.095       79.453       77.972       43.740     6312.850     6079.604     1913.173        2.002        0.715      160.031       43.307        0.073      336.580        7.976      858.942
05/20/2014  14:15:00     -138.177      -19.496      -15.752       60.321       43.576       24.262     3638.625     1898.896      588.630        1.292        0.306      139.546        7.725        0.003      336.581        7.980      858.937
05/20/2014  14:16:00      -35.698      -30.774        6.951       50.444       40.662       20.115     2544.557     1653.388      404.628        0.344        0.230       47.132       18.131        0.148      336.685        8.155      858.938
05/20/2014  14:17:00      -15.175      -31.958        0.790       30.449       34.063       16.513      927.165     1160.281      272.678        0.181        0.118       35.377       12.526        0.125      336.800        8.346      858.940
05/20/2014  14:18:00      -21.124      -16.817        8.783       35.539       32.929       26.581     1263.050     1084.331      706.560        0.193        0.153       27.001       23.477        0.756      336.876        8.473      858.952
05/20/2014  14:19:00      -45.875      -69.030        9.035       53.299       46.111       34.404     2840.836     2126.239     1183.606        0.655        0.308       82.884       38.775        0.219      336.691        8.163      858.955
05/20/2014  14:20:00     -138.179      -80.206        1.149       78.529       52.824       38.895     6166.855     2790.427     1512.849        1.800        0.524      159.770       36.038        0.051      336.681        8.146      858.959
05/20/2014  14:21:00      -93.632      -95.307        2.236       93.131       86.179       55.777     8673.329     7426.801     3111.104        1.853        0.961      133.605       50.289        0.142      336.674        8.133      858.955
05/20/2014  14:22:00     -247.339     -115.907       -3.749       78.473       62.083       41.915     6158.066     3854.320     1756.827        4.319        0.588      273.150       44.903        0.027      336.596        8.002      858.944
05/20/2014  14:23:00     -176.794      -88.304      -10.881       58.352       53.153       35.830     3404.938     2825.213     1283.780        2.334        0.376      197.620       26.526        0.018      336.673        8.131      858.946
05/20/2014  14:24:00      -89.732        8.256        9.163       60.013       92.494       31.822     3601.576     8555.225     1012.651        1.068        0.658       90.111       21.379        0.056      336.748        8.258      858.948
05/20/2014  14:25:00     -132.492      -54.374       -0.809       75.625       80.482       42.728     5719.092     6477.408     1825.682        1.726        0.701      143.215       38.954        0.074      336.760        8.277      858.951
05/20/2014  14:26:00     -215.614      -72.465      -19.845       79.050       70.473       37.732     6248.850     4966.475     1423.668        3.238        0.632      227.466       37.391        0.027      336.708        8.189      858.954
05/20/2014  14:27:00     -119.681        0.929       -1.794       66.407       59.881       40.787     4409.877     3585.755     1663.580        1.199        0.483      119.685       34.907        0.085      336.769        8.295      858.940
05/20/2014  14:28:00     -109.226      -90.101       21.594       96.252       80.618       51.643     9264.472     6499.292     2667.043        1.947        0.922      141.593       46.442        0.108      336.815        8.369      858.930
05/20/2014  14:29:00     -109.243     -111.676       -1.214       98.638       91.616       52.897     9729.490     8393.572     2798.067        2.266        1.046      156.223       49.362        0.100      336.806        8.354      858.913
05/20/2014  14:30:00     -233.038      -56.398      -13.124      119.326       75.165       47.090    14238.721     5649.825     2217.505        3.988        1.105      239.765       59.457        0.061      336.735        8.234      858.906
05/20/2014  14:31:00     -269.063     -122.365       -2.561      116.297      102.076       56.284    13525.022    10419.527     3167.891        5.724        1.356      295.581       59.513        0.041      336.727        8.221      858.881
05/20/2014  14:32:00     -143.326      -71.099        3.457       94.912       61.976       45.173     9008.323     3840.976     2040.581        2.025        0.744      159.992       45.202        0.080      336.808        8.357      858.866
05/20/2014  14:33:00     -201.111      -75.996       -4.799      127.867       83.179       49.985    16349.913     6918.784     2498.539        3.600        1.288      214.991       59.669        0.077      336.754        8.267      858.843
05/20/2014  14:34:00     -192.815     -173.693        5.481      123.750       99.986       71.239    15314.175     9997.110     5075.005        4.888        1.519      259.513       74.738        0.083      336.745        8.250      858.828
05/20/2014  14:35:00     -234.634      -95.991       -9.185       87.411       85.466       42.697     7640.706     7304.489     1823.019        4.056        0.838      253.510       29.818        0.014      336.694        8.165      858.840
05/20/2014  14:36:00     -158.041      -64.731        2.716       85.023       75.473       42.398     7228.970     5696.238     1797.569        2.195        0.736      170.784       46.680        0.075      336.717        8.205      858.849
05/20/2014  14:37:00     -160.411      -46.690        4.889       72.412       72.552       38.563     5243.520     5263.778     1487.128        1.996        0.600      167.068       39.412        0.056      336.796        8.338      858.848
05/20/2014  14:38:00     -131.944      -81.345        3.192      103.339       73.660       49.727    10678.899     5425.773     2472.777        2.130        0.929      155.004       59.183        0.146      336.829        8.391      858.838
05/20/2014  14:39:00     -205.764      -34.021       12.483      136.167       89.885       59.479    18541.514     8079.350     3537.803        3.690        1.508      208.557       69.842        0.112      336.729        8.224      858.834
05/20/2014  14:40:00     -104.244      -11.473       12.495       89.142       69.109       45.246     7946.209     4776.051     2047.158        1.296        0.738      104.874       53.636        0.262      336.808        8.357      858.820
05/20/2014  14:41:00     -180.656      -17.145       -2.911       87.514       77.701       39.969     7658.759     6037.468     1597.484        2.411        0.765      181.468       44.607        0.060      336.766        8.288      858.824
05/20/2014  14:42:00     -174.503      -32.665      -11.080       67.540       53.533       38.011     4561.647     2865.788     1444.840        2.025        0.444      177.534       38.863        0.048      336.767        8.290      858.821
05/20/2014  14:43:00     -150.217      -48.432        3.296       76.541       63.043       38.644     5858.569     3974.360     1493.380        1.812        0.566      157.832       36.929        0.055      336.803        8.348      858.817
05/20/2014  14:44:00     -161.879      -36.526      -18.570      104.405       57.585       32.802    10900.325     3316.060     1075.999        2.158        0.765      165.948       42.915        0.067      336.792        8.330      858.802
05/20/2014  14:45:00     -101.202      -70.441        8.604      111.402       64.007       46.713    12410.367     4096.949     2182.122        1.698        0.934      123.303       49.434        0.161      336.853        8.433      858.795
05/20/2014  14:46:00     -112.492      -72.768       15.583       66.247       62.543       37.072     4388.726     3911.608     1374.351        1.393        0.484      133.976       28.852        0.046      336.866        8.454      858.802
05/20/2014  14:47:00      -95.378      -83.544        4.832       72.784       57.316       46.258     5297.481     3285.149     2139.804        1.341        0.536      126.794       43.664        0.119      336.899        8.508      858.809
05/20/2014  14:48:00      -98.849     -120.267        1.788       76.568       53.718       38.680     5862.588     2885.671     1496.129        1.724        0.512      155.677       42.824        0.076      336.872        8.462      858.807
05/20/2014  14:49:00      -75.582      -71.301       -3.377       51.560       43.925       27.483     2658.428     1929.410      755.299        0.807        0.267      103.906       26.387        0.064      336.961        8.612      858.794
05/20/2014  14:50:00       18.391      -56.220       -4.351       65.930       50.795       38.218     4346.814     2580.168     1460.577        0.595        0.419       59.151       40.529        0.469      337.178        8.976      858.780
05/20/2014  14:51:00      -23.871      -32.527       16.022       42.447       35.570       28.675     1801.715     1265.249      822.252        0.289        0.194       40.346       16.614        0.170      337.295        9.172      858.769
05/20/2014  14:52:00       17.832      -46.339       42.998       55.910      101.546       50.829     3125.957    10311.545     2583.599        1.016        0.801       49.652       53.349        1.154      337.198        9.009      858.781
05/20/2014  14:53:00       16.081      -74.523       40.386       57.290      102.680       63.017     3282.181    10543.109     3971.107        1.262        0.890       76.238       64.230        0.710      337.185        8.988      858.800
05/20/2014  14:54:00       94.060     -163.651      -30.850       68.041       78.005       46.246     4629.638     6084.708     2138.661        2.471        0.643      188.756       41.843        0.049      336.998        8.672      858.824
05/20/2014  14:55:00       65.332       -8.064       31.737       47.594       33.870       31.435     2265.208     1147.209      988.180        0.487        0.220       65.828       26.110        0.157      337.017        8.708      858.837
05/20/2014  14:56:00       19.210      -44.297       17.030       29.045       43.799       25.969      843.587     1918.335      674.370        0.303        0.172       48.283       19.954        0.171      337.060        8.779      858.831
05/20/2014  14:57:00      -25.519      -58.732        7.179       47.614       43.624       26.906     2267.118     1903.035      723.953        0.452        0.245       64.036       23.755        0.138      337.158        8.944      858.827
05/20/2014  14:58:00      -29.285      -33.067      -11.378       61.638       39.304       23.045     3799.276     1544.776      531.066        0.398        0.294       44.170       23.630        0.286      337.157        8.940      858.830
05/20/2014  14:59:00        5.830      -81.471       11.270       74.707       42.460       28.679     5581.127     1802.876      822.461        0.750        0.410       81.679       18.048        0.049      337.310        9.197      858.844
05/20/2014  15:00:00      -50.409      -22.814        0.110       32.183       34.035       26.965     1035.760     1158.371      727.101        0.299        0.146       55.331       15.174        0.075      337.316        9.208      858.850
05/20/2014  15:01:00      -32.052      -11.190        6.216       55.339       31.510       23.808     3062.395      992.877      566.825        0.291        0.231       33.949       24.981        0.541      337.173        8.967      858.861
05/20/2014  15:02:00      -83.223      -13.434        6.449       51.790       39.290       26.905     2682.212     1543.709      723.883        0.605        0.247       84.300       22.386        0.071      337.093        8.834      858.871
05/20/2014  15:03:00      -96.110        0.266      -10.053       36.993       22.173       22.362     1368.493      491.643      500.058        0.585        0.118       96.110       18.818        0.038      336.978        8.642      858.878
05/20/2014  15:04:00      -42.803       -8.441       -7.613       23.064       19.860       12.411      531.965      394.428      154.041        0.152        0.054       43.627        4.288        0.010      337.081        8.813      858.888
05/20/2014  15:05:00       -7.538      -33.239       24.610       30.585       44.666       41.961      935.436     1995.053     1760.732        0.323        0.235       34.083       16.378        0.231      337.248        9.094      858.893
05/20/2014  15:06:00       38.911      -10.644       52.848       65.639       90.208       63.853     4308.526     8137.466     4077.198        1.047        0.826       40.340       67.228        2.777      337.103        8.850      858.892
05/20/2014  15:07:00       41.575      -74.949       24.796       80.982      102.080       78.395     6558.048    10420.375     6145.764        1.554        1.156       85.707       76.797        0.803      336.832        8.397      858.891
05/20/2014  15:08:00       80.751     -105.047        9.010       70.877      101.658       54.762     5023.494    10334.298     2998.893        1.799        0.918      132.498       67.065        0.256      336.904        8.517      858.886
05/20/2014  15:09:00      101.422     -128.652      -19.820       47.809       77.825       28.248     2285.731     6056.658      797.973        1.818        0.457      163.823       31.599        0.037      336.824        8.383      858.897
05/20/2014  15:10:00      109.069     -132.147      -14.752       64.949       97.904       40.621     4218.400     9585.237     1650.030        2.251        0.773      171.345       54.953        0.103      336.770        8.292      858.909
05/20/2014  15:11:00      130.193     -149.753      -32.345       58.359       65.454       36.255     3405.755     4284.275     1314.427        2.471        0.450      198.435       22.566        0.013      336.730        8.227      858.901
05/20/2014  15:12:00      151.056     -177.652      -43.272       60.306       82.728       39.699     3636.799     6843.975     1575.978        3.415        0.603      233.191       41.559        0.032      336.663        8.112      858.875
05/20/2014  15:13:00      123.343     -146.373      -33.234       61.062       81.128       45.290     3728.616     6581.812     2051.196        2.505        0.618      191.412       37.092        0.038      336.702        8.179      858.876
05/20/2014  15:14:00       45.767      -29.856       34.310       56.362       68.258       44.898     3176.730     4659.122     2015.806        0.701        0.493       54.644       37.660        0.475      336.856        8.438      858.885
05/20/2014  15:15:00      157.172     -215.063      -27.258       64.476       45.337       28.877     4157.138     2055.430      833.884        3.937        0.352      266.375       27.342        0.011      336.635        8.065      858.895
05/20/2014  15:16:00       83.326     -146.336       -9.796       70.867       80.531       51.561     5022.089     6485.303     2658.489        2.131        0.708      168.396       46.978        0.078      336.790        8.326      858.900
05/20/2014  15:17:00       59.650     -125.971        3.281       44.604       55.699       35.934     1989.541     3102.429     1291.218        1.291        0.319      139.380       16.883        0.015      336.844        8.419      858.905
05/20/2014  15:18:00       31.076      -65.541       18.544       38.520       50.244       34.302     1483.819     2524.495     1176.631        0.539        0.259       72.535       29.710        0.168      336.934        8.568      858.901
05/20/2014  15:19:00       28.112      -45.152       13.448       53.944       51.254       31.229     2909.932     2626.986      975.261        0.476        0.326       53.188       21.072        0.157      336.936        8.571      858.885
05/20/2014  15:20:00       80.278      -88.453       -3.741       47.992       62.774       46.240     2303.185     3940.531     2138.163        1.133        0.419      119.451       35.193        0.087      336.924        8.551      858.896
05/20/2014  15:21:00       28.219      -32.759       20.764       51.751       55.735       40.841     2678.154     3106.346     1667.993        0.488        0.373       43.237       33.178        0.589      336.828        8.392      858.884
05/20/2014  15:22:00       95.188     -111.808       -7.522       56.591       90.044       38.803     3202.537     8107.986     1505.642        1.721        0.641      146.840       54.437        0.137      336.783        8.315      858.853
05/20/2014  15:23:00      104.317     -117.683      -27.734       42.999       43.800       26.698     1848.956     1918.465      712.810        1.499        0.224      157.263       23.137        0.022      336.697        8.174      858.885
05/20/2014  15:24:00       46.245      -52.748       -8.642       43.777       53.722       43.457     1916.384     2886.104     1888.517        0.584        0.335       70.150       36.598        0.272      336.858        8.441      858.916
05/20/2014  15:25:00       27.023      -66.466        3.541       35.294       43.113       31.278     1245.668     1858.707      978.312        0.462        0.204       71.749       25.266        0.124      336.848        8.425      858.904
05/20/2014  15:26:00      -11.224      -52.465       17.712       49.261       52.680       32.328     2426.626     2775.165     1045.081        0.472        0.312       53.653       19.470        0.132      336.862        8.448      858.847
05/20/2014  15:27:00       -6.305      -47.659       11.746       35.037       41.362       33.608     1227.620     1710.815     1129.486        0.326        0.203       48.074       24.869        0.268      337.167        8.958      858.822
05/20/2014  15:28:00      -60.831      -26.813        7.665       50.148       49.140       27.935     2514.816     2414.785      780.344        0.509        0.285       66.479       25.680        0.149      336.980        8.647      858.843
05/20/2014  15:29:00      -55.479      -28.584        3.721       48.051       33.583       17.450     2308.929     1127.830      304.509        0.382        0.187       62.410       17.974        0.083      337.014        8.702      858.841
05/20/2014  15:30:00      -99.489      -80.605        0.992       66.469       53.739       30.487     4418.159     2887.887      929.478        1.231        0.412      128.044       24.638        0.037      336.924        8.550      858.778
05/20/2014  15:31:00     -149.748      -90.633       -1.177       48.349       36.519       24.798     2337.635     1333.621      614.934        1.746        0.214      175.039        6.537        0.001      336.823        8.382      858.744
05/20/2014  15:32:00      -98.860      -85.426       -2.650       61.729       55.859       34.367     3810.409     3120.240     1181.121        1.259        0.406      130.656       30.125        0.053      336.789        8.326      858.759
05/20/2014  15:33:00      -61.629      -58.545        7.195       54.997       61.849       25.148     3024.648     3825.359      632.433        0.738        0.374       85.004       24.963        0.086      336.920        8.545      858.769
05/20/2014  15:34:00      -88.364      -78.629        6.624       78.273       57.006       36.588     6126.589     3249.710     1338.717        1.237        0.536      118.283       47.307        0.160      336.877        8.472      858.766
05/20/2014  15:35:00      -91.491      -63.614        5.947       61.534       49.116       31.725     3786.463     2412.427     1006.492        0.983        0.360      111.434       28.251        0.064      336.918        8.541      858.777
05/20/2014  15:36:00     -111.158      -73.968       -8.439       45.807       47.278       26.008     2098.241     2235.216      676.408        1.145        0.250      133.520       27.905        0.044      336.832        8.399      858.784
05/20/2014  15:37:00     -102.518      -77.268       -3.597       68.067       49.049       24.784     4633.152     2405.833      614.254        1.207        0.383      128.376       35.533        0.077      336.737        8.240      858.769
05/20/2014  15:38:00      -70.013      -52.827        2.034       53.769       36.717       19.754     2891.148     1348.167      390.206        0.616        0.231       87.707       16.348        0.035      336.825        8.387      858.764
05/20/2014  15:39:00      -19.706      -52.644        5.594       37.597       59.482       29.488     1413.567     3538.069      869.517        0.450        0.291       56.211       18.525        0.109      337.044        8.753      858.760
05/20/2014  15:40:00       14.507       15.058       64.299       44.476       65.809       37.461     1978.150     4330.866     1403.320        0.614        0.386       20.909       35.080        2.815      337.254        9.104      858.729
05/20/2014  15:41:00       61.011       10.967       45.832       71.957       45.334       41.604     5177.760     2055.142     1730.919        0.745        0.448       61.989       38.411        0.384      337.102        8.848      858.717
05/20/2014  15:42:00       31.905        9.390       39.893       42.856       40.935       37.549     1836.672     1675.711     1409.955        0.381        0.246       33.258       31.671        0.907      337.060        8.779      858.697
05/20/2014  15:43:00       33.928      -53.186       21.598       40.609       50.520       40.234     1649.112     2552.223     1618.741        0.513        0.291       63.086       34.024        0.291      337.276        9.141      858.687
05/20/2014  15:44:00       39.230      -28.153       21.801       46.809       53.660       35.744     2191.120     2879.370     1277.633        0.458        0.317       48.287       39.144        0.657      337.326        9.224      858.674
05/20/2014  15:45:00       10.994      -87.024        6.974       43.310       44.427       32.006     1875.727     1973.715     1024.393        0.631        0.244       87.716       27.977        0.102      337.242        9.084      858.657
05/20/2014  15:46:00        7.221      -63.914       18.148       50.299       53.031       44.167     2529.991     2812.274     1950.732        0.588        0.365       64.320       34.618        0.290      337.420        9.382      858.659
05/20/2014  15:47:00      -33.579      -85.054       -5.438       36.066       38.211       33.853     1300.749     1460.055     1146.053        0.615        0.195       91.443       21.472        0.055      337.377        9.311      858.657
05/20/2014  15:48:00      -30.276      -24.686       21.289       33.921       83.557       47.133     1150.622     6981.762     2221.542        0.616        0.518       39.064       49.789        1.624      337.343        9.253      858.669
05/20/2014  15:49:00       -7.407      -63.453       15.418       42.518       77.389       49.831     1807.781     5989.092     2483.156        0.730        0.514       63.884       47.015        0.542      337.134        8.903      858.660
05/20/2014  15:50:00       57.651     -123.878      -22.009       45.908       51.417       41.556     2107.580     2643.696     1726.862        1.281        0.324      136.636       28.583        0.044      337.063        8.784      858.655
05/20/2014  15:51:00       58.524      -60.690        0.953       36.273       35.033       35.349     1315.741     1227.279     1249.539        0.545        0.190       84.310       23.821        0.080      337.131        8.899      858.677
05/20/2014  15:52:00      -30.514      -59.766       -6.527       73.292       33.451       25.615     5371.724     1118.979      656.111        0.584        0.357       67.105       15.754        0.055      337.284        9.153      858.694
05/20/2014  15:53:00      -34.873      -16.490       -3.427       42.339       32.753       21.269     1792.566     1072.779      452.379        0.241        0.166       38.575       13.114        0.116      337.418        9.379      858.701
05/20/2014  15:54:00      -39.957      -65.733        0.039       28.177       53.081       22.215      793.968     2817.553      493.503        0.501        0.205       76.925       15.136        0.039      337.200        9.013      858.692
05/20/2014  15:55:00      -41.740      -24.023        5.144       44.709       27.163       21.444     1998.881      737.826      459.861        0.277        0.160       48.160       24.941        0.268      337.274        9.138      858.684
05/20/2014  15:56:00     -110.054      -69.703        4.745       51.187       42.337       27.745     2620.059     1792.410      769.769        1.109        0.259      130.270       21.478        0.027      337.088        8.826      858.660
05/20/2014  15:57:00     -137.231     -120.806      -12.254       51.668       51.111       28.369     2669.566     2612.359      804.778        1.983        0.304      182.829       26.238        0.021      336.962        8.614      858.654
05/20/2014  15:58:00     -105.860     -109.184        1.453       40.533       61.134       33.890     1642.947     3737.400     1148.551        1.483        0.326      152.077       32.493        0.046      337.002        8.681      858.651
05/20/2014  15:59:00      -51.183      -58.582        6.635       38.181       66.807       25.713     1457.781     4463.215      661.160        0.634        0.329       77.792       26.982        0.120      337.228        9.062      858.640
05/20/2014  16:00:00      -54.631      -59.717        4.837       56.819       57.652       26.619     3228.393     3323.772      708.578        0.692        0.363       80.936       28.947        0.128      337.100        8.848      858.621
05/20/2014  16:01:00     -102.219      -80.249       -6.357       48.673       47.817       31.586     2369.043     2286.458      997.694        1.129        0.283      129.956       23.358        0.032      337.044        8.753      858.605
05/20/2014  16:02:00     -135.648      -59.643       -8.983       40.915       38.141       26.536     1674.023     1454.723      704.182        1.293        0.192      148.181       20.724        0.020      337.050        8.762      858.604
05/20/2014  16:03:00      -48.083      -96.728        0.982       34.873       50.379       22.457     1216.145     2538.066      504.312        0.796        0.213      108.020       19.664        0.033      337.078        8.807      858.609
05/20/2014  16:04:00      -86.700      -41.857        3.186       64.665       48.586       29.026     4181.524     2360.578      842.511        0.833        0.369       96.275       31.399        0.106      337.278        9.143      858.608
05/20/2014  16:05:00      -78.901      -89.722       -2.284       59.077       43.380       30.340     3490.059     1881.810      920.536        1.029        0.315      119.479       24.033        0.040      337.201        9.014      858.619
05/20/2014  16:06:00      -78.234      -91.446        2.909       38.176       41.351       23.630     1457.396     1709.913      558.371        0.911        0.186      120.345       20.232        0.028      337.102        8.848      858.615
05/20/2014  16:07:00      -58.498      -17.819       -0.064       40.395       57.636       29.964     1631.742     3321.947      897.836        0.479        0.293       61.151       24.115        0.156      337.352        9.267      858.603
05/20/2014  16:08:00      -53.244      -16.294       -8.322       35.541       53.453       18.723     1263.175     2857.253      350.554        0.382        0.224       55.681        6.434        0.013      337.265        9.124      858.588
05/20/2014  16:09:00      -49.791      -37.389       -4.694       90.003       41.860       26.661     8100.580     1752.287      710.815        0.723        0.528       62.266       19.700        0.100      337.432        9.402      858.574
05/20/2014  16:10:00     -107.192      -69.836        1.188       63.374       36.448       24.070     4016.275     1328.455      579.372        1.115        0.296      127.934       30.622        0.057      337.246        9.090      858.574
05/20/2014  16:11:00      -33.630      -16.886        2.400       26.638       23.884       16.106      709.578      570.463      259.395        0.148        0.077       37.631        5.147        0.019      337.352        9.267      858.575
05/20/2014  16:12:00       16.959      -23.162        3.827       40.847       28.025       32.298     1668.487      785.428     1043.190        0.217        0.175       28.706       17.350        0.365      337.430        9.398      858.566
05/20/2014  16:13:00      -73.911      -34.097        0.565       33.328       26.069       19.415     1110.762      679.600      376.952        0.440        0.108       81.397       13.507        0.028      337.335        9.242      858.546
05/20/2014  16:14:00      -74.072       19.487       -4.235       21.759       19.222       16.654      473.435      369.472      277.345        0.350        0.056       76.593        9.822        0.016      337.294        9.173      858.552
05/20/2014  16:15:00      -59.769       11.674       -3.622       23.073       16.250       13.833      532.365      264.060      191.338        0.235        0.049       60.898       13.342        0.048      337.293        9.170      858.561
05/20/2014  16:16:00      -42.985      -20.076      -12.419       15.229       13.075       10.915      231.932      170.954      119.144        0.146        0.026       47.442        4.243        0.008      337.274        9.138      858.574
05/20/2014  16:17:00      -11.958       -2.501       11.280       11.247       16.186       12.874      126.496      261.972      165.730        0.042        0.028       12.217        9.511        0.606      337.654        9.774      858.606
05/20/2014  16:18:00      -39.712        5.752       -7.064       30.689       19.771       14.868      941.835      390.888      221.055        0.161        0.078       40.126        8.818        0.048      337.418        9.378      858.634
05/20/2014  16:19:00      -16.971        3.391       13.998       42.456       17.880       14.301     1802.529      319.699      204.518        0.141        0.116       17.307       20.132        1.353      337.756        9.944      858.612
05/20/2014  16:20:00      -59.380       48.878       -4.552       36.618       37.032       20.235     1340.903     1371.335      409.467        0.453        0.156       76.909       19.956        0.067      337.336        9.240      858.577
05/20/2014  16:21:00       -2.541        7.645        7.735       13.952       14.177       17.519      194.656      200.987      306.916        0.041        0.035        8.056        7.088        0.774      337.668        9.795      858.565
05/20/2014  16:22:00      -24.167       -9.139       -8.979       34.588       38.072       15.837     1196.347     1449.509      250.814        0.182        0.145       25.837        8.071        0.098      337.527        9.562      858.558
05/20/2014  16:23:00      -37.140      -73.018       -7.189       21.902       38.247       20.553      479.704     1462.811      422.422        0.456        0.118       81.920       17.296        0.045      337.407        9.362      858.548
05/20/2014  16:24:00       25.260      -64.400      -17.544       42.941       43.109       31.370     1843.906     1858.420      984.102        0.489        0.234       69.176       19.679        0.081      337.589        9.665      858.520
05/20/2014  16:25:00        2.977       -3.599       21.742       37.200       35.448       31.897     1383.841     1256.535     1017.444        0.208        0.183        4.671       19.055       16.644      337.884       10.161      858.494
05/20/2014  16:26:00     -108.251       -3.335       -5.605       39.221       23.922       19.646     1538.268      572.284      385.958        0.713        0.125      108.302       14.830        0.019      337.548        9.596      858.489
05/20/2014  16:27:00     -114.009       -6.938        3.169       63.071       38.559       28.685     3977.929     1486.816      822.812        0.967        0.314      114.220       37.328        0.107      337.687        9.831      858.490
05/20/2014  16:28:00      -81.081      -11.244      -16.820       36.049       23.568       16.028     1299.505      555.450      256.885        0.455        0.106       81.856       10.332        0.016      337.570        9.633      858.494
05/20/2014  16:29:00      -19.324      -19.339      -11.262       26.408       41.067       14.763      697.375     1686.485      217.937        0.174        0.130       27.339        6.453        0.056      337.794       10.008      858.489
05/20/2014  16:30:00      -58.398      -38.122        5.442       53.067       36.969       22.064     2816.124     1366.738      486.805        0.478        0.233       69.739       25.209        0.131      337.920       10.220      858.480
05/20/2014  16:31:00      -84.787      -40.862        1.269       45.117       31.182       21.045     2035.522      972.342      442.902        0.615        0.173       94.120       15.013        0.025      337.811       10.038      858.478
05/20/2014  16:32:00      -92.774      -60.629        4.148       65.846       53.873       25.478     4335.695     2902.284      649.152        1.009        0.394      110.828       19.989        0.033      337.802       10.023      858.473
05/20/2014  16:33:00      -80.212      -95.362       -3.129       53.891       38.514       31.702     2904.232     1483.362     1005.042        1.046        0.270      124.611       35.326        0.080      337.786        9.996      858.477
05/20/2014  16:34:00     -110.087      -93.236        6.367       79.895       78.977       48.801     6383.264     6237.411     2381.565        1.792        0.750      144.264       41.300        0.082      337.784        9.991      858.453
05/20/2014  16:35:00     -178.217      -63.348       -5.746       95.406       70.423       44.503     9102.307     4959.334     1980.488        2.592        0.802      189.141       48.274        0.065      337.735        9.909      858.437
05/20/2014  16:36:00     -261.420       -2.519      -11.750      107.995       68.574       54.110    11662.943     4702.424     2927.939        4.389        0.965      261.432       60.095        0.053      337.732        9.903      858.438
05/20/2014  16:37:00     -242.153      -59.758      -11.545       97.313       53.803       43.347     9469.759     2894.803     1878.989        3.829        0.712      249.418       37.987        0.023      337.761        9.950      858.447
05/20/2014  16:38:00     -226.038      -24.770       -6.773       74.936       57.318       39.987     5615.357     3285.324     1598.939        3.112        0.525      227.391       42.501        0.035      337.758        9.945      858.457
05/20/2014  16:39:00     -177.014      -42.755       -2.227       82.683       61.383       40.503     6836.560     3767.892     1640.475        2.270        0.612      182.104       42.055        0.053      337.838       10.080      858.465
05/20/2014  16:40:00     -116.600      -63.263       -0.594       77.749       90.567       39.946     6044.976     8202.391     1595.720        1.672        0.792      132.657       39.970        0.091      337.955       10.277      858.459
05/20/2014  16:41:00     -207.089     -166.745        1.193      117.064       93.766       53.573    13703.999     8792.139     2870.052        4.802        1.268      265.876       58.915        0.049      337.811       10.034      858.446
05/20/2014  16:42:00     -186.748     -121.275       -6.163       86.738       62.738       46.611     7523.509     3936.012     2172.568        3.162        0.682      222.672       36.962        0.028      337.784        9.989      858.443
05/20/2014  16:43:00     -171.844      -97.542       -6.951       68.206       48.354       29.059     4652.071     2338.085      844.401        2.346        0.392      197.597       29.049        0.022      337.811       10.035      858.439
05/20/2014  16:44:00     -282.979      -17.397      -15.645       70.759       75.897       42.089     5006.871     5760.336     1771.509        4.658        0.627      283.513       37.380        0.017      337.828       10.062      858.434
05/20/2014  16:45:00     -159.607      -85.610        4.905       70.193       70.480       37.102     4927.045     4967.378     1376.522        2.205        0.564      181.118       33.591        0.034      337.890       10.168      858.436
05/20/2014  16:46:00     -201.384     -161.844      -12.900       93.690       80.908       55.704     8777.821     6546.041     3102.947        4.267        0.921      258.358       52.854        0.042      337.842       10.087      858.437
05/20/2014  16:47:00     -262.374     -143.504       -2.665       85.889       62.677       38.697     7376.962     3928.344     1497.422        5.112        0.640      299.054       40.073        0.018      337.770        9.966      858.444
05/20/2014  16:48:00     -156.680     -119.723       -2.008       77.148       80.874       43.206     5951.876     6540.587     1866.729        2.662        0.718      197.186       52.915        0.072      337.851       10.100      858.449
05/20/2014  16:49:00     -167.686        1.068       -5.606       46.224       45.900       25.557     2136.626     2106.795      653.145        1.652        0.245      167.690       21.650        0.017      337.868       10.131      858.459
05/20/2014  16:50:00     -131.271      -51.541       -7.325       50.331       46.387       28.740     2533.161     2151.714      825.977        1.273        0.276      141.026       30.443        0.047      337.894       10.178      858.475
05/20/2014  16:51:00      -48.001      -53.274        8.368       62.415       40.511       27.652     3895.656     1641.138      764.614        0.576        0.315       71.709       35.864        0.250      337.923       10.227      858.487
05/20/2014  16:52:00     -157.070       -2.197      -11.479       48.733       39.330       23.596     2374.934     1546.851      556.781        1.464        0.224      157.085       23.591        0.023      337.953       10.274      858.484
05/20/2014  16:53:00     -176.952      -25.159       -4.701       77.715       48.036       29.558     6039.623     2307.449      873.655        2.059        0.461      178.731       35.253        0.039      337.895       10.176      858.484
05/20/2014  16:54:00     -227.919      -78.687      -14.746       65.524       54.991       27.069     4293.391     3023.974      732.752        3.320        0.403      241.119       21.720        0.008      337.853       10.104      858.488
05/20/2014  16:55:00     -167.656      -58.749       -0.638       55.150       42.799       32.176     3041.557     1831.770     1035.309        1.873        0.295      177.651       32.689        0.034      337.874       10.141      858.489
05/20/2014  16:56:00     -138.684      -52.867      -15.373       24.082       35.945       17.274      579.928     1292.020      298.375        1.222        0.109      148.418       13.547        0.008      337.867       10.131      858.502
05/20/2014  16:57:00      -90.873      -51.739        4.061       33.323       37.485       22.346     1110.394     1405.107      499.347        0.698        0.151      104.570       19.203        0.034      337.913       10.208      858.504
05/20/2014  16:58:00      -48.829       -5.131       -4.225       26.096       23.782       12.974      680.976      565.592      168.331        0.192        0.071       49.098        6.474        0.017      337.947       10.261      858.515
05/20/2014  16:59:00      -68.781      -29.803       -2.721       28.071       24.515       15.946      787.998      600.980      254.274        0.363        0.082       74.960        9.011        0.014      338.066       10.465      858.528
05/20/2014  17:00:00      -33.820       -0.850      -12.506       29.674       16.824        9.398      880.558      283.061       88.322        0.128        0.063       33.831       10.433        0.095      338.012       10.374      858.547
05/20/2014  17:01:00      -43.318        1.121        0.418       36.986       21.484       19.991     1367.962      461.560      399.651        0.205        0.111       43.333       17.686        0.167      338.083       10.493      858.559
05/20/2014  17:02:00      -68.509      -27.764       -4.088       40.537       35.130       15.287     1643.273     1234.131      233.691        0.430        0.156       73.922       17.355        0.055      338.102       10.525      858.571
05/20/2014  17:03:00      -43.544      -34.720        0.631       52.450       26.015       21.515     2751.048      676.772      462.883        0.350        0.195       55.691       29.495        0.280      338.195       10.681      858.591
05/20/2014  17:04:00      -34.287      -36.536        3.980       21.782       13.863       13.624      474.443      192.183      185.602        0.169        0.043       50.104       14.031        0.078      338.116       10.549      858.591
05/20/2014  17:05:00       -6.819      -49.398       -3.437       19.809       27.934       18.291      392.409      780.312      334.558        0.200        0.075       49.866       14.722        0.087      338.218       10.722      858.578
05/20/2014  17:06:00       13.528       35.460       31.242       41.335       46.172       31.862     1708.605     2131.887     1015.159        0.364        0.243       37.953       18.907        0.248      338.290       10.839      858.583
05/20/2014  17:07:00       23.666        7.149       39.709       55.675       56.076       30.363     3099.703     3144.535      921.940        0.468        0.358       24.722       20.891        0.714      338.205       10.697      858.590
05/20/2014  17:08:00        1.381       -3.698        6.533       37.809       35.249       26.472     1429.499     1242.523      700.791        0.171        0.169        3.947       18.376       21.672      338.182       10.659      858.602
05/20/2014  17:09:00       83.093       53.986       32.802       39.674       29.540       31.783     1574.052      872.586     1010.161        0.718        0.173       99.091       19.787        0.040      338.068       10.468      858.599
05/20/2014  17:10:00      146.894      105.928       45.723       49.812       36.022       42.071     2481.276     1297.568     1769.961        2.022        0.277      181.104       30.868        0.029      337.928       10.232      858.604
05/20/2014  17:11:00      111.195       71.005       15.987       34.437       41.703       31.759     1185.877     1739.119     1008.645        1.080        0.197      131.932       22.615        0.029      337.930       10.238      858.601
05/20/2014  17:12:00       87.505       59.817       34.419       27.362       23.856       25.044      748.675      569.127      627.179        0.718        0.097      105.997        8.016        0.006      337.926       10.230      858.598
05/20/2014  17:13:00       64.020       63.861       52.402       35.199       26.060       26.835     1238.956      679.132      720.127        0.678        0.132       90.425       15.958        0.031      337.967       10.299      858.592
05/20/2014  17:14:00       65.329       62.643       38.506       49.400       30.244       32.307     2440.339      914.709     1043.734        0.704        0.220       90.510       26.964        0.089      338.053       10.442      858.594
05/20/2014  17:15:00        4.961       12.136       30.143       35.522       42.808       23.450     1261.834     1832.485      549.894        0.236        0.182       13.110       21.026        2.572      338.142       10.592      858.584
05/20/2014  17:16:00      -10.262       -9.794       27.370       18.083       30.506       17.963      327.010      930.587      322.654        0.126        0.079       14.186       14.301        1.016      338.169       10.637      858.556
05/20/2014  17:17:00       17.980      -44.623        3.120       32.248       60.061       28.672     1039.965     3607.297      822.059        0.390        0.273       48.109       32.168        0.447      338.230       10.741      858.543
05/20/2014  17:18:00       35.120     -130.742       -9.676       30.090       31.485       19.463      905.396      991.304      378.817        1.035        0.114      135.376       14.688        0.012      338.228       10.738      858.542
05/20/2014  17:19:00        4.073     -124.877        5.325       34.075       31.883       28.517     1161.092     1016.540      813.246        0.931        0.150      124.944       16.619        0.018      338.195       10.681      858.543
05/20/2014  17:20:00      -14.949      -37.394       24.096       30.885       33.837       20.317      953.903     1144.933      412.766        0.236        0.126       40.271        9.436        0.055      338.249       10.773      858.552
05/20/2014  17:21:00      -13.208        0.078       13.728       24.127       26.905       17.058      582.106      723.866      290.972        0.098        0.080       13.208       10.966        0.689      338.279       10.823      858.583
05/20/2014  17:22:00       73.791       60.719       51.916       35.096       31.562       31.652     1231.698      996.141     1001.874        0.753        0.161       95.561       13.776        0.021      338.109       10.538      858.605
05/20/2014  17:23:00       94.079       67.008       41.157       23.245       23.720       26.880      540.346      562.627      722.523        0.843        0.091      115.503       21.352        0.034      338.027       10.399      858.616
05/20/2014  17:24:00       96.607       63.151       15.976       25.565       15.455       20.898      653.569      238.858      436.744        0.745        0.066      115.416       19.006        0.027      338.031       10.407      858.615
05/20/2014  17:25:00       79.083       56.822       10.586       16.340       15.319       18.405      266.981      234.675      338.754        0.522        0.042       97.380        7.991        0.007      338.035       10.413      858.624
05/20/2014  17:26:00       87.192       54.515        6.840       22.840       18.143       20.109      521.657      329.163      404.358        0.594        0.063      102.832        8.900        0.007      338.076       10.482      858.618
05/20/2014  17:27:00       68.797       42.264       18.538       37.523       32.990       29.260     1407.992     1088.341      856.173        0.511        0.168       80.742       19.270        0.057      338.128       10.569      858.602
05/20/2014  17:28:00       78.077       53.981       15.457       29.845       28.037       26.081      890.749      786.068      680.233        0.580        0.118       94.921       18.117        0.036      338.196       10.683      858.581
05/20/2014  17:29:00       56.760       46.913       17.082       25.403       22.553       24.213      645.335      508.650      586.284        0.373        0.087       73.637       12.915        0.031      338.150       10.606      858.572
05/20/2014  17:30:00       25.225       38.617       23.670       26.830       28.775       27.948      719.869      828.022      781.101        0.251        0.116       46.125        7.120        0.024      338.206       10.700      858.563
05/20/2014  17:31:00       76.652       54.794       37.069       38.244       22.145       33.025     1462.615      490.388     1090.658        0.665        0.152       94.222       26.235        0.078      338.117       10.550      858.566
05/20/2014  17:32:00       65.653       43.341       16.420       53.925       25.044       35.003     2907.853      627.178     1225.224        0.561        0.238       78.668       27.492        0.122      338.192       10.676      858.566
05/20/2014  17:33:00        7.508       13.008       26.923       23.699       25.347       25.754      561.620      642.484      663.263        0.141        0.093       15.019       10.570        0.495      338.357       10.954      858.565
05/20/2014  17:34:00        0.918      -11.489       15.651       24.430       46.823       21.617      596.845     2192.431      467.285        0.182        0.163       11.526       18.012        2.442      338.426       11.069      858.563
05/20/2014  17:35:00       12.122      -54.936       12.753       28.393       44.637       30.245      806.167     1992.458      914.780        0.352        0.186       56.258       22.256        0.157      338.463       11.132      858.558
05/20/2014  17:36:00       -4.371      -16.443       20.173       29.398       52.777       32.576      864.227     2785.429     1061.205        0.270        0.236       17.014       21.047        1.530      338.434       11.083      858.567
05/20/2014  17:37:00       60.671       45.686       45.337       62.866       41.460       34.602     3952.177     1718.901     1197.328        0.734        0.343       75.948       29.682        0.153      338.361       10.960      858.582
05/20/2014  17:38:00       45.618       50.432       43.394       40.202       43.978       40.292     1616.216     1934.053     1623.448        0.584        0.259       68.002       23.084        0.115      338.305       10.867      858.609
05/20/2014  17:39:00       76.347       82.909       76.963       45.232       31.789       29.969     2045.972     1010.510      898.115        1.129        0.198      112.707       25.688        0.052      338.277       10.819      858.634
05/20/2014  17:40:00       42.871       64.284       73.823       48.738       38.476       28.314     2375.418     1480.419      801.673        0.804        0.233       77.268       20.876        0.073      338.217       10.720      858.665
05/20/2014  17:41:00       81.075       75.985       66.795       29.996       29.805       31.376      899.762      888.343      984.472        0.979        0.139      111.117       13.386        0.015      338.224       10.730      858.689
05/20/2014  17:42:00       53.267       41.396       31.451       46.475       37.161       26.557     2159.932     1380.906      705.294        0.489        0.212       67.461       20.929        0.096      338.205       10.698      858.689
05/20/2014  17:43:00       96.884       63.738       33.738       41.690       26.228       34.959     1738.015      687.922     1222.109        0.912        0.182      115.970       25.085        0.047      338.241       10.759      858.687
05/20/2014  17:44:00      121.316       83.246        8.438       44.740       25.689       22.528     2001.693      659.941      507.497        1.244        0.158      147.131        7.893        0.003      338.094       10.511      858.701
05/20/2014  17:45:00       86.422       70.046       29.907       31.141       24.919       34.572      969.732      620.936     1195.200        0.803        0.139      111.244       25.174        0.051      338.153       10.609      858.716
05/20/2014  17:46:00       79.341       72.084       41.252       30.452       28.565       30.962      927.333      815.945      958.649        0.795        0.135      107.197        8.444        0.006      338.163       10.627      858.732
05/20/2014  17:47:00       60.438       61.303       55.790       35.944       34.197       25.943     1291.992     1169.404      673.048        0.683        0.157       86.086       18.390        0.046      338.188       10.669      858.763
05/20/2014  17:48:00      152.017       86.187       38.229       31.623       24.823       30.337     1000.027      616.185      920.325        1.727        0.127      174.749       18.270        0.011      338.083       10.493      858.788
05/20/2014  17:49:00      103.475       68.431       25.096       30.940       28.081       31.213      957.303      788.525      974.280        0.937        0.136      124.056       14.641        0.014      338.105       10.531      858.810
05/20/2014  17:50:00       55.084       55.646       29.557       47.974       42.508       24.552     2301.480     1806.923      602.813        0.586        0.236       78.299       14.630        0.035      338.212       10.711      858.826
05/20/2014  17:51:00       92.066       79.322       51.161       57.947       37.591       48.241     3357.837     1413.073     2327.223        1.224        0.355      121.524       25.564        0.044      338.195       10.681      858.842
05/20/2014  17:52:00       72.462       90.003       76.166       73.890       48.683       46.378     5459.718     2370.032     2150.877        1.456        0.499      115.548       41.365        0.128      338.167       10.634      858.854
05/20/2014  17:53:00       18.746       63.166       93.269       50.615       49.083       40.576     2561.861     2409.144     1646.401        0.983        0.331       65.889       32.142        0.238      338.165       10.631      858.882
05/20/2014  17:54:00       88.647       58.476       52.449       85.161       48.240       54.015     7252.389     2327.137     2917.594        1.326        0.625      106.197       43.561        0.168      338.138       10.585      858.901
05/20/2014  17:55:00       85.631       67.082       64.613       64.095       44.500       40.722     4108.140     1980.237     1658.302        1.188        0.387      108.778       37.107        0.116      338.026       10.398      858.912
05/20/2014  17:56:00       59.932       64.149       70.925       49.199       38.591       35.656     2420.555     1489.281     1271.323        0.896        0.259       87.789       22.715        0.067      338.033       10.410      858.916
05/20/2014  17:57:00      132.374       81.375       59.325       47.992       30.392       34.986     2303.255      923.676     1224.026        1.606        0.223      155.386       25.390        0.027      337.984       10.328      858.915
05/20/2014  17:58:00      112.063       77.026       33.007       55.833       39.312       37.717     3117.336     1545.413     1422.554        1.283        0.304      135.982       34.340        0.064      338.000       10.354      858.941
05/20/2014  17:59:00      136.899       77.943       23.699       80.796       55.855       41.438     6528.013     3119.824     1717.109        1.837        0.568      157.532       36.315        0.053      337.990       10.337      858.978
05/20/2014  18:00:00      139.986       96.263       36.847       58.910       54.105       48.466     3470.397     2927.317     2348.932        1.948        0.437      169.889       31.141        0.034      337.918       10.215      859.009
05/20/2014  18:01:00      160.093       84.089       19.595       51.602       45.159       41.989     2662.814     2039.333     1763.054        1.977        0.323      180.834       26.334        0.021      337.867       10.130      859.014
05/20/2014  18:02:00       74.521       67.532       56.319       34.753       33.744       31.129     1207.796     1138.627      968.988        0.830        0.166      100.568       18.620        0.034      337.870       10.135      859.004
05/20/2014  18:03:00       -4.721       -2.239       25.232       37.706       36.908       21.293     1421.764     1362.233      453.372        0.195        0.162        5.225       14.710        7.926      337.941       10.253      859.003
05/20/2014  18:04:00       69.927       44.232       23.419       45.309       41.613       28.988     2052.947     1731.633      840.294        0.601        0.231       82.742       27.523        0.111      337.921       10.222      859.037
05/20/2014  18:05:00      139.795       84.260       22.726       30.809       20.022       29.674      949.185      400.893      880.568        1.469        0.112      163.225        8.680        0.003      337.873       10.140      859.057
05/20/2014  18:06:00      125.317       91.832       40.008       51.336       37.144       44.424     2635.409     1379.688     1973.449        1.586        0.299      155.362       31.679        0.042      337.856       10.112      859.059
05/20/2014  18:07:00       89.550       84.693       43.842       53.547       32.436       43.878     2867.292     1052.085     1925.269        1.148        0.292      123.256       30.876        0.063      337.819       10.050      859.054
05/20/2014  18:08:00        1.704      -20.215       34.953       32.426       50.357       30.516     1051.416     2535.783      931.203        0.307        0.226       20.287       15.662        0.596      337.960       10.288      859.045
05/20/2014  18:09:00       17.365      -74.410        4.974       34.113       35.959       30.017     1163.678     1293.020      901.003        0.461        0.168       76.409       18.941        0.061      337.961       10.288      859.019
05/20/2014  18:10:00       43.411      -79.308       -9.924       24.405       34.324       20.218      595.593     1178.128      408.761        0.523        0.109       90.412       12.043        0.018      338.063       10.459      859.012
05/20/2014  18:11:00       58.325      -36.704        2.156       55.450       20.425       40.055     3074.756      417.184     1604.415        0.492        0.255       68.913       41.333        0.360      337.925       10.228      859.013
05/20/2014  18:12:00       40.785      -37.203       -6.397       23.504       20.359       25.510      552.420      414.471      650.752        0.235        0.081       55.204       15.092        0.075      337.948       10.268      859.004
05/20/2014  18:13:00       41.683      -21.782        5.520       34.125       26.622       22.949     1164.523      708.725      526.646        0.232        0.120       47.031       22.863        0.236      337.944       10.261      859.004
05/20/2014  18:14:00       11.118       -5.823       17.423       32.444       23.563       26.115     1052.642      555.204      682.017        0.138        0.114       12.550       23.475        3.499      337.943       10.259      859.014
05/20/2014  18:15:00      -12.206       35.136       11.232       26.341       33.876       18.109      693.852     1147.591      327.928        0.184        0.108       37.196       21.941        0.348      337.983       10.325      859.021
05/20/2014  18:16:00      -14.405        3.903        8.591       16.747       12.564       17.614      280.459      157.860      310.264        0.052        0.037       14.924        9.840        0.435      338.064       10.463      859.044
05/20/2014  18:17:00        2.307        0.852        3.994       14.510       15.132        9.311      210.547      228.980       86.692        0.027        0.026        2.459        6.544        7.081      337.990       10.336      859.036
05/20/2014  18:18:00      -69.882      -24.592       -8.141       18.966       21.216       10.917      359.720      450.124      119.184        0.324        0.046       74.083        5.940        0.006      338.044       10.427      859.020
05/20/2014  18:19:00      -88.277      -32.806       -0.225       41.025       37.325       21.691     1683.091     1393.164      470.520        0.621        0.177       94.175       19.762        0.044      337.972       10.307      859.023
05/20/2014  18:20:00      -20.353      -46.654        4.132       30.908       25.049       19.821      955.297      627.437      392.861        0.229        0.099       50.900       15.331        0.091      338.057       10.448      859.015
05/20/2014  18:21:00      -54.375      -64.069        0.604       38.101       35.733       20.796     1451.659     1276.829      432.459        0.511        0.158       84.033       20.554        0.060      337.982       10.325      859.004
05/20/2014  18:22:00      -68.403      -79.527       -0.774       20.312       19.842       16.591      412.559      393.693      275.262        0.604        0.054      104.898       13.002        0.015      337.941       10.258      859.008
05/20/2014  18:23:00      -87.708      -93.422      -11.750       23.579       32.874       20.557      555.960     1080.732      422.583        0.931        0.103      128.142       18.497        0.021      337.938       10.250      858.995
05/20/2014  18:24:00     -102.571      -99.495       -6.905       33.124       33.025       18.162     1097.204     1090.659      329.864        1.149        0.126      142.899       15.721        0.012      337.965       10.295      858.970
05/20/2014  18:25:00      -72.033      -70.099        1.129       44.623       39.804       22.212     1991.227     1584.376      493.390        0.709        0.203      100.512       22.828        0.052      338.033       10.409      858.952
05/20/2014  18:26:00      -72.405      -62.544       -2.299       41.112       32.624       21.197     1690.192     1064.306      449.294        0.618        0.160       95.678       19.427        0.041      338.005       10.364      858.921
05/20/2014  18:27:00     -124.364     -109.247       -8.933       44.110       42.448       28.108     1945.659     1801.811      790.050        1.601        0.227      165.533       21.781        0.017      337.988       10.333      858.892
05/20/2014  18:28:00      -63.092      -86.418        8.857       52.364       47.741       28.129     2741.983     2279.193      791.229        0.867        0.291      106.999       19.793        0.034      338.021       10.390      858.890
05/20/2014  18:29:00      -82.992      -61.452        1.970       50.102       53.786       22.408     2510.167     2892.887      502.115        0.829        0.295      103.266       26.725        0.067      337.999       10.353      858.892
05/20/2014  18:30:00      -62.612      -35.088        8.043       43.241       35.058       21.095     1869.809     1229.090      444.978        0.438        0.177       71.774       24.191        0.114      338.046       10.431      858.901
05/20/2014  18:31:00      -62.644      -54.082        0.361       62.829       28.504       21.284     3947.483      812.459      452.991        0.603        0.261       82.759       23.195        0.079      338.116       10.548      858.899
05/20/2014  18:32:00     -110.182      -53.495        7.208       61.285       43.815       27.926     3755.795     1919.750      779.840        1.075        0.323      122.482       28.465        0.054      338.036       10.415      858.879
05/20/2014  18:33:00     -108.105      -54.147        0.180       58.524       36.132       24.111     3425.058     1305.497      581.353        0.996        0.266      120.908       26.735        0.049      338.022       10.389      858.856
05/20/2014  18:34:00      -79.641      -78.684       11.417       61.063       41.214       23.804     3728.652     1698.588      566.648        0.933        0.300      111.954       29.162        0.068      338.044       10.429      858.848
05/20/2014  18:35:00     -149.533      -73.153        1.045       62.171       46.995       32.735     3865.256     2208.569     1071.568        1.743        0.357      166.468       35.806        0.046      337.984       10.326      858.830
05/20/2014  18:36:00     -113.853     -117.779        8.141       54.029       67.630       32.418     2919.156     4573.838     1050.918        1.772        0.427      163.812       34.055        0.043      337.991       10.337      858.800
05/20/2014  18:37:00     -109.278     -120.841        7.274       60.691       52.075       35.028     3683.381     2711.801     1226.976        1.711        0.381      162.924       29.220        0.032      338.001       10.356      858.775
05/20/2014  18:38:00      -71.072     -103.279       -6.109       58.761       47.897       36.073     3452.880     2294.094     1301.244        1.140        0.352      125.371       26.628        0.045      338.051       10.440      858.756
05/20/2014  18:39:00     -106.060      -59.398       -1.315       44.816       46.133       27.145     2008.447     2128.279      736.847        0.983        0.244      121.560       21.947        0.033      337.979       10.318      858.749
05/20/2014  18:40:00      -65.228      -53.827        2.270       36.087       68.595       20.657     1302.280     4705.275      426.727        0.679        0.322       84.570       16.687        0.039      338.033       10.410      858.763
05/20/2014  18:41:00     -117.809     -168.769       -2.341       67.354       55.262       39.039     4536.612     3053.890     1524.030        2.574        0.456      205.820       37.515        0.033      337.977       10.313      858.775
05/20/2014  18:42:00      -40.204     -111.806       13.210       44.492       62.477       37.137     1979.521     3903.389     1379.173        1.078        0.363      118.815       30.777        0.067      338.007       10.366      858.779
05/20/2014  18:43:00     -102.247      -84.781        8.248       69.853       40.977       33.216     4879.469     1679.083     1103.272        1.268        0.383      132.825       33.954        0.065      337.975       10.311      858.786
05/20/2014  18:44:00     -132.668      -60.571        2.198       61.859       74.241       41.922     3826.484     5511.671     1757.436        1.618        0.555      145.841       45.469        0.097      337.960       10.286      858.802
05/20/2014  18:45:00     -133.742      -40.967        6.550       73.128       53.970       35.993     5347.686     2912.748     1295.472        1.458        0.478      139.876       30.273        0.047      337.981       10.321      858.818
05/20/2014  18:46:00      -93.648      -80.947        2.988       68.705       60.996       31.199     4720.389     3720.553      973.376        1.237        0.471      123.784       34.042        0.076      338.012       10.373      858.828
05/20/2014  18:47:00     -122.609     -125.187        2.052       72.417       51.160       29.343     5244.227     2617.343      861.026        1.971        0.436      175.227       32.796        0.035      337.991       10.338      858.833
05/20/2014  18:48:00     -145.280     -106.078        1.869       68.286       46.680       25.953     4663.029     2179.059      673.584        1.994        0.376      179.885       30.987        0.030      338.004       10.360      858.821
05/20/2014  18:49:00     -151.926      -96.190       -2.695       53.211       43.069       27.294     2831.397     1854.976      744.964        1.889        0.272      179.817       25.423        0.020      337.966       10.297      858.827
05/20/2014  18:50:00      -98.557      -73.308        2.517       45.836       38.517       25.071     2100.948     1483.568      628.553        0.965        0.211      122.832       18.733        0.023      338.030       10.404      858.826
05/20/2014  18:51:00     -139.152      -79.836      -11.272       32.843       32.606       20.148     1078.654     1063.140      405.938        1.421        0.127      160.427       15.437        0.009      337.979       10.320      858.812
05/20/2014  18:52:00      -94.031      -58.685        2.535       27.357       38.564       19.700      748.392     1487.214      388.076        0.746        0.131      110.841       10.366        0.009      338.050       10.438      858.802
05/20/2014  18:53:00      -94.886      -51.012        8.843       72.559       70.453       32.588     5264.848     4963.637     1061.976        1.148        0.565      107.729       37.118        0.119      338.062       10.456      858.782
05/20/2014  18:54:00     -113.727      -74.918        9.073       56.896       48.068       34.267     3237.209     2310.547     1174.233        1.267        0.336      136.186       29.623        0.047      338.027       10.400      858.760
05/20/2014  18:55:00      -97.598     -116.227       -9.844       48.684       63.853       29.044     2370.173     4077.156      843.550        1.521        0.365      151.770       26.024        0.029      338.008       10.367      858.743
05/20/2014  18:56:00      -97.158     -114.831        4.954       69.379       50.623       29.270     4813.505     2562.696      856.725        1.544        0.412      150.419       26.418        0.031      338.025       10.397      858.733
05/20/2014  18:57:00     -118.869      -57.357        3.635       74.936       38.927       29.457     5615.337     1515.330      867.729        1.271        0.400      131.984       32.240        0.060      338.069       10.470      858.749
05/20/2014  18:58:00     -131.117      -80.104        7.648       70.352       64.868       35.523     4949.344     4207.898     1261.883        1.704        0.521      153.650       34.789        0.051      338.058       10.450      858.770
05/20/2014  18:59:00     -159.137     -108.858        5.983       84.433       54.870       42.166     7128.958     3010.765     1777.970        2.456        0.596      192.807       42.156        0.048      338.016       10.379      858.747
05/20/2014  19:00:00      -89.004      -79.851       10.444       81.583       53.008       36.795     6655.786     2809.896     1353.857        1.261        0.541      119.574       33.813        0.080      338.072       10.475      858.685
05/20/2014  19:01:00     -117.116     -142.208       17.608       88.439       80.050       42.178     7821.398     6408.032     1778.983        2.513        0.800      184.226       47.406        0.066      338.064       10.460      858.600
05/20/2014  19:02:00     -135.319     -115.520       12.843      110.561      105.398       52.824    12223.734    11108.636     2790.374        2.897        1.306      177.922       59.087        0.110      338.023       10.391      858.536
05/20/2014  19:03:00      -77.245      -60.044        3.317       67.442       55.115       41.688     4548.475     3037.667     1737.915        0.945        0.466       97.837       39.272        0.161      338.088       10.500      858.540
05/20/2014  19:04:00      -38.981      -58.002       12.022       56.269       37.699       28.776     3166.217     1421.188      828.061        0.522        0.271       69.884       27.242        0.152      338.092       10.509      858.583
05/20/2014  19:05:00      -79.891      -50.840        5.014       87.575       51.069       31.088     7669.449     2608.000      966.484        1.012        0.562       94.695       45.200        0.228      338.097       10.516      858.600
05/20/2014  19:06:00      -72.909      -67.475        1.364       81.534       54.969       33.689     6647.747     3021.645     1134.938        1.034        0.540       99.341       35.086        0.125      338.117       10.549      858.595
05/20/2014  19:07:00     -107.429     -105.477       -1.964       97.931       81.954       40.588     9590.475     6716.492     1647.352        2.031        0.898      150.553       51.989        0.119      338.077       10.483      858.584
05/20/2014  19:08:00      -71.635      -63.459        9.765       60.008       51.019       39.280     3601.013     2602.889     1542.900        0.850        0.387       95.701       35.338        0.136      338.109       10.536      858.581
05/20/2014  19:09:00     -121.947     -133.888        1.907       89.465       85.770       48.857     8003.933     7356.536     2387.043        2.527        0.887      181.100       46.515        0.066      338.067       10.465      858.602
05/20/2014  19:10:00     -142.726      -29.777        0.500       84.348       62.012       38.427     7114.583     3845.467     1476.623        1.684        0.622      145.799       45.256        0.096      338.120       10.554      858.620
05/20/2014  19:11:00     -115.376     -153.653      -10.844       63.722       71.252       28.079     4060.533     5076.843      788.434        2.348        0.496      192.148       24.502        0.016      338.067       10.465      858.626
05/20/2014  19:12:00     -116.060     -126.052       -5.876       44.398       70.707       29.570     1971.205     4999.454      874.407        1.862        0.392      171.345       25.225        0.022      338.080       10.488      858.617
05/20/2014  19:13:00     -142.713      -84.890        3.529       69.316       54.697       32.808     4804.709     2991.775     1076.392        1.823        0.444      166.052       32.600        0.039      338.095       10.514      858.623
05/20/2014  19:14:00     -144.156     -124.270       -6.640       58.243       77.050       30.030     3392.203     5936.697      901.802        2.325        0.512      190.326       29.996        0.025      338.071       10.470      858.640
05/20/2014  19:15:00     -168.860      -49.375       -6.163       54.121       42.585       30.496     2929.057     1813.466      930.027        1.833        0.284      175.931       23.382        0.018      338.042       10.424      858.666
05/20/2014  19:16:00     -157.957      -94.864       -9.453       61.308       41.532       32.030     3758.639     1724.893     1025.895        2.027        0.325      184.254       25.354        0.019      338.074       10.477      858.687
05/20/2014  19:17:00     -153.194      -49.364       -6.064       64.077       43.938       27.817     4105.822     1930.509      773.809        1.637        0.341      160.951       14.983        0.009      338.016       10.381      858.680
05/20/2014  19:18:00     -115.346      -49.451       -7.123       58.249       34.796       24.359     3392.953     1210.771      593.384        1.050        0.260      125.500       22.091        0.031      338.029       10.402      858.696
05/20/2014  19:19:00      -89.203      -29.034      -10.919       37.424       35.246       24.383     1400.587     1242.283      594.538        0.608        0.162       93.809       17.326        0.034      338.157       10.617      858.724
05/20/2014  19:20:00      -96.197      -36.210        2.355       53.414       67.842       37.440     2853.025     4602.593     1401.744        0.971        0.443      102.787       30.969        0.091      338.202       10.693      858.748
05/20/2014  19:21:00     -202.801      -40.822      -16.055       44.358       41.687       26.469     1967.606     1737.770      700.612        2.373        0.220      206.868       17.584        0.007      338.040       10.419      858.741
05/20/2014  19:22:00      -68.289      -36.201       -2.271       47.770       45.687       32.400     2281.941     2087.272     1049.742        0.570        0.271       77.291       30.023        0.151      338.119       10.553      858.735
05/20/2014  19:23:00      -64.673      -22.710        6.615       49.164       30.134       22.906     2417.119      908.038      524.701        0.430        0.192       68.545       19.851        0.084      338.116       10.549      858.724
05/20/2014  19:24:00      -55.338      -43.975        6.930       49.412       28.683       22.462     2441.582      822.726      504.520        0.441        0.188       70.683       27.319        0.149      338.195       10.682      858.713
05/20/2014  19:25:00      -17.013       -3.365       13.070       27.887       32.526       22.285      777.697     1057.953      496.613        0.140        0.117       17.343       23.316        1.808      338.180       10.656      858.702
05/20/2014  19:26:00      -90.164      -39.477       -4.992       41.733       25.496       18.748     1741.611      650.051      351.484        0.623        0.137       98.428       18.969        0.037      338.092       10.508      858.671
05/20/2014  19:27:00     -127.948      -19.976       -4.323       48.447       49.315       28.267     2347.065     2431.980      799.033        1.118        0.279      129.498       26.549        0.042      338.107       10.533      858.631
05/20/2014  19:28:00     -124.749        5.305       -8.454       38.325       32.132       22.712     1468.815     1032.454      515.857        0.934        0.151      124.862       17.060        0.019      338.035       10.413      858.599
05/20/2014  19:29:00      -80.531       -5.252       -8.223       27.089       18.175       16.887      733.814      330.346      285.175        0.396        0.067       80.702        9.579        0.014      338.012       10.375      858.575
05/20/2014  19:30:00      -90.490      -27.044      -14.018       16.060       29.472       13.162      257.939      868.579      173.237        0.521        0.065       94.445       12.617        0.018      338.032       10.406      858.560
05/20/2014  19:31:00      -62.889      -34.750       -3.491       34.677       24.140       15.740     1202.512      582.720      247.755        0.360        0.102       71.851       12.258        0.029      338.123       10.560      858.551
05/20/2014  19:32:00      -75.466      -28.702       -7.641       21.527       21.964       17.246      463.432      482.435      297.422        0.391        0.062       80.740       14.416        0.032      338.077       10.483      858.555
05/20/2014  19:33:00      -52.359      -65.376       -1.799       19.553       27.777       15.175      382.304      771.543      230.274        0.420        0.069       83.758       10.419        0.015      338.100       10.522      858.565
05/20/2014  19:34:00      -47.174      -23.138        0.415       18.623       18.356       13.626      346.826      336.930      185.671        0.181        0.043       52.543        9.388        0.032      338.150       10.606      858.589
05/20/2014  19:35:00       -0.539        0.278       13.807       28.419       24.565       17.483      807.618      603.440      305.651        0.095        0.086        0.606       11.994      391.183      338.269       10.807      858.634
05/20/2014  19:36:00      -34.007        0.538       -5.607       27.713       30.271       16.737      768.004      916.355      280.127        0.158        0.098       34.011       13.255        0.152      338.314       10.881      858.670
05/20/2014  19:37:00      -77.338       19.008      -12.062       19.184       29.328       15.104      368.014      860.144      228.143        0.397        0.073       79.640        7.493        0.009      338.359       10.957      858.684
05/20/2014  19:38:00      -53.766       36.353       -8.658       21.289       37.758       13.010      453.230     1425.653      169.249        0.317        0.102       64.902       11.576        0.032      338.284       10.832      858.689
05/20/2014  19:39:00     -138.871        3.431      -18.704       33.777       31.581       23.003     1140.901      997.345      529.160        1.116        0.133      138.914       19.118        0.019      338.324       10.900      858.679
05/20/2014  19:40:00     -122.894      -47.247      -17.448       56.423       42.718       13.542     3183.549     1824.805      183.387        1.141        0.260      131.663       17.035        0.017      338.105       10.530      858.661
05/20/2014  19:41:00      -44.825      -30.429        6.615       33.602       21.267       17.671     1129.084      452.281      312.254        0.244        0.095       54.178       19.247        0.126      338.214       10.714      858.655
05/20/2014  19:42:00      -47.266      -41.391        3.960       45.169       38.541       28.256     2040.233     1485.375      798.396        0.414        0.216       62.828       32.568        0.269      338.353       10.947      858.651
05/20/2014  19:43:00      -39.117      -30.466        6.902       33.269       33.007       22.096     1106.795     1089.441      488.252        0.259        0.134       49.582       21.886        0.195      338.357       10.953      858.622
05/20/2014  19:44:00      -50.074      -45.485        6.027       37.189       30.374       16.850     1383.006      922.562      283.928        0.360        0.129       67.648       13.288        0.039      338.285       10.833      858.587
05/20/2014  19:45:00     -122.092      -48.599        2.989       45.275       50.152       22.203     2049.852     2515.202      492.965        1.117        0.253      131.409       23.170        0.031      338.253       10.779      858.539
05/20/2014  19:46:00     -127.182      -84.232       -1.050       40.868       39.441       25.510     1670.225     1555.592      650.775        1.357        0.194      152.546       17.665        0.013      338.234       10.747      858.484
05/20/2014  19:47:00     -168.992     -120.920        2.095       83.164       47.526       36.844     6916.328     2258.719     1357.469        2.686        0.527      207.798       33.658        0.026      338.224       10.726      858.428
05/20/2014  19:48:00     -162.186     -113.040       -0.517       77.442       62.357       45.472     5997.312     3888.448     2067.707        2.552        0.598      197.693       39.334        0.040      338.259       10.788      858.379
05/20/2014  19:49:00     -210.969     -156.404        1.052       95.398       78.195       50.627     9100.870     6114.532     2563.081        4.337        0.889      262.622       53.491        0.041      338.276       10.814      858.345
05/20/2014  19:50:00     -245.449     -142.963       -4.871       81.534       72.176       42.792     6647.758     5209.436     1831.153        4.720        0.684      284.049       30.302        0.011      338.264       10.795      858.311
05/20/2014  19:51:00     -229.068     -114.421        7.622       94.869       77.514       45.230     9000.075     6008.369     2045.721        4.133        0.853      256.056       48.204        0.035      338.263       10.793      858.296
05/20/2014  19:52:00     -206.442      -98.411        3.522      119.805       94.863       41.614    14353.286     8998.905     1731.752        3.869        1.254      228.699       51.172        0.050      338.280       10.822      858.290
05/20/2014  19:53:00     -251.478     -142.014       -6.498      109.954       85.357       59.692    12089.905     7285.740     3563.149        5.319        1.147      288.807       58.597        0.041      338.269       10.804      858.302
05/20/2014  19:54:00     -187.812     -113.271       -6.626      109.695       78.268       51.920    12032.916     6125.909     2695.708        3.450        1.043      219.326       44.270        0.041      338.295       10.848      858.331
05/20/2014  19:55:00     -109.915       -4.772       12.157       69.600       66.293       42.473     4844.210     4394.771     1803.954        1.165        0.552      110.019       40.803        0.138      338.454       11.117      858.373
05/20/2014  19:56:00     -123.630       -4.104       10.062       67.718       63.871       46.438     4585.712     4079.535     2156.516        1.311        0.541      123.698       43.435        0.123      338.468       11.139      858.407
05/20/2014  19:57:00     -158.426      -56.040      -12.569       64.039       40.885       24.053     4100.970     1671.599      578.550        1.737        0.318      168.045       20.923        0.016      338.275       10.814      858.440
05/20/2014  19:58:00      -46.539      -27.994        9.327       45.346       44.409       22.370     2056.257     1972.177      500.437        0.378        0.226       54.309       27.576        0.258      338.274       10.814      858.466
05/20/2014  19:59:00     -113.865      -23.926       -9.315       46.396       51.814       23.144     2152.556     2684.643      535.625        0.950        0.269      116.352       21.772        0.035      338.287       10.835      858.489
05/20/2014  20:00:00      -66.408        8.631       11.584       48.826       36.700       19.594     2383.996     1346.880      383.915        0.437        0.206       66.966       22.414        0.112      338.305       10.868      858.510
05/20/2014  20:01:00       -6.750      -33.347       -1.736       19.869       15.409       16.512      394.758      237.440      272.653        0.103        0.045       34.024       10.183        0.090      338.323       10.897      858.532
05/20/2014  20:02:00       -0.070      -49.687        8.566       23.730       31.635       16.539      563.123     1000.795      273.522        0.219        0.092       49.687       12.446        0.063      338.362       10.961      858.559
05/20/2014  20:03:00      -11.955      -13.569       13.162       45.725       15.376       24.188     2090.762      236.434      585.040        0.171        0.146       18.084       24.517        1.838      338.458       11.122      858.585
05/20/2014  20:04:00      -45.443      -18.742        2.223       35.173       24.614       27.390     1237.156      605.828      750.225        0.251        0.130       49.156       19.575        0.159      338.581       11.329      858.615
05/20/2014  20:05:00      -90.147      -12.353       -8.603       69.146       26.500       21.537     4781.122      702.241      463.830        0.715        0.297       90.989       30.657        0.114      338.416       11.053      858.650
05/20/2014  20:06:00        6.113       13.014        8.303       28.587       25.648       19.145      817.213      657.835      366.546        0.106        0.092       14.378        8.067        0.315      338.383       10.997      858.665
05/20/2014  20:07:00      -39.671      -24.392        6.274       46.411       36.904       21.660     2154.008     1361.916      469.137        0.310        0.199       46.570       26.111        0.314      338.412       11.046      858.668
05/20/2014  20:08:00      -86.879      -17.190       -3.076       49.402       32.583       24.012     2440.521     1061.625      576.593        0.597        0.204       88.563       26.365        0.089      338.390       11.010      858.670
05/20/2014  20:09:00      -64.137      -10.229       -5.403       43.902       29.592       17.111     1927.382      875.672      292.796        0.367        0.155       64.948       19.650        0.092      338.437       11.087      858.655
05/20/2014  20:10:00     -123.915      -55.102      -13.491       35.815       38.802       23.395     1282.738     1505.604      547.332        1.095        0.167      135.614       19.373        0.020      338.340       10.925      858.628
05/20/2014  20:11:00     -130.717      -50.013        4.299       68.048       68.733       37.062     4630.481     4724.192     1373.565        1.517        0.536      139.958       35.402        0.064      338.289       10.838      858.592
05/20/2014  20:12:00      -77.869      -89.380       -2.671       40.434       35.759       20.882     1634.872     1278.686      436.066        0.870        0.167      118.542       22.438        0.036      338.356       10.952      858.563
05/20/2014  20:13:00      -65.097      -51.655       11.289       42.316       49.952       31.308     1790.639     2495.204      980.160        0.615        0.263       83.101       28.109        0.114      338.390       11.009      858.525
05/20/2014  20:14:00      -73.301      -61.852        5.467       69.685       42.431       30.579     4856.069     1800.365      935.091        0.841        0.380       95.910       33.271        0.120      338.360       10.958      858.494
05/20/2014  20:15:00     -160.788      -85.494      -11.206       35.360       58.210       22.154     1250.316     3388.382      490.819        1.921        0.256      182.104       14.515        0.006      338.309       10.871      858.478
05/20/2014  20:16:00     -125.985      -91.620       -0.561       52.688       48.110       33.642     2776.028     2314.572     1131.752        1.524        0.311      155.777       19.353        0.015      338.323       10.896      858.470
05/20/2014  20:17:00     -112.105      -64.391       -0.477       96.504       72.986       40.650     9313.018     5326.890     1652.403        1.650        0.815      129.282       54.720        0.179      338.343       10.930      858.459
05/20/2014  20:18:00      -66.726      -21.275        2.122       48.395       31.195       26.272     2342.085      973.152      690.220        0.446        0.200       70.036       26.469        0.143      338.314       10.880      858.470
05/20/2014  20:19:00      -64.435       19.452        8.265       58.148       39.897       24.643     3381.146     1591.775      607.295        0.509        0.279       67.307       22.415        0.111      338.406       11.036      858.477
05/20/2014  20:20:00     -108.178       17.106        0.011       49.050       43.849       34.009     2405.883     1922.772     1156.598        0.874        0.274      109.522       30.697        0.079      338.508       11.207      858.487
05/20/2014  20:21:00      -77.829        1.809        4.886       51.137       34.516       24.793     2614.983     1191.339      614.686        0.525        0.221       77.850       25.317        0.106      338.368       10.973      858.497
05/20/2014  20:22:00      -14.649      -35.565        0.042       59.198       39.614       32.457     3504.449     1569.295     1053.444        0.380        0.306       38.464       30.713        0.638      338.369       10.973      858.498
05/20/2014  20:23:00        1.591      -25.790       -4.518       38.127       32.061       24.918     1453.700     1027.907      620.896        0.189        0.155       25.839        9.839        0.145      338.400       11.025      858.492
05/20/2014  20:24:00      -39.802        5.228       -9.024       23.312       18.341       13.670      543.431      336.384      186.878        0.138        0.053       40.143       10.492        0.068      338.434       11.083      858.506
05/20/2014  20:25:00      -80.755      -54.265      -13.300       39.445       19.938       11.430     1555.920      397.512      130.638        0.586        0.104       97.294        8.231        0.007      338.367       10.971      858.513
05/20/2014  20:26:00      -58.315      -33.282        0.976       31.515       21.837       16.913      993.195      476.854      286.033        0.313        0.088       67.144        4.416        0.004      338.337       10.917      858.503
05/20/2014  20:27:00      -81.818       -4.028       -2.215       23.677       20.869       17.738      560.595      435.503      314.619        0.401        0.066       81.917       13.219        0.026      338.313       10.878      858.475
05/20/2014  20:28:00      -30.864      -20.661        4.700       32.139       26.286       14.282     1032.894      690.942      203.967        0.166        0.096       37.141       17.720        0.228      338.373       10.981      858.438
05/20/2014  20:29:00      -27.640      -78.658        1.041       28.226       22.204       18.094      796.713      493.032      327.379        0.428        0.081       83.373       15.588        0.035      338.408       11.039      858.409
05/20/2014  20:30:00      -39.704      -28.387       -5.908       37.356       25.389       12.487     1395.500      644.615      155.925        0.231        0.110       48.808        5.736        0.014      338.384       10.999      858.389
05/20/2014  20:31:00      -18.392      -13.688       12.259       33.188       25.275       18.767     1101.471      638.838      352.185        0.138        0.105       22.927       18.273        0.635      338.380       10.991      858.377
05/20/2014  20:32:00       -3.314       22.162       61.089       22.697       50.164       25.213      515.166     2516.475      635.717        0.395        0.183       22.408       22.830        1.038      338.301       10.859      858.375
05/20/2014  20:33:00       12.628        0.495       42.757       35.067       52.035       32.034     1229.711     2707.671     1026.205        0.347        0.248       12.638       32.221        6.500      338.348       10.939      858.379
05/20/2014  20:34:00       -2.410      -35.070       10.557       29.715       33.258       25.310      882.969     1106.107      640.598        0.199        0.131       35.153       19.157        0.297      338.397       11.020      858.389
05/20/2014  20:35:00      -31.373      -44.285        7.055       18.960       19.609       16.292      359.496      384.529      265.427        0.200        0.050       54.271        9.681        0.032      338.461       11.128      858.399
05/20/2014  20:36:00      -10.832       -1.938        8.179       29.979       18.009       19.158      898.736      324.334      367.019        0.089        0.080       11.004       16.076        2.134      338.440       11.094      858.412
05/20/2014  20:37:00      -51.809      -32.414       10.618       37.078       34.132       22.335     1374.771     1164.988      498.845        0.344        0.152       61.113       13.991        0.052      338.453       11.116      858.426
05/20/2014  20:38:00      -25.612      -11.164        1.342       37.297       26.079       19.802     1391.031      680.128      392.108        0.162        0.123       27.939       15.086        0.292      338.388       11.006      858.437
05/20/2014  20:39:00      -61.438      -33.306       -3.280       40.874       21.459       13.802     1670.700      460.474      190.496        0.361        0.116       69.885        8.242        0.014      338.442       11.095      858.449
05/20/2014  20:40:00      -51.211      -32.949       12.576       48.404       37.456       20.217     2342.984     1402.921      408.730        0.401        0.208       60.895       22.024        0.131      338.415       11.052      858.462
05/20/2014  20:41:00      -90.458      -47.457       -4.626       32.303       23.516       20.713     1043.510      552.987      429.045        0.624        0.101      102.151       13.771        0.018      338.422       11.062      858.475
05/20/2014  20:42:00     -104.547      -79.585       -8.871       26.611       37.419       18.540      708.162     1400.211      343.748        0.990        0.123      131.392       14.253        0.012      338.385       11.000      858.488
05/20/2014  20:43:00      -43.536      -66.013        1.632       33.196       27.614       24.016     1101.973      762.544      576.749        0.435        0.122       79.077       25.690        0.106      338.396       11.019      858.493
05/20/2014  20:44:00      -55.425      -72.628       -6.016       26.536       24.400       19.646      704.167      595.343      385.953        0.503        0.084       91.360       13.178        0.021      338.418       11.054      858.497
05/20/2014  20:45:00      -41.320      -44.091       -6.434       37.221       33.231       17.430     1385.435     1104.284      303.808        0.324        0.140       60.426       16.249        0.072      338.456       11.120      858.515
05/20/2014  20:46:00      -14.870       10.707       10.692       18.131       23.675       15.432      328.747      560.485      238.147        0.079        0.056       18.324       14.342        0.613      338.408       11.040      858.536
05/20/2014  20:47:00        5.404       29.823        4.095       21.152       20.811       22.086      447.406      433.115      487.777        0.115        0.068       30.308       10.694        0.125      338.379       10.990      858.556
05/20/2014  20:48:00       17.392      -25.885        2.117       59.266       36.489       21.363     3512.464     1331.477      456.365        0.314        0.265       31.185       26.666        0.731      338.370       10.978      858.580
05/20/2014  20:49:00       25.561       11.779       39.458       45.244       34.773       28.635     2047.016     1209.151      819.950        0.321        0.204       28.144       27.079        0.926      338.389       11.008      858.584
05/20/2014  20:50:00       36.569      -49.476       21.719       49.179       53.077       36.573     2418.610     2817.131     1337.566        0.541        0.329       61.524       36.657        0.355      338.381       10.994      858.576
05/20/2014  20:51:00        9.207        7.443       36.088       27.254       47.414       23.382      742.755     2248.108      546.697        0.249        0.177       11.840       27.483        5.388      338.332       10.913      858.578
05/20/2014  20:52:00      -21.466        4.094       13.870       34.992       40.563       27.522     1224.429     1645.321      757.478        0.215        0.181       21.853       14.117        0.417      338.282       10.828      858.591
05/20/2014  20:53:00       40.606       39.969       34.346       71.187       45.543       19.002     5067.586     2074.147      361.079        0.596        0.375       56.977       11.846        0.043      338.170       10.640      858.617
05/20/2014  20:54:00       84.326       72.069       63.488       41.689       36.664       34.966     1737.991     1344.228     1222.635        1.032        0.215      110.927       24.966        0.051      338.073       10.477      858.627
05/20/2014  20:55:00       46.894       64.009       78.377       51.113       43.028       29.595     2612.541     1851.451      875.847        0.889        0.267       79.348       18.223        0.053      338.062       10.459      858.629
05/20/2014  20:56:00       18.941       29.718       41.669       34.102       40.308       26.009     1162.926     1624.709      676.465        0.322        0.173       35.241       21.338        0.367      338.082       10.492      858.619
05/20/2014  20:57:00       68.220     -101.953        5.623      108.032       76.183       44.875    11670.927     5803.795     2013.808        1.728        0.974      122.672       45.510        0.138      338.174       10.644      858.585
05/20/2014  20:58:00      143.490     -159.295      -24.731       59.075       49.974       34.248     3489.907     2497.426     1172.916        2.687        0.358      214.392       24.688        0.013      338.174       10.642      858.562
05/20/2014  20:59:00      107.659     -143.747      -18.371       45.451       40.899       24.686     2065.773     1672.700      609.397        1.847        0.217      179.593       21.840        0.015      338.159       10.620      858.547
05/20/2014  21:00:00      108.732     -135.165      -20.501       56.973       59.759       35.093     3245.918     3571.121     1231.532        1.928        0.402      173.471       25.291        0.021      338.162       10.624      858.525
05/20/2014  21:01:00      121.230     -144.671      -46.422       65.675       69.543       38.069     4313.227     4836.165     1449.268        2.419        0.530      188.749       17.827        0.009      338.112       10.539      858.496
05/20/2014  21:02:00      -15.936      -46.776       18.024       49.096       68.989       38.205     2410.401     4759.454     1459.617        0.570        0.431       49.416       28.278        0.327      338.220       10.723      858.470
05/20/2014  21:03:00       11.258      -41.116       19.490       34.230       48.213       34.369     1171.662     2324.505     1181.219        0.344        0.234       42.630       37.324        0.767      338.299       10.857      858.445
05/20/2014  21:04:00       -8.802      -76.738       -3.342       49.694       46.027       36.112     2469.528     2118.525     1304.045        0.593        0.295       77.242       27.059        0.123      338.298       10.854      858.431
05/20/2014  21:05:00     -107.436      -48.670       -1.625       72.411       41.884       32.933     5243.287     1754.233     1084.607        1.100        0.404      117.946       24.070        0.042      338.196       10.682      858.437
05/20/2014  21:06:00     -112.684      -68.075       -2.165       52.068       50.624       33.211     2711.105     2562.758     1102.967        1.186        0.319      131.651       23.202        0.031      338.145       10.597      858.474
05/20/2014  21:07:00     -116.345      -61.918        5.077       62.671       47.646       33.272     3927.629     2270.150     1107.029        1.235        0.365      131.796       32.553        0.061      338.144       10.597      858.515
05/20/2014  21:08:00     -113.179      -93.739        4.853       64.034       45.176       33.580     4100.342     2040.838     1127.642        1.444        0.363      146.958       35.531        0.058      338.091       10.506      858.552
05/20/2014  21:09:00     -115.290      -98.597        7.669       66.962       65.719       37.565     4483.929     4318.943     1411.135        1.664        0.511      151.701       33.396        0.048      338.082       10.490      858.575
05/20/2014  21:10:00     -102.479      -54.922       13.558       76.058       43.564       38.017     5784.744     1897.826     1445.324        1.141        0.456      116.268       38.489        0.110      338.067       10.467      858.596
05/20/2014  21:11:00     -108.944     -158.314        0.830       65.224       80.941       34.520     4254.235     6551.390     1191.641        2.446        0.600      192.177       39.130        0.041      338.014       10.376      858.604
05/20/2014  21:12:00      -78.276     -121.790       -3.502       58.798       73.153       31.867     3457.214     5351.298     1015.525        1.540        0.491      144.775       31.349        0.047      338.012       10.374      858.595
05/20/2014  21:13:00      -87.531     -131.641       -2.901       65.060       54.787       38.362     4232.815     3001.645     1471.674        1.685        0.435      158.086       35.856        0.051      337.998       10.351      858.599
05/20/2014  21:14:00      -58.617      -85.116      -14.007       37.372       58.219       23.334     1396.651     3389.422      544.481        0.810        0.267      103.348       24.169        0.055      338.021       10.389      858.582
05/20/2014  21:15:00      -29.385      -28.354        6.805       50.952       22.923       23.166     2596.114      525.479      536.652        0.269        0.183       40.834       22.002        0.290      338.034       10.412      858.548
05/20/2014  21:16:00      -37.714      -37.013        5.407       53.588       31.390       29.248     2871.682      985.320      855.441        0.377        0.236       52.843       21.974        0.173      338.047       10.433      858.513
05/20/2014  21:17:00      -40.857      -53.309        8.031       37.345       37.930       23.325     1394.640     1438.707      544.046        0.398        0.169       67.166       23.252        0.120      338.015       10.378      858.485
05/20/2014  21:18:00      -49.366      -53.075       -9.996       54.150       40.504       27.522     2932.169     1640.584      757.473        0.534        0.267       72.484       21.675        0.089      338.015       10.380      858.453
05/20/2014  21:19:00      -47.406      -74.627      -10.859       39.710       48.588       25.220     1576.888     2360.790      636.051        0.625        0.229       88.412       25.495        0.083      338.059       10.454      858.415
05/20/2014  21:20:00      -48.613      -33.583        1.763       42.025       33.089       23.740     1766.142     1094.883      563.578        0.346        0.171       59.085       21.592        0.134      338.042       10.425      858.393
05/20/2014  21:21:00       -7.333        0.459        8.623       48.979       37.152       30.790     2398.948     1380.265      948.014        0.243        0.236        7.347       28.709       15.269      338.021       10.388      858.384
05/20/2014  21:22:00      -32.306      -32.557       -9.958       26.119       29.603       17.175      682.212      876.347      294.967        0.203        0.093       45.865        9.578        0.044      338.104       10.530      858.396
05/20/2014  21:23:00      -26.552      -25.656       -8.481       17.253       21.588       13.532      297.676      466.057      183.112        0.119        0.047       36.922        3.470        0.009      338.068       10.470      858.422
05/20/2014  21:24:00      -10.885       -9.015       10.560       24.974       21.940       17.112      623.716      481.347      292.831        0.085        0.070       14.134       14.192        1.008      338.021       10.389      858.443
05/20/2014  21:25:00      -40.557      -56.106       -3.957       40.607       73.021       18.355     1648.910     5332.078      336.907        0.606        0.366       69.229       12.758        0.034      337.990       10.338      858.445
05/20/2014  21:26:00        2.044      -32.695       19.077       42.751       34.132       24.648     1827.687     1164.968      607.530        0.252        0.180       32.759       24.308        0.551      337.997       10.349      858.436
05/20/2014  21:27:00      -18.668       -5.246        5.688       32.765       22.883       20.793     1073.570      523.614      432.329        0.122        0.101       19.391       14.844        0.586      338.079       10.486      858.430
05/20/2014  21:28:00      -24.194       -6.786       -6.307       37.582       25.873       15.581     1412.440      669.425      242.752        0.150        0.116       25.128        3.628        0.021      338.035       10.413      858.421
05/20/2014  21:29:00      -19.341      -60.170      -15.382       34.285       34.317       21.374     1175.446     1177.637      456.835        0.352        0.140       63.202       19.994        0.100      338.064       10.464      858.411
05/20/2014  21:30:00      -11.511      -37.263        5.704       22.689       24.558       21.819      514.787      603.118      476.067        0.157        0.080       39.000       10.565        0.073      338.078       10.485      858.409
05/20/2014  21:31:00      -19.897      -21.111       29.284       37.410       47.065       26.153     1399.500     2215.158      683.985        0.300        0.215       29.009       29.400        1.027      338.021       10.390      858.412
05/20/2014  21:32:00      -52.372     -101.961        0.562       56.729       61.146       43.217     3218.137     3738.780     1867.718        1.098        0.441      114.625       25.208        0.048      338.117       10.551      858.432
05/20/2014  21:33:00       36.985      -33.548       24.206       52.100       81.630       41.566     2714.368     6663.399     1727.695        0.709        0.555       49.934       47.128        0.891      338.180       10.655      858.452
05/20/2014  21:34:00        1.053       60.097       73.921       36.762       43.655       34.068     1351.424     1905.784     1160.611        0.675        0.221       60.106       29.744        0.245      337.912       10.208      858.467
05/20/2014  21:35:00       -0.854       16.446       58.719       19.959       37.120       19.815      398.348     1377.887      392.622        0.294        0.108       16.468       12.422        0.569      337.927       10.232      858.485
05/20/2014  21:36:00      -19.102      -13.889        8.973       21.822       36.992       24.677      476.192     1368.388      608.968        0.155        0.123       23.617       17.025        0.520      337.951       10.273      858.497
05/20/2014  21:37:00       13.407      -13.842       31.570       41.967       57.897       43.443     1761.256     3352.039     1887.275        0.418        0.350       19.271       46.808        5.900      337.886       10.164      858.504
05/20/2014  21:38:00       36.584      -18.320       26.281       37.251       45.529       37.315     1387.624     2072.904     1392.435        0.361        0.243       40.914       38.565        0.888      337.875       10.144      858.511
05/20/2014  21:39:00       -2.610       20.191       42.982       30.113       16.939       21.421      906.822      286.926      458.874        0.196        0.083       20.359       12.380        0.370      337.831       10.070      858.538
05/20/2014  21:40:00       -8.313        3.466       35.765       15.801       32.011       24.024      249.679     1024.706      577.175        0.161        0.093        9.007       18.492        4.215      337.933       10.242      858.571
05/20/2014  21:41:00      -14.746      -49.065        7.301       35.814       31.680       25.553     1282.675     1003.623      652.972        0.281        0.147       51.233       24.054        0.220      337.992       10.342      858.592
05/20/2014  21:42:00       10.212       -2.795       18.604       16.405       15.223       16.102      269.115      231.732      259.285        0.061        0.038       10.588       13.347        1.589      337.911       10.207      858.601
05/20/2014  21:43:00      -20.746       12.427        0.902       14.645        9.489       13.800      214.477       90.034      190.443        0.054        0.025       24.183        7.203        0.089      337.875       10.145      858.593
05/20/2014  21:44:00      -16.987        5.681        5.386       15.008       16.605       15.504      225.242      275.734      240.381        0.055        0.037       17.912       11.397        0.405      337.892       10.173      858.581
05/20/2014  21:45:00      -18.815      -32.436        8.482       24.138       28.607       20.772      582.623      818.352      431.485        0.165        0.092       37.498       14.488        0.149      338.029       10.404      858.576
05/20/2014  21:46:00      -16.199      -26.175        5.068       28.389       29.785       16.919      805.919      887.135      286.247        0.148        0.099       30.782       14.320        0.216      338.007       10.367      858.594
05/20/2014  21:47:00      -19.766      -13.099        1.711       43.086       27.117       20.967     1856.409      735.325      439.603        0.180        0.152       23.712       25.804        1.184      337.930       10.237      858.613
05/20/2014  21:48:00      -32.408      -71.256        5.857       36.743       30.510       25.732     1350.060      930.869      662.130        0.455        0.147       78.280       14.278        0.033      337.950       10.272      858.622
05/20/2014  21:49:00      -16.014       -7.229       11.728       43.084       40.241       18.265     1856.195     1619.314      333.624        0.213        0.190       17.570       17.373        0.978      337.891       10.169      858.613
05/20/2014  21:50:00       47.894       34.368       11.575       29.184       20.049       24.442      851.719      401.971      597.416        0.273        0.093       58.949       15.714        0.071      337.729        9.900      858.600
05/20/2014  21:51:00      -10.157        5.547        3.060       19.382       24.150       15.730      375.680      583.227      247.447        0.067        0.060       11.572       11.976        1.071      337.647        9.762      858.572
05/20/2014  21:52:00        0.996       28.402       44.677       19.122       22.456       22.390      365.641      504.289      501.333        0.209        0.069       28.419       12.646        0.198      337.661        9.786      858.542
05/20/2014  21:53:00        1.132       -8.254       22.519       13.354       26.182       17.996      178.342      685.508      323.842        0.088        0.059        8.332       15.304        3.374      337.716        9.877      858.545
05/20/2014  21:54:00       -7.690       19.593       37.681       17.962       22.350       17.406      322.622      499.531      302.962        0.149        0.056       21.048       14.372        0.466      337.730        9.902      858.539
05/20/2014  21:55:00      -35.368      -18.977        1.681       39.460       14.345       15.785     1557.102      205.786      249.163        0.181        0.101       40.137       11.405        0.081      337.784        9.991      858.528
05/20/2014  21:56:00      -52.992      -15.552       30.267       62.708       28.491       28.306     3932.265      811.712      801.251        0.475        0.277       55.227       28.568        0.268      337.771        9.969      858.513
05/20/2014  21:57:00      -18.590      -26.178       11.207       32.169       18.423       15.053     1034.864      339.413      226.603        0.138        0.080       32.107       16.088        0.251      337.843       10.092      858.502
05/20/2014  21:58:00      -30.639      -32.930        5.693       36.624       26.687       19.517     1341.284      712.221      380.929        0.224        0.122       44.980       14.403        0.103      337.870       10.136      858.481
05/20/2014  21:59:00      -19.369      -28.704        7.501       35.781       29.099       20.217     1280.306      846.729      408.725        0.190        0.127       34.627       22.850        0.435      337.871       10.137      858.477
05/20/2014  22:00:00      -12.322      -37.253        3.495       31.064       36.462       18.477      964.945     1329.492      341.410        0.209        0.132       39.238       19.436        0.245      337.902       10.190      858.472
05/20/2014  22:01:00      -12.597      -49.820      -11.519       31.301       34.077       20.939      979.733     1161.247      438.455        0.268        0.129       51.388       20.543        0.160      337.932       10.241      858.459
05/20/2014  22:02:00      -56.753      -39.915        3.644       61.069       29.263       23.022     3729.469      856.316      530.021        0.497        0.256       69.384       23.307        0.113      337.946       10.263      858.457
05/20/2014  22:03:00      -12.882       -0.768        1.666       30.301       30.536       14.376      918.121      932.443      206.675        0.111        0.103       12.905       13.348        1.070      337.944       10.262      858.497
05/20/2014  22:04:00      -15.866      -38.002      -13.850       46.595       40.447       25.278     2171.055     1635.987      638.985        0.317        0.222       41.181       24.940        0.367      337.984       10.328      858.528
05/20/2014  22:05:00       -3.694      -22.552        7.092       30.717       36.621       31.121      943.557     1341.066      968.516        0.191        0.163       22.852       13.771        0.363      338.027       10.400      858.537
05/20/2014  22:06:00      -16.085      -59.974       11.449       28.564       47.479       36.363      815.880     2254.247     1322.272        0.419        0.220       62.093       32.468        0.273      338.009       10.370      858.550
05/20/2014  22:07:00      -33.323      -63.314        6.371       44.909       44.837       25.407     2016.798     2010.399      645.532        0.492        0.234       71.548       24.511        0.117      337.997       10.348      858.568
05/20/2014  22:08:00      -37.748      -27.618       15.746       62.086       38.074       25.569     3854.720     1449.659      653.799        0.420        0.298       46.772       27.042        0.334      337.934       10.244      858.552
05/20/2014  22:09:00      -53.929      -57.718        6.184       65.689       45.483       28.253     4315.055     2068.722      798.217        0.673        0.359       78.992       33.666        0.182      337.889       10.168      858.528
05/20/2014  22:10:00      -93.346      -99.469       -6.955       44.556       36.134       23.410     1985.227     1305.687      548.008        1.125        0.192      136.410       20.878        0.023      337.798       10.018      858.486
05/20/2014  22:11:00      -84.719     -132.772       -3.090       53.313       47.640       31.732     2842.289     2269.578     1006.888        1.547        0.306      157.499       11.265        0.005      337.829       10.068      858.452
05/20/2014  22:12:00       -9.962      -24.296        5.594       39.477       33.988       25.014     1558.444     1155.168      625.710        0.203        0.167       26.259       18.588        0.501      337.902       10.189      858.439
05/20/2014  22:13:00      -28.476      -22.908        2.462       43.955       31.175       21.342     1932.072      971.858      455.478        0.235        0.168       36.547       18.682        0.261      337.851       10.104      858.439
05/20/2014  22:14:00      -21.380      -35.298       -6.532       39.420       46.750       26.171     1553.915     2185.528      684.915        0.308        0.221       41.268       31.139        0.569      337.863       10.126      858.443
05/20/2014  22:15:00      -46.026      -93.835        8.545       51.105       56.353       29.229     2611.746     3175.629      854.311        0.882        0.332      104.515       29.863        0.082      337.901       10.189      858.434
05/20/2014  22:16:00      -97.155     -136.307       -0.157       58.156       56.612       30.816     3382.102     3204.922      949.632        1.778        0.377      167.388       24.004        0.021      337.814       10.041      858.408
05/20/2014  22:17:00     -102.633     -158.855       -1.470       55.987       85.349       35.334     3134.517     7284.466     1248.520        2.372        0.583      189.125       31.705        0.028      337.808       10.031      858.374
05/20/2014  22:18:00     -126.017      -72.544       -4.313       40.055       39.453       27.762     1604.423     1556.519      770.704        1.255        0.197      145.406       10.433        0.005      337.776        9.978      858.367
05/20/2014  22:19:00      -89.828      -50.130        3.966       50.051       30.815       29.316     2505.074      949.554      859.446        0.746        0.216      102.869       20.927        0.041      337.778        9.981      858.382
05/20/2014  22:20:00      -87.296     -106.479       -6.650       43.185       55.718       20.297     1864.941     3104.440      411.958        1.219        0.269      137.690       23.181        0.028      337.741        9.920      858.407
05/20/2014  22:21:00      -84.381      -63.160       -5.716       32.020       34.984       19.596     1025.277     1223.912      383.992        0.689        0.132      105.401       11.143        0.011      337.748        9.932      858.407
05/20/2014  22:22:00      -69.688     -141.109        0.123       35.193       70.161       30.010     1238.522     4922.584      900.575        1.591        0.353      157.379       18.564        0.014      337.733        9.905      858.386
05/20/2014  22:23:00      -72.065     -142.010       -2.168       43.127       46.609       26.815     1859.950     2172.421      719.033        1.506        0.238      159.249       18.104        0.013      337.687        9.829      858.357
05/20/2014  22:24:00      -37.098      -78.931        7.083       42.486       26.023       24.135     1805.054      677.192      582.499        0.536        0.153       87.215       16.708        0.037      337.764        9.958      858.339
05/20/2014  22:25:00      -74.199      -80.516      -13.067       44.925       35.911       35.753     2018.262     1289.580     1278.266        0.837        0.229      109.491       29.672        0.073      337.724        9.892      858.348
05/20/2014  22:26:00      -50.710      -31.077        0.754       31.922       34.948       22.991     1019.021     1221.385      528.609        0.315        0.138       59.475       17.926        0.091      337.700        9.852      858.379
05/20/2014  22:27:00      -57.340      -42.055       -5.870       29.087       31.673       15.729      846.052     1003.148      247.394        0.359        0.105       71.109       12.281        0.030      337.688        9.832      858.403
05/20/2014  22:28:00      -99.592      -62.510      -11.345       28.295       27.846       19.930      800.605      775.399      397.201        0.796        0.099      117.585       17.438        0.022      337.629        9.733      858.439
05/20/2014  22:29:00      -85.612      -68.964       -7.415       31.793       32.753       17.699     1010.825     1072.726      313.249        0.727        0.120      109.934       14.791        0.018      337.634        9.740      858.465
05/20/2014  22:30:00      -89.817      -15.735       -2.812       46.683       27.712       22.691     2179.296      767.950      514.874        0.589        0.173       91.184       25.751        0.080      337.592        9.669      858.487
05/20/2014  22:31:00      -96.591      -40.040      -14.967       30.216       33.330       15.608      913.033     1110.883      243.623        0.671        0.113      104.561       17.887        0.029      337.675        9.809      858.513
05/20/2014  22:32:00      -86.170      -26.233       -3.947       43.510       36.835       17.606     1893.145     1356.827      309.957        0.584        0.178       90.075       20.847        0.054      337.585        9.657      858.541
05/20/2014  22:33:00      -93.559      -32.549       -4.593       32.107       23.438       12.062     1030.854      549.354      145.485        0.578        0.086       99.059       11.285        0.013      337.511        9.533      858.565
05/20/2014  22:34:00      -64.135      -12.474       -3.058       24.075       21.594       19.482      579.614      466.301      379.563        0.285        0.071       65.337       17.830        0.074      337.592        9.671      858.597
05/20/2014  22:35:00      -89.133      -15.368      -11.309       19.310       31.056       14.563      372.892      964.497      212.095        0.493        0.077       90.448       10.556        0.014      337.574        9.640      858.625
05/20/2014  22:36:00      -79.940       -4.598       -4.095       32.370       27.446       21.220     1047.796      753.307      450.294        0.434        0.113       80.072       20.144        0.063      337.613        9.705      858.656
05/20/2014  22:37:00      -64.703       -4.935       -5.776       26.215       27.076       15.816      687.228      733.136      250.150        0.296        0.084       64.891       12.798        0.039      337.669        9.798      858.688
05/20/2014  22:38:00      -37.174       -8.098        3.345       14.677       11.938        9.922      215.408      142.520       98.440        0.096        0.023       38.046        5.046        0.018      337.613        9.705      858.707
05/20/2014  22:39:00       -6.853       -1.548        0.013       36.199       25.457       17.320     1310.359      648.075      299.967        0.115        0.113        7.026       12.413        3.121      337.536        9.576      858.717
05/20/2014  22:40:00       11.540       28.708        6.611       20.283       25.961       22.323      411.415      673.961      498.317        0.129        0.079       30.940       20.786        0.451      337.550        9.600      858.700
05/20/2014  22:41:00       17.203       10.042       23.484       14.595       13.517        7.109      213.021      182.716       50.542        0.070        0.022       19.919        5.568        0.078      337.590        9.667      858.658
05/20/2014  22:42:00      -22.212       -9.568       -3.886       16.708        9.580       13.538      279.158       91.773      183.286        0.058        0.028       24.185       12.430        0.264      337.519        9.547      858.622
05/20/2014  22:43:00      -55.491       -9.253       -6.587       21.329       20.871       11.211      454.935      435.606      125.683        0.211        0.051       56.257        7.339        0.017      337.589        9.665      858.611
05/20/2014  22:44:00      -46.945        8.949       -5.460       19.324       22.665       15.274      373.435      513.717      233.298        0.172        0.056       47.790        9.543        0.040      337.620        9.717      858.615
05/20/2014  22:45:00      -53.030      -29.366        2.129       23.035       20.353       17.568      530.624      414.229      308.650        0.247        0.063       60.618       13.106        0.047      337.554        9.608      858.594
05/20/2014  22:46:00      -71.096      -42.122       -9.714        7.482       12.116        8.592       55.979      146.805       73.817        0.360        0.014       82.637        4.678        0.003      337.477        9.478      858.561
05/20/2014  22:47:00      -89.615      -41.385       -3.215       28.778       15.977       16.670      828.146      255.274      277.890        0.556        0.068       98.710       19.243        0.038      337.494        9.507      858.536
05/20/2014  22:48:00      -79.371      -17.491       -8.684       16.845       15.055        9.749      283.761      226.658       95.041        0.364        0.030       81.275        3.507        0.002      337.508        9.529      858.525
05/20/2014  22:49:00      -79.502      -23.697       -6.775       15.951       14.014       10.700      254.421      196.388      114.501        0.375        0.028       82.958        8.390        0.010      337.580        9.650      858.507
05/20/2014  22:50:00      -39.265      -27.624       -0.335       28.715       21.890       14.297      824.529      479.169      204.395        0.191        0.075       48.008       17.549        0.134      337.625        9.725      858.499
05/20/2014  22:51:00      -28.292      -17.679        3.892       15.952       11.799        9.358      254.469      139.228       87.577        0.080        0.024       33.361       10.009        0.090      337.596        9.675      858.492
05/20/2014  22:52:00       -9.663      -37.602        0.818       11.524       18.303       18.008      132.807      335.017      324.294        0.115        0.040       38.823       10.499        0.073      337.669        9.799      858.483
05/20/2014  22:53:00      -16.376      -55.793       -8.958       12.075       10.084        8.324      145.806      101.682       69.287        0.189        0.016       58.147        4.600        0.006      337.611        9.701      858.467
05/20/2014  22:54:00      -22.751      -27.423       -1.351        8.395       11.046        8.636       70.470      122.013       74.585        0.077        0.013       35.632        2.861        0.006      337.607        9.696      858.463
05/20/2014  22:55:00      -25.337      -17.164       -0.619        7.692       10.991        6.105       59.163      120.813       37.270        0.058        0.011       30.603        4.204        0.019      337.563        9.619      858.464
05/20/2014  22:56:00      -45.976      -13.242       -4.523       17.094       13.003        6.885      292.203      169.088       47.402        0.141        0.025       47.845        6.999        0.021      337.565        9.627      858.464
05/20/2014  22:57:00      -46.859      -47.246       -6.034       26.812       17.282        8.822      718.883      298.673       77.829        0.278        0.055       66.543        9.812        0.022      337.599        9.681      858.471
05/20/2014  22:58:00      -54.619      -28.398        3.411       35.824       22.383       14.460     1283.394      501.001      209.080        0.290        0.100       61.561       15.381        0.062      337.559        9.614      858.490
05/20/2014  22:59:00     -114.165      -49.065       -1.843       20.310       11.988       11.781      412.494      143.719      138.799        0.807        0.035      124.261       10.509        0.007      337.506        9.524      858.509
05/20/2014  23:00:00     -150.089      -50.638        0.119       28.369       20.155       16.983      804.807      406.213      288.409        1.329        0.075      158.401       10.977        0.005      337.452        9.436      858.519
05/20/2014  23:01:00     -149.896      -52.891        0.450       47.815       31.918       24.209     2286.304     1018.753      586.082        1.458        0.195      158.954       25.103        0.025      337.389        9.331      858.515
05/20/2014  23:02:00      -97.177      -44.006        1.383       58.636       35.370       21.396     3438.170     1251.024      457.805        0.826        0.257      106.677       24.843        0.054      337.343        9.254      858.479
05/20/2014  23:03:00     -126.313      -65.160       -3.041       48.060       35.865       21.757     2309.765     1286.332      473.346        1.214        0.203      142.129       20.719        0.021      337.309        9.194      858.422
05/20/2014  23:04:00     -106.187      -53.852        6.489       56.153       41.965       23.859     3153.129     1761.050      569.230        0.985        0.274      119.062       25.984        0.048      337.292        9.168      858.373
05/20/2014  23:05:00     -153.738      -35.256        1.368       46.953       28.416       24.967     2204.617      807.441      623.375        1.426        0.182      157.729       25.021        0.025      337.290        9.164      858.352
05/20/2014  23:06:00     -104.425      -36.854       -3.278       52.946       31.437       25.112     2803.250      988.269      630.588        0.835        0.221      110.737       29.956        0.073      337.297        9.175      858.349
05/20/2014  23:07:00     -113.884      -30.216       -6.751       33.064       29.635       23.178     1093.251      878.218      537.201        0.822        0.125      117.824       22.452        0.036      337.258        9.111      858.359
05/20/2014  23:08:00     -108.449      -28.287      -10.310       20.052       20.991       12.418      402.081      440.609      154.202        0.683        0.050      112.077        6.935        0.004      337.264        9.122      858.376
05/20/2014  23:09:00     -112.692      -35.143       -9.416       15.889       18.537       11.511      252.460      343.619      132.506        0.738        0.036      118.045        9.440        0.006      337.275        9.141      858.390
05/20/2014  23:10:00     -124.591      -53.685      -11.742       20.394       17.419       14.293      415.897      303.413      204.298        0.973        0.046      135.665        3.103        0.001      337.267        9.127      858.383
05/20/2014  23:11:00     -109.087      -47.477      -16.922       11.920       17.308       10.158      142.078      299.583      103.177        0.749        0.027      118.971        5.951        0.003      337.256        9.110      858.379
05/20/2014  23:12:00     -102.007      -13.901      -11.509       49.662       28.175       15.606     2466.324      793.820      243.540        0.712        0.175      102.950       20.644        0.040      337.299        9.178      858.390
05/20/2014  23:13:00      -91.928        5.303      -18.821       30.315       28.135       19.147      919.021      791.572      366.594        0.545        0.104       92.081       15.846        0.030      337.408        9.363      858.394
05/20/2014  23:14:00      -55.940      -30.794       -1.760       27.264       23.299       14.665      743.327      542.826      215.048        0.279        0.075       63.855       15.380        0.058      337.408        9.363      858.380
05/20/2014  23:15:00      -43.931      -14.725       -3.574       23.261       23.750       15.666      541.051      564.086      245.436        0.175        0.068       46.334        7.671        0.027      337.353        9.270      858.369
05/20/2014  23:16:00      -78.356      -25.256       -9.259       30.493       15.017        9.535      929.800      225.499       90.917        0.405        0.062       82.326        5.102        0.004      337.283        9.152      858.361
05/20/2014  23:17:00      -57.909      -21.013       -5.564       20.866       15.610       13.210      435.380      243.662      174.507        0.234        0.043       61.603       13.612        0.049      337.308        9.195      858.361
05/20/2014  23:18:00      -24.885       18.805       -5.001       16.352       20.859       17.389      267.388      435.110      302.380        0.100        0.050       31.192       12.062        0.150      337.405        9.356      858.344
05/20/2014  23:19:00       -0.425       71.063      -12.929       32.272       20.239       11.997     1041.462      409.637      143.917        0.341        0.080       71.065        9.211        0.017      337.582        9.653      858.308
05/20/2014  23:20:00        9.361       35.295       -6.232       11.387       11.644        9.216      129.656      135.588       84.936        0.086        0.018       36.515        3.858        0.011      337.438        9.410      858.280
05/20/2014  23:21:00       -3.473       10.699       -3.822        7.173        8.538        6.051       51.451       72.902       36.611        0.015        0.008       11.249        4.336        0.149      337.404        9.353      858.246
05/20/2014  23:22:00       -6.122       -4.932        1.257       16.171        7.918       12.653      261.489       62.691      160.104        0.027        0.024        7.862       12.744        2.628      337.445        9.423      858.207
05/20/2014  23:23:00      -47.148      -26.825       -3.180       23.988       20.133       23.869      575.409      405.350      569.720        0.225        0.078       54.245       12.414        0.052      337.467        9.460      858.181
05/20/2014  23:24:00      -82.007      -42.894       -3.529       16.174       22.283       11.840      261.605      496.529      140.180        0.474        0.045       92.547        6.509        0.005      337.411        9.367      858.174
05/20/2014  23:25:00      -78.140      -37.561       -5.304       10.965       17.265        7.287      120.236      298.070       53.095        0.401        0.024       86.699        5.778        0.004      337.375        9.306      858.166
05/20/2014  23:26:00      -64.823      -37.553       -7.931       11.856        9.364        8.052      140.564       87.692       64.831        0.298        0.015       74.915        4.510        0.004      337.360        9.279      858.140
05/20/2014  23:27:00     -104.064      -34.538      -13.198       13.617       18.809       11.409      185.428      353.795      130.160        0.643        0.033      109.645        9.178        0.007      337.394        9.338      858.120
05/20/2014  23:28:00      -89.200      -38.661      -12.300       12.721       16.297       12.198      161.814      265.584      148.801        0.509        0.029       97.218        6.381        0.004      337.400        9.348      858.109
05/20/2014  23:29:00      -60.812      -46.104       -5.867       35.308       24.991       15.099     1246.657      624.557      227.982        0.398        0.105       76.313       13.192        0.030      337.418        9.379      858.097
05/20/2014  23:30:00      -12.092      -24.277        4.858       29.059       12.689       17.799      844.403      161.019      316.787        0.104        0.066       27.122       12.104        0.199      337.490        9.498      858.063
05/20/2014  23:31:00      -70.658      -23.940       -1.388       20.007       13.968       16.177      400.275      195.106      261.682        0.321        0.043       74.603       14.284        0.037      337.345        9.258      858.049
05/20/2014  23:32:00     -102.821      -38.168       -7.427       15.816       18.916       12.080      250.136      357.819      145.928        0.642        0.038      109.677       10.935        0.010      337.360        9.280      858.053
05/20/2014  23:33:00      -67.240      -10.366       -3.493       32.413       17.455       13.775     1050.609      304.666      189.764        0.309        0.077       68.034        9.685        0.020      337.402        9.352      858.061
05/20/2014  23:34:00       15.462       38.073       -1.524       21.054       17.601       15.905      443.291      309.803      252.976        0.135        0.050       41.093       12.406        0.091      337.520        9.549      858.050
05/20/2014  23:35:00       18.394       37.143      -12.989       18.477       11.990       15.229      341.405      143.752      231.927        0.130        0.036       41.448       13.958        0.113      337.493        9.504      858.020
05/20/2014  23:36:00       37.167       21.119        2.955       24.681       19.571       10.818      609.144      383.042      117.025        0.147        0.055       42.749        6.167        0.021      337.439        9.413      858.007
05/20/2014  23:37:00       67.258       42.569        9.512       17.640       11.275       18.986      311.161      127.129      360.483        0.361        0.040       79.598        7.500        0.009      337.413        9.370      858.010
05/20/2014  23:38:00       39.539       27.739       12.784       18.565       17.812       19.599      344.658      317.279      384.139        0.177        0.052       48.299       12.309        0.065      337.379        9.314      858.019
05/20/2014  23:39:00       82.270       49.511       15.053       33.935       22.129       22.200     1151.586      489.687      492.859        0.579        0.107       96.020       18.375        0.037      337.246        9.091      858.031
05/20/2014  23:40:00       60.909       49.363        0.331       31.916       22.687       19.381     1018.601      514.703      375.620        0.403        0.095       78.400       14.602        0.035      337.283        9.153      858.045
05/20/2014  23:41:00       42.632       29.853        2.652       44.983       32.792       18.779     2023.490     1075.308      352.634        0.308        0.173       52.045       17.454        0.112      337.202        9.017      858.064
05/20/2014  23:42:00       63.673       37.114        5.203       32.310       29.058       24.584     1043.919      844.359      604.365        0.398        0.125       73.700       15.414        0.044      337.276        9.141      858.093
05/20/2014  23:43:00      127.620       56.133        5.574       23.474       25.439       19.688      551.050      647.142      387.614        1.053        0.079      139.419       12.411        0.008      337.264        9.123      858.110
05/20/2014  23:44:00      107.056       49.439        3.298       48.631       42.478       33.677     2365.011     1804.376     1134.158        0.961        0.265      117.921       27.792        0.056      337.255        9.108      858.136
05/20/2014  23:45:00      150.434       81.186        3.784       53.223       43.796       31.369     2832.672     1918.105      984.041        1.748        0.287      170.943       22.014        0.017      337.291        9.164      858.168
05/20/2014  23:46:00      165.191       89.113       -3.320       48.385       38.600       27.715     2341.108     1489.948      768.115        1.992        0.230      187.694       12.010        0.004      337.290        9.164      858.192
05/20/2014  23:47:00      106.149       74.995       27.336       38.030       35.145       38.180     1446.319     1235.175     1457.739        1.089        0.207      129.968       17.821        0.019      337.299        9.179      858.226
05/20/2014  23:48:00      130.920       69.014       34.939       47.409       30.444       37.856     2247.594      926.821     1433.107        1.386        0.230      147.997       30.785        0.043      337.290        9.163      858.255
05/20/2014  23:49:00      105.167       51.247       20.585       68.646       56.183       37.019     4712.281     3156.501     1370.415        1.167        0.462      116.989       29.196        0.062      337.251        9.100      858.291
05/20/2014  23:50:00      145.846       93.613       29.825       46.568       37.480       43.871     2168.612     1404.779     1924.637        1.821        0.275      173.304       31.348        0.033      337.251        9.098      858.326
05/20/2014  23:51:00      182.550       76.221       41.376       87.654       52.288       48.501     7683.308     2733.988     2352.385        2.681        0.638      197.824       34.555        0.031      337.256        9.106      858.359
05/20/2014  23:52:00      192.887      110.134       29.580       82.230       63.898       55.766     6761.771     4082.891     3109.847        3.208        0.698      222.115       33.876        0.023      337.292        9.164      858.405
05/20/2014  23:53:00      251.482      152.616       30.752       76.386       58.022       44.639     5834.848     3366.579     1992.615        4.934        0.560      294.168       30.795        0.011      337.345        9.252      858.457
05/20/2014  23:54:00      147.146       80.478       29.195       68.421       43.529       49.325     4681.497     1894.780     2432.926        1.899        0.450      167.716       34.011        0.041      337.330        9.231      858.506
05/20/2014  23:55:00      212.071      146.788       32.586       69.734       50.095       45.991     4862.858     2509.486     2115.138        3.853        0.474      257.916       19.117        0.005      337.357        9.272      858.539
05/20/2014  23:56:00      224.242      148.563       20.616       81.356       84.283       53.106     6618.804     7103.556     2820.272        4.466        0.827      268.989       39.116        0.021      337.368        9.292      858.563
05/20/2014  23:57:00      229.378      145.694       46.358       75.219       78.016       57.012     5657.897     6086.543     3250.320        4.549        0.750      271.737       32.882        0.015      337.432        9.398      858.583
05/20/2014  23:58:00      111.597       88.657        6.979       80.027       53.978       47.050     6404.310     2913.588     2213.746        1.594        0.577      142.526       28.290        0.039      337.447        9.424      858.602
05/20/2014  23:59:00      152.756      129.853       16.654       87.347       80.744       45.812     7629.492     6519.560     2098.707        2.836        0.812      200.490       30.938        0.024      337.467        9.456      858.620
